<?xml version="1.0" encoding="UTF-8" standalone="no" ?>
<gpx xmlns="http://www.topografix.com/GPX/1/1" xmlns:xsi="http://www.w3.org/2001/XMLSchema-instance" xsi:schemaLocation="http://www.topografix.com/GPX/1/1 http://www.topografix.com/GPX/1/1/gpx.xsd" version="1.1" creator="VisuGPX - https://www.visugpx.com">
  <metadata>
    <name>Mostuéjouls</name>
    <desc><![CDATA[J8 via le point sublime]]></desc>
  </metadata>
  <wpt lat="44.26045" lon="3.16114">
    <ele>857.5</ele>
    <name><![CDATA[gites des Bombes]]></name>
    <type><![CDATA[hotel]]></type>
  </wpt>
  <wpt lat="44.37007" lon="3.00579">
    <ele>696.6</ele>
    <name><![CDATA[La Ferme de Montgrand]]></name>
    <type><![CDATA[hotel]]></type>
  </wpt>
  <wpt lat="44.31298" lon="3.24204">
    <ele>846.3</ele>
  </wpt>
  <wpt lat="44.3122" lon="3.23327">
    <ele>889.3</ele>
    <name><![CDATA[barrieres]]></name>
    <desc><![CDATA[a ouvrir et refermées]]></desc>
    <type><![CDATA[alarm]]></type>
  </wpt>
  <trk>
    <name><![CDATA[J8 boucle via le Point Sublime]]></name>
    <desc><![CDATA[]]></desc>
    <extensions>
      <line xmlns="http://www.topografix.com/GPX/gpx_style/0/2">
        <color>ff000d</color>
        <opacity>1</opacity>
        <width>4</width>
      </line>
    </extensions>
    <trkseg>
      <trkpt lat="44.23283" lon="3.19998">
        <ele>935.02</ele>
        <time>2025-09-22T08:30:06Z</time>
        <extensions>
          <visugpx:TrkExtension xmlns:visugpx="https://www.visugpx.com/editgpx/">
            <visugpx:node>2</visugpx:node>
            </visugpx:TrkExtension>
        </extensions>
      </trkpt>
      <trkpt lat="44.23306" lon="3.1999">
        <ele>935.5</ele>
        <time>2025-09-22T08:29:50Z</time>
      </trkpt>
      <trkpt lat="44.23325" lon="3.19978">
        <ele>935.98</ele>
        <time>2025-09-22T08:29:35Z</time>
      </trkpt>
      <trkpt lat="44.23346" lon="3.19954">
        <ele>937.9</ele>
        <time>2025-09-22T08:29:17Z</time>
      </trkpt>
      <trkpt lat="44.23361" lon="3.19934">
        <ele>937.9</ele>
        <time>2025-09-22T08:29:03Z</time>
      </trkpt>
      <trkpt lat="44.23374" lon="3.19911">
        <ele>938.38</ele>
        <time>2025-09-22T08:28:50Z</time>
      </trkpt>
      <trkpt lat="44.23361" lon="3.19891">
        <ele>937.9</ele>
        <time>2025-09-22T08:28:36Z</time>
      </trkpt>
      <trkpt lat="44.23343" lon="3.19876">
        <ele>936.94</ele>
        <time>2025-09-22T08:28:21Z</time>
      </trkpt>
      <trkpt lat="44.23337" lon="3.19863">
        <ele>936.46</ele>
        <time>2025-09-22T08:28:15Z</time>
      </trkpt>
      <trkpt lat="44.23328" lon="3.19831">
        <ele>934.06</ele>
        <time>2025-09-22T08:27:57Z</time>
      </trkpt>
      <trkpt lat="44.23328" lon="3.1983">
        <ele>934.06</ele>
        <time>2025-09-22T08:27:56Z</time>
      </trkpt>
      <trkpt lat="44.23322" lon="3.19803">
        <ele>933.1</ele>
        <time>2025-09-22T08:27:41Z</time>
      </trkpt>
      <trkpt lat="44.23304" lon="3.19778">
        <ele>934.54</ele>
        <time>2025-09-22T08:27:25Z</time>
      </trkpt>
      <trkpt lat="44.23281" lon="3.19764">
        <ele>935.98</ele>
        <time>2025-09-22T08:27:08Z</time>
      </trkpt>
      <trkpt lat="44.23269" lon="3.19737">
        <ele>934.54</ele>
        <time>2025-09-22T08:26:51Z</time>
      </trkpt>
      <trkpt lat="44.2327" lon="3.19731">
        <ele>934.06</ele>
        <time>2025-09-22T08:26:47Z</time>
      </trkpt>
      <trkpt lat="44.2328" lon="3.19705">
        <ele>932.14</ele>
        <time>2025-09-22T08:26:31Z</time>
      </trkpt>
      <trkpt lat="44.23304" lon="3.19689">
        <ele>929.73</ele>
        <time>2025-09-22T08:26:15Z</time>
      </trkpt>
      <trkpt lat="44.23326" lon="3.19668">
        <ele>924.45</ele>
        <time>2025-09-22T08:25:57Z</time>
      </trkpt>
      <trkpt lat="44.23346" lon="3.19643">
        <ele>922.04</ele>
        <time>2025-09-22T08:25:37Z</time>
      </trkpt>
      <trkpt lat="44.23367" lon="3.19624">
        <ele>914.35</ele>
        <time>2025-09-22T08:25:18Z</time>
      </trkpt>
      <trkpt lat="44.23391" lon="3.19611">
        <ele>913.39</ele>
        <time>2025-09-22T08:24:59Z</time>
      </trkpt>
      <trkpt lat="44.23418" lon="3.19603">
        <ele>912.43</ele>
        <time>2025-09-22T08:24:38Z</time>
      </trkpt>
      <trkpt lat="44.23437" lon="3.1958">
        <ele>915.79</ele>
        <time>2025-09-22T08:24:22Z</time>
      </trkpt>
      <trkpt lat="44.23458" lon="3.19559">
        <ele>914.35</ele>
        <time>2025-09-22T08:24:03Z</time>
      </trkpt>
      <trkpt lat="44.2348" lon="3.19547">
        <ele>913.87</ele>
        <time>2025-09-22T08:23:46Z</time>
      </trkpt>
      <trkpt lat="44.23504" lon="3.19538">
        <ele>915.79</ele>
        <time>2025-09-22T08:23:28Z</time>
      </trkpt>
      <trkpt lat="44.23536" lon="3.19527">
        <ele>920.12</ele>
        <time>2025-09-22T08:23:08Z</time>
      </trkpt>
      <trkpt lat="44.23555" lon="3.1952">
        <ele>923</ele>
        <time>2025-09-22T08:22:52Z</time>
      </trkpt>
      <trkpt lat="44.23577" lon="3.1951">
        <ele>924.45</ele>
        <time>2025-09-22T08:22:35Z</time>
      </trkpt>
      <trkpt lat="44.23605" lon="3.19499">
        <ele>925.41</ele>
        <time>2025-09-22T08:22:16Z</time>
      </trkpt>
      <trkpt lat="44.23619" lon="3.19483">
        <ele>925.89</ele>
        <time>2025-09-22T08:22:02Z</time>
      </trkpt>
      <trkpt lat="44.23623" lon="3.19475">
        <ele>925.41</ele>
        <time>2025-09-22T08:21:57Z</time>
      </trkpt>
      <trkpt lat="44.23648" lon="3.19458">
        <ele>927.33</ele>
        <time>2025-09-22T08:21:41Z</time>
      </trkpt>
      <trkpt lat="44.23673" lon="3.19449">
        <ele>926.85</ele>
        <time>2025-09-22T08:21:24Z</time>
      </trkpt>
      <trkpt lat="44.23692" lon="3.19445">
        <ele>926.37</ele>
        <time>2025-09-22T08:21:09Z</time>
      </trkpt>
      <trkpt lat="44.23715" lon="3.19437">
        <ele>924.93</ele>
        <time>2025-09-22T08:20:53Z</time>
      </trkpt>
      <trkpt lat="44.23737" lon="3.19429">
        <ele>918.2</ele>
        <time>2025-09-22T08:20:37Z</time>
      </trkpt>
      <trkpt lat="44.23758" lon="3.19424">
        <ele>914.83</ele>
        <time>2025-09-22T08:20:18Z</time>
      </trkpt>
      <trkpt lat="44.23784" lon="3.19421">
        <ele>913.87</ele>
        <time>2025-09-22T08:19:59Z</time>
      </trkpt>
      <trkpt lat="44.23807" lon="3.19421">
        <ele>912.43</ele>
        <time>2025-09-22T08:19:42Z</time>
      </trkpt>
      <trkpt lat="44.23829" lon="3.19421">
        <ele>905.7</ele>
        <time>2025-09-22T08:19:24Z</time>
      </trkpt>
      <trkpt lat="44.23834" lon="3.19422">
        <ele>904.74</ele>
        <time>2025-09-22T08:19:21Z</time>
      </trkpt>
      <trkpt lat="44.2386" lon="3.1942">
        <ele>902.82</ele>
        <time>2025-09-22T08:18:59Z</time>
      </trkpt>
      <trkpt lat="44.23868" lon="3.19416">
        <ele>902.33</ele>
        <time>2025-09-22T08:18:51Z</time>
      </trkpt>
      <trkpt lat="44.23888" lon="3.19391">
        <ele>898.97</ele>
        <time>2025-09-22T08:18:31Z</time>
      </trkpt>
      <trkpt lat="44.23908" lon="3.19373">
        <ele>897.53</ele>
        <time>2025-09-22T08:18:14Z</time>
      </trkpt>
      <trkpt lat="44.23923" lon="3.19351">
        <ele>897.05</ele>
        <time>2025-09-22T08:17:58Z</time>
      </trkpt>
      <trkpt lat="44.23924" lon="3.19342">
        <ele>897.05</ele>
        <time>2025-09-22T08:17:54Z</time>
      </trkpt>
      <trkpt lat="44.23923" lon="3.19308">
        <ele>900.89</ele>
        <time>2025-09-22T08:17:35Z</time>
      </trkpt>
      <trkpt lat="44.23928" lon="3.19274">
        <ele>903.3</ele>
        <time>2025-09-22T08:17:18Z</time>
      </trkpt>
      <trkpt lat="44.23934" lon="3.19243">
        <ele>902.33</ele>
        <time>2025-09-22T08:17:00Z</time>
      </trkpt>
      <trkpt lat="44.23933" lon="3.19205">
        <ele>899.45</ele>
        <time>2025-09-22T08:16:42Z</time>
      </trkpt>
      <trkpt lat="44.23933" lon="3.19198">
        <ele>898.49</ele>
        <time>2025-09-22T08:16:39Z</time>
      </trkpt>
      <trkpt lat="44.23935" lon="3.19186">
        <ele>898.01</ele>
        <time>2025-09-22T08:16:33Z</time>
      </trkpt>
      <trkpt lat="44.23945" lon="3.19158">
        <ele>898.49</ele>
        <time>2025-09-22T08:16:17Z</time>
      </trkpt>
      <trkpt lat="44.23951" lon="3.19146">
        <ele>899.93</ele>
        <time>2025-09-22T08:16:07Z</time>
      </trkpt>
      <trkpt lat="44.23966" lon="3.19123">
        <ele>898.97</ele>
        <time>2025-09-22T08:15:51Z</time>
      </trkpt>
      <trkpt lat="44.23986" lon="3.19089">
        <ele>897.05</ele>
        <time>2025-09-22T08:15:29Z</time>
      </trkpt>
      <trkpt lat="44.24003" lon="3.19054">
        <ele>895.12</ele>
        <time>2025-09-22T08:15:10Z</time>
      </trkpt>
      <trkpt lat="44.24019" lon="3.19024">
        <ele>894.16</ele>
        <time>2025-09-22T08:14:51Z</time>
      </trkpt>
      <trkpt lat="44.2403" lon="3.18996">
        <ele>893.2</ele>
        <time>2025-09-22T08:14:34Z</time>
      </trkpt>
      <trkpt lat="44.24045" lon="3.18963">
        <ele>893.68</ele>
        <time>2025-09-22T08:14:15Z</time>
      </trkpt>
      <trkpt lat="44.24056" lon="3.18929">
        <ele>889.84</ele>
        <time>2025-09-22T08:13:55Z</time>
      </trkpt>
      <trkpt lat="44.24071" lon="3.18897">
        <ele>887.91</ele>
        <time>2025-09-22T08:13:37Z</time>
      </trkpt>
      <trkpt lat="44.24088" lon="3.18868">
        <ele>885.51</ele>
        <time>2025-09-22T08:13:17Z</time>
      </trkpt>
      <trkpt lat="44.24099" lon="3.18847">
        <ele>885.51</ele>
        <time>2025-09-22T08:13:04Z</time>
      </trkpt>
      <trkpt lat="44.24118" lon="3.18819">
        <ele>888.88</ele>
        <time>2025-09-22T08:12:45Z</time>
      </trkpt>
      <trkpt lat="44.24124" lon="3.18795">
        <ele>890.32</ele>
        <time>2025-09-22T08:12:29Z</time>
      </trkpt>
      <trkpt lat="44.24139" lon="3.18768">
        <ele>892.72</ele>
        <time>2025-09-22T08:12:11Z</time>
      </trkpt>
      <trkpt lat="44.24151" lon="3.1874">
        <ele>894.64</ele>
        <time>2025-09-22T08:11:53Z</time>
      </trkpt>
      <trkpt lat="44.24163" lon="3.18704">
        <ele>895.61</ele>
        <time>2025-09-22T08:11:33Z</time>
      </trkpt>
      <trkpt lat="44.24185" lon="3.1867">
        <ele>893.68</ele>
        <time>2025-09-22T08:11:11Z</time>
      </trkpt>
      <trkpt lat="44.24186" lon="3.18661">
        <ele>892.72</ele>
        <time>2025-09-22T08:11:06Z</time>
      </trkpt>
      <trkpt lat="44.2419" lon="3.1865">
        <ele>891.76</ele>
        <time>2025-09-22T08:10:58Z</time>
      </trkpt>
      <trkpt lat="44.24207" lon="3.18648">
        <ele>890.8</ele>
        <time>2025-09-22T08:10:45Z</time>
      </trkpt>
      <trkpt lat="44.24229" lon="3.18637">
        <ele>886.95</ele>
        <time>2025-09-22T08:10:27Z</time>
      </trkpt>
      <trkpt lat="44.24253" lon="3.18623">
        <ele>885.03</ele>
        <time>2025-09-22T08:10:08Z</time>
      </trkpt>
      <trkpt lat="44.24265" lon="3.18606">
        <ele>883.11</ele>
        <time>2025-09-22T08:09:55Z</time>
      </trkpt>
      <trkpt lat="44.2428" lon="3.18575">
        <ele>879.74</ele>
        <time>2025-09-22T08:09:35Z</time>
      </trkpt>
      <trkpt lat="44.24299" lon="3.18559">
        <ele>877.34</ele>
        <time>2025-09-22T08:09:15Z</time>
      </trkpt>
      <trkpt lat="44.24327" lon="3.18544">
        <ele>876.38</ele>
        <time>2025-09-22T08:08:53Z</time>
      </trkpt>
      <trkpt lat="44.24347" lon="3.18531">
        <ele>874.46</ele>
        <time>2025-09-22T08:08:37Z</time>
      </trkpt>
      <trkpt lat="44.24364" lon="3.18513">
        <ele>873.5</ele>
        <time>2025-09-22T08:08:22Z</time>
      </trkpt>
      <trkpt lat="44.24379" lon="3.18489">
        <ele>872.53</ele>
        <time>2025-09-22T08:08:06Z</time>
      </trkpt>
      <trkpt lat="44.24391" lon="3.18464">
        <ele>870.61</ele>
        <time>2025-09-22T08:07:51Z</time>
      </trkpt>
      <trkpt lat="44.24408" lon="3.18451">
        <ele>869.65</ele>
        <time>2025-09-22T08:07:36Z</time>
      </trkpt>
      <trkpt lat="44.24429" lon="3.18432">
        <ele>869.17</ele>
        <time>2025-09-22T08:07:19Z</time>
      </trkpt>
      <trkpt lat="44.24448" lon="3.18417">
        <ele>869.65</ele>
        <time>2025-09-22T08:07:02Z</time>
      </trkpt>
      <trkpt lat="44.24464" lon="3.18406">
        <ele>869.17</ele>
        <time>2025-09-22T08:06:48Z</time>
      </trkpt>
      <trkpt lat="44.24484" lon="3.18397">
        <ele>871.09</ele>
        <time>2025-09-22T08:06:33Z</time>
      </trkpt>
      <trkpt lat="44.24502" lon="3.1837">
        <ele>874.94</ele>
        <time>2025-09-22T08:06:14Z</time>
      </trkpt>
      <trkpt lat="44.24503" lon="3.18367">
        <ele>875.42</ele>
        <time>2025-09-22T08:06:12Z</time>
      </trkpt>
      <trkpt lat="44.24503" lon="3.18349">
        <ele>879.26</ele>
        <time>2025-09-22T08:05:59Z</time>
      </trkpt>
      <trkpt lat="44.24501" lon="3.18328">
        <ele>883.59</ele>
        <time>2025-09-22T08:05:44Z</time>
      </trkpt>
      <trkpt lat="44.245" lon="3.18325">
        <ele>884.07</ele>
        <time>2025-09-22T08:05:42Z</time>
      </trkpt>
      <trkpt lat="44.24503" lon="3.18301">
        <ele>885.03</ele>
        <time>2025-09-22T08:05:27Z</time>
      </trkpt>
      <trkpt lat="44.24503" lon="3.18271">
        <ele>886.47</ele>
        <time>2025-09-22T08:05:10Z</time>
      </trkpt>
      <trkpt lat="44.24495" lon="3.18242">
        <ele>885.03</ele>
        <time>2025-09-22T08:04:53Z</time>
      </trkpt>
      <trkpt lat="44.24494" lon="3.18236">
        <ele>884.55</ele>
        <time>2025-09-22T08:04:49Z</time>
      </trkpt>
      <trkpt lat="44.24492" lon="3.182">
        <ele>882.63</ele>
        <time>2025-09-22T08:04:32Z</time>
      </trkpt>
      <trkpt lat="44.24499" lon="3.18165">
        <ele>880.22</ele>
        <time>2025-09-22T08:04:13Z</time>
      </trkpt>
      <trkpt lat="44.24498" lon="3.18138">
        <ele>877.82</ele>
        <time>2025-09-22T08:03:58Z</time>
      </trkpt>
      <trkpt lat="44.24496" lon="3.18115">
        <ele>876.86</ele>
        <time>2025-09-22T08:03:45Z</time>
      </trkpt>
      <trkpt lat="44.24486" lon="3.18088">
        <ele>874.94</ele>
        <time>2025-09-22T08:03:28Z</time>
      </trkpt>
      <trkpt lat="44.24479" lon="3.1806">
        <ele>873.5</ele>
        <time>2025-09-22T08:03:11Z</time>
      </trkpt>
      <trkpt lat="44.24485" lon="3.1803">
        <ele>872.05</ele>
        <time>2025-09-22T08:02:56Z</time>
      </trkpt>
      <trkpt lat="44.24483" lon="3.17999">
        <ele>870.13</ele>
        <time>2025-09-22T08:02:39Z</time>
      </trkpt>
      <trkpt lat="44.2448" lon="3.17981">
        <ele>870.13</ele>
        <time>2025-09-22T08:02:26Z</time>
      </trkpt>
      <trkpt lat="44.24483" lon="3.17956">
        <ele>866.29</ele>
        <time>2025-09-22T08:02:11Z</time>
      </trkpt>
      <trkpt lat="44.24485" lon="3.17928">
        <ele>861.96</ele>
        <time>2025-09-22T08:01:52Z</time>
      </trkpt>
      <trkpt lat="44.24488" lon="3.17923">
        <ele>861.96</ele>
        <time>2025-09-22T08:01:48Z</time>
      </trkpt>
      <trkpt lat="44.24491" lon="3.17903">
        <ele>858.59</ele>
        <time>2025-09-22T08:01:36Z</time>
      </trkpt>
      <trkpt lat="44.24486" lon="3.1787">
        <ele>857.15</ele>
        <time>2025-09-22T08:01:17Z</time>
      </trkpt>
      <trkpt lat="44.2448" lon="3.17837">
        <ele>856.67</ele>
        <time>2025-09-22T08:00:59Z</time>
      </trkpt>
      <trkpt lat="44.24483" lon="3.17807">
        <ele>856.19</ele>
        <time>2025-09-22T08:00:45Z</time>
      </trkpt>
      <trkpt lat="44.24473" lon="3.1777">
        <ele>856.19</ele>
        <time>2025-09-22T08:00:27Z</time>
      </trkpt>
      <trkpt lat="44.24464" lon="3.17737">
        <ele>858.11</ele>
        <time>2025-09-22T08:00:09Z</time>
      </trkpt>
      <trkpt lat="44.24453" lon="3.17719">
        <ele>857.63</ele>
        <time>2025-09-22T07:59:57Z</time>
      </trkpt>
      <trkpt lat="44.24438" lon="3.17693">
        <ele>858.11</ele>
        <time>2025-09-22T07:59:40Z</time>
      </trkpt>
      <trkpt lat="44.24424" lon="3.17661">
        <ele>859.08</ele>
        <time>2025-09-22T07:59:22Z</time>
      </trkpt>
      <trkpt lat="44.24411" lon="3.17636">
        <ele>857.15</ele>
        <time>2025-09-22T07:59:04Z</time>
      </trkpt>
      <trkpt lat="44.24397" lon="3.17606">
        <ele>854.75</ele>
        <time>2025-09-22T07:58:45Z</time>
      </trkpt>
      <trkpt lat="44.24384" lon="3.17573">
        <ele>852.35</ele>
        <time>2025-09-22T07:58:26Z</time>
      </trkpt>
      <trkpt lat="44.24371" lon="3.17542">
        <ele>855.23</ele>
        <time>2025-09-22T07:58:08Z</time>
      </trkpt>
      <trkpt lat="44.24351" lon="3.17515">
        <ele>857.63</ele>
        <time>2025-09-22T07:57:48Z</time>
      </trkpt>
      <trkpt lat="44.24338" lon="3.17494">
        <ele>859.56</ele>
        <time>2025-09-22T07:57:31Z</time>
      </trkpt>
      <trkpt lat="44.24334" lon="3.17473">
        <ele>861.48</ele>
        <time>2025-09-22T07:57:16Z</time>
      </trkpt>
      <trkpt lat="44.24324" lon="3.17446">
        <ele>861.48</ele>
        <time>2025-09-22T07:56:59Z</time>
      </trkpt>
      <trkpt lat="44.24309" lon="3.17421">
        <ele>860.52</ele>
        <time>2025-09-22T07:56:42Z</time>
      </trkpt>
      <trkpt lat="44.24299" lon="3.17388">
        <ele>861.48</ele>
        <time>2025-09-22T07:56:22Z</time>
      </trkpt>
      <trkpt lat="44.24301" lon="3.17357">
        <ele>860.04</ele>
        <time>2025-09-22T07:56:04Z</time>
      </trkpt>
      <trkpt lat="44.24303" lon="3.1733">
        <ele>856.67</ele>
        <time>2025-09-22T07:55:47Z</time>
      </trkpt>
      <trkpt lat="44.24304" lon="3.17301">
        <ele>855.71</ele>
        <time>2025-09-22T07:55:28Z</time>
      </trkpt>
      <trkpt lat="44.24317" lon="3.17288">
        <ele>853.31</ele>
        <time>2025-09-22T07:55:14Z</time>
      </trkpt>
      <trkpt lat="44.24318" lon="3.17283">
        <ele>853.31</ele>
        <time>2025-09-22T07:55:11Z</time>
      </trkpt>
      <trkpt lat="44.24324" lon="3.1725">
        <ele>852.83</ele>
        <time>2025-09-22T07:54:51Z</time>
      </trkpt>
      <trkpt lat="44.24327" lon="3.17216">
        <ele>854.27</ele>
        <time>2025-09-22T07:54:32Z</time>
      </trkpt>
      <trkpt lat="44.24328" lon="3.1719">
        <ele>856.19</ele>
        <time>2025-09-22T07:54:16Z</time>
      </trkpt>
      <trkpt lat="44.24334" lon="3.1716">
        <ele>856.67</ele>
        <time>2025-09-22T07:53:58Z</time>
      </trkpt>
      <trkpt lat="44.24332" lon="3.17126">
        <ele>857.63</ele>
        <time>2025-09-22T07:53:40Z</time>
      </trkpt>
      <trkpt lat="44.24328" lon="3.1712">
        <ele>856.67</ele>
        <time>2025-09-22T07:53:34Z</time>
      </trkpt>
      <trkpt lat="44.24325" lon="3.17117">
        <ele>857.15</ele>
        <time>2025-09-22T07:53:31Z</time>
      </trkpt>
      <trkpt lat="44.24324" lon="3.17115">
        <ele>857.15</ele>
        <time>2025-09-22T07:53:29Z</time>
      </trkpt>
      <trkpt lat="44.24324" lon="3.17112">
        <ele>857.15</ele>
        <time>2025-09-22T07:53:27Z</time>
      </trkpt>
      <trkpt lat="44.24325" lon="3.17087">
        <ele>858.11</ele>
        <time>2025-09-22T07:53:12Z</time>
      </trkpt>
      <trkpt lat="44.24329" lon="3.17055">
        <ele>857.15</ele>
        <time>2025-09-22T07:52:54Z</time>
      </trkpt>
      <trkpt lat="44.24327" lon="3.17029">
        <ele>858.11</ele>
        <time>2025-09-22T07:52:39Z</time>
      </trkpt>
      <trkpt lat="44.24313" lon="3.17003">
        <ele>858.59</ele>
        <time>2025-09-22T07:52:20Z</time>
      </trkpt>
      <trkpt lat="44.24299" lon="3.16977">
        <ele>858.11</ele>
        <time>2025-09-22T07:52:03Z</time>
      </trkpt>
      <trkpt lat="44.2428" lon="3.16959">
        <ele>857.63</ele>
        <time>2025-09-22T07:51:46Z</time>
      </trkpt>
      <trkpt lat="44.24256" lon="3.16951">
        <ele>858.59</ele>
        <time>2025-09-22T07:51:27Z</time>
      </trkpt>
      <trkpt lat="44.24237" lon="3.16938">
        <ele>859.08</ele>
        <time>2025-09-22T07:51:08Z</time>
      </trkpt>
      <trkpt lat="44.24237" lon="3.16933">
        <ele>859.08</ele>
        <time>2025-09-22T07:51:03Z</time>
      </trkpt>
      <trkpt lat="44.24256" lon="3.16928">
        <ele>859.08</ele>
        <time>2025-09-22T07:50:48Z</time>
      </trkpt>
      <trkpt lat="44.24274" lon="3.16926">
        <ele>860.52</ele>
        <time>2025-09-22T07:50:32Z</time>
      </trkpt>
      <trkpt lat="44.24296" lon="3.1692">
        <ele>861.96</ele>
        <time>2025-09-22T07:50:16Z</time>
      </trkpt>
      <trkpt lat="44.24323" lon="3.16914">
        <ele>863.88</ele>
        <time>2025-09-22T07:49:55Z</time>
      </trkpt>
      <trkpt lat="44.24354" lon="3.16911">
        <ele>866.29</ele>
        <time>2025-09-22T07:49:33Z</time>
      </trkpt>
      <trkpt lat="44.24384" lon="3.16898">
        <ele>866.77</ele>
        <time>2025-09-22T07:49:10Z</time>
      </trkpt>
      <trkpt lat="44.24413" lon="3.16885">
        <ele>868.21</ele>
        <time>2025-09-22T07:48:49Z</time>
      </trkpt>
      <trkpt lat="44.24445" lon="3.1687">
        <ele>868.21</ele>
        <time>2025-09-22T07:48:26Z</time>
      </trkpt>
      <trkpt lat="44.24473" lon="3.16856">
        <ele>868.21</ele>
        <time>2025-09-22T07:48:06Z</time>
      </trkpt>
      <trkpt lat="44.24503" lon="3.16835">
        <ele>866.77</ele>
        <time>2025-09-22T07:47:42Z</time>
      </trkpt>
      <trkpt lat="44.24511" lon="3.16833">
        <ele>866.29</ele>
        <time>2025-09-22T07:47:36Z</time>
      </trkpt>
      <trkpt lat="44.24522" lon="3.1682">
        <ele>866.77</ele>
        <time>2025-09-22T07:47:22Z</time>
      </trkpt>
      <trkpt lat="44.24553" lon="3.16801">
        <ele>867.73</ele>
        <time>2025-09-22T07:47:00Z</time>
      </trkpt>
      <trkpt lat="44.24579" lon="3.1679">
        <ele>868.21</ele>
        <time>2025-09-22T07:46:42Z</time>
      </trkpt>
      <trkpt lat="44.24609" lon="3.16781">
        <ele>867.25</ele>
        <time>2025-09-22T07:46:20Z</time>
      </trkpt>
      <trkpt lat="44.2464" lon="3.1677">
        <ele>866.29</ele>
        <time>2025-09-22T07:45:59Z</time>
      </trkpt>
      <trkpt lat="44.24664" lon="3.1676">
        <ele>866.29</ele>
        <time>2025-09-22T07:45:42Z</time>
      </trkpt>
      <trkpt lat="44.24694" lon="3.16749">
        <ele>866.77</ele>
        <time>2025-09-22T07:45:21Z</time>
      </trkpt>
      <trkpt lat="44.24723" lon="3.16738">
        <ele>866.29</ele>
        <time>2025-09-22T07:45:01Z</time>
      </trkpt>
      <trkpt lat="44.24747" lon="3.16727">
        <ele>865.8</ele>
        <time>2025-09-22T07:44:45Z</time>
      </trkpt>
      <trkpt lat="44.24773" lon="3.16719">
        <ele>867.25</ele>
        <time>2025-09-22T07:44:27Z</time>
      </trkpt>
      <trkpt lat="44.24806" lon="3.16707">
        <ele>866.29</ele>
        <time>2025-09-22T07:44:03Z</time>
      </trkpt>
      <trkpt lat="44.24835" lon="3.16696">
        <ele>867.25</ele>
        <time>2025-09-22T07:43:42Z</time>
      </trkpt>
      <trkpt lat="44.24862" lon="3.16682">
        <ele>869.17</ele>
        <time>2025-09-22T07:43:23Z</time>
      </trkpt>
      <trkpt lat="44.24886" lon="3.1667">
        <ele>868.69</ele>
        <time>2025-09-22T07:43:05Z</time>
      </trkpt>
      <trkpt lat="44.24911" lon="3.16659">
        <ele>869.65</ele>
        <time>2025-09-22T07:42:46Z</time>
      </trkpt>
      <trkpt lat="44.24937" lon="3.16652">
        <ele>870.61</ele>
        <time>2025-09-22T07:42:27Z</time>
      </trkpt>
      <trkpt lat="44.24963" lon="3.16649">
        <ele>869.65</ele>
        <time>2025-09-22T07:42:08Z</time>
      </trkpt>
      <trkpt lat="44.24996" lon="3.16642">
        <ele>872.53</ele>
        <time>2025-09-22T07:41:45Z</time>
      </trkpt>
      <trkpt lat="44.2502" lon="3.16636">
        <ele>873.01</ele>
        <time>2025-09-22T07:41:27Z</time>
      </trkpt>
      <trkpt lat="44.25048" lon="3.16632">
        <ele>873.98</ele>
        <time>2025-09-22T07:41:06Z</time>
      </trkpt>
      <trkpt lat="44.25074" lon="3.16628">
        <ele>874.94</ele>
        <time>2025-09-22T07:40:47Z</time>
      </trkpt>
      <trkpt lat="44.25099" lon="3.16621">
        <ele>876.86</ele>
        <time>2025-09-22T07:40:29Z</time>
      </trkpt>
      <trkpt lat="44.25126" lon="3.16605">
        <ele>879.26</ele>
        <time>2025-09-22T07:40:07Z</time>
      </trkpt>
      <trkpt lat="44.25148" lon="3.16587">
        <ele>880.71</ele>
        <time>2025-09-22T07:39:48Z</time>
      </trkpt>
      <trkpt lat="44.25166" lon="3.16562">
        <ele>881.67</ele>
        <time>2025-09-22T07:39:29Z</time>
      </trkpt>
      <trkpt lat="44.25182" lon="3.16535">
        <ele>881.19</ele>
        <time>2025-09-22T07:39:09Z</time>
      </trkpt>
      <trkpt lat="44.25202" lon="3.16505">
        <ele>880.71</ele>
        <time>2025-09-22T07:38:47Z</time>
      </trkpt>
      <trkpt lat="44.25225" lon="3.16483">
        <ele>880.71</ele>
        <time>2025-09-22T07:38:28Z</time>
      </trkpt>
      <trkpt lat="44.25249" lon="3.16468">
        <ele>881.19</ele>
        <time>2025-09-22T07:38:09Z</time>
      </trkpt>
      <trkpt lat="44.25277" lon="3.16453">
        <ele>881.67</ele>
        <time>2025-09-22T07:37:47Z</time>
      </trkpt>
      <trkpt lat="44.25302" lon="3.16442">
        <ele>881.67</ele>
        <time>2025-09-22T07:37:26Z</time>
      </trkpt>
      <trkpt lat="44.25303" lon="3.16441">
        <ele>882.63</ele>
        <time>2025-09-22T07:37:21Z</time>
      </trkpt>
      <trkpt lat="44.25307" lon="3.1644">
        <ele>882.63</ele>
        <time>2025-09-22T07:37:06Z</time>
      </trkpt>
      <trkpt lat="44.25311" lon="3.1644">
        <ele>882.63</ele>
        <time>2025-09-22T07:36:41Z</time>
      </trkpt>
      <trkpt lat="44.25312" lon="3.16439">
        <ele>882.63</ele>
        <time>2025-09-22T07:36:17Z</time>
      </trkpt>
      <trkpt lat="44.25312" lon="3.1644">
        <ele>883.59</ele>
        <time>2025-09-22T07:35:47Z</time>
      </trkpt>
      <trkpt lat="44.25313" lon="3.16439">
        <ele>882.15</ele>
        <time>2025-09-22T07:35:19Z</time>
      </trkpt>
      <trkpt lat="44.25314" lon="3.16437">
        <ele>881.67</ele>
        <time>2025-09-22T07:34:50Z</time>
      </trkpt>
      <trkpt lat="44.25311" lon="3.16439">
        <ele>883.11</ele>
        <time>2025-09-22T07:34:29Z</time>
      </trkpt>
      <trkpt lat="44.2531" lon="3.16435">
        <ele>884.07</ele>
        <time>2025-09-22T07:34:11Z</time>
      </trkpt>
      <trkpt lat="44.25311" lon="3.16438">
        <ele>885.03</ele>
        <time>2025-09-22T07:33:43Z</time>
      </trkpt>
      <trkpt lat="44.25322" lon="3.16433">
        <ele>885.03</ele>
        <time>2025-09-22T07:33:29Z</time>
      </trkpt>
      <trkpt lat="44.25353" lon="3.16422">
        <ele>884.07</ele>
        <time>2025-09-22T07:33:05Z</time>
      </trkpt>
      <trkpt lat="44.25376" lon="3.16413">
        <ele>882.15</ele>
        <time>2025-09-22T07:32:46Z</time>
      </trkpt>
      <trkpt lat="44.25401" lon="3.16405">
        <ele>879.74</ele>
        <time>2025-09-22T07:32:27Z</time>
      </trkpt>
      <trkpt lat="44.25425" lon="3.16395">
        <ele>879.26</ele>
        <time>2025-09-22T07:32:08Z</time>
      </trkpt>
      <trkpt lat="44.25449" lon="3.16387">
        <ele>879.26</ele>
        <time>2025-09-22T07:31:49Z</time>
      </trkpt>
      <trkpt lat="44.25475" lon="3.16379">
        <ele>879.26</ele>
        <time>2025-09-22T07:31:28Z</time>
      </trkpt>
      <trkpt lat="44.25492" lon="3.16372">
        <ele>879.26</ele>
        <time>2025-09-22T07:31:14Z</time>
      </trkpt>
      <trkpt lat="44.25514" lon="3.16365">
        <ele>878.78</ele>
        <time>2025-09-22T07:30:57Z</time>
      </trkpt>
      <trkpt lat="44.25529" lon="3.16362">
        <ele>878.78</ele>
        <time>2025-09-22T07:30:44Z</time>
      </trkpt>
      <trkpt lat="44.25532" lon="3.16361">
        <ele>879.26</ele>
        <time>2025-09-22T07:30:41Z</time>
      </trkpt>
      <trkpt lat="44.25534" lon="3.16359">
        <ele>879.74</ele>
        <time>2025-09-22T07:30:39Z</time>
      </trkpt>
      <trkpt lat="44.2554" lon="3.16355">
        <ele>879.74</ele>
        <time>2025-09-22T07:30:33Z</time>
      </trkpt>
      <trkpt lat="44.25547" lon="3.16352">
        <ele>879.74</ele>
        <time>2025-09-22T07:30:26Z</time>
      </trkpt>
      <trkpt lat="44.25568" lon="3.16338">
        <ele>879.74</ele>
        <time>2025-09-22T07:30:07Z</time>
      </trkpt>
      <trkpt lat="44.25583" lon="3.1632">
        <ele>879.74</ele>
        <time>2025-09-22T07:29:50Z</time>
      </trkpt>
      <trkpt lat="44.25596" lon="3.16292">
        <ele>879.74</ele>
        <time>2025-09-22T07:29:30Z</time>
      </trkpt>
      <trkpt lat="44.25604" lon="3.16271">
        <ele>878.78</ele>
        <time>2025-09-22T07:29:15Z</time>
      </trkpt>
      <trkpt lat="44.25613" lon="3.1625">
        <ele>877.34</ele>
        <time>2025-09-22T07:28:58Z</time>
      </trkpt>
      <trkpt lat="44.25627" lon="3.16221">
        <ele>877.82</ele>
        <time>2025-09-22T07:28:38Z</time>
      </trkpt>
      <trkpt lat="44.25641" lon="3.16192">
        <ele>877.34</ele>
        <time>2025-09-22T07:28:18Z</time>
      </trkpt>
      <trkpt lat="44.25657" lon="3.16165">
        <ele>876.38</ele>
        <time>2025-09-22T07:27:58Z</time>
      </trkpt>
      <trkpt lat="44.25669" lon="3.16141">
        <ele>874.46</ele>
        <time>2025-09-22T07:27:41Z</time>
      </trkpt>
      <trkpt lat="44.25679" lon="3.16115">
        <ele>873.01</ele>
        <time>2025-09-22T07:27:22Z</time>
      </trkpt>
      <trkpt lat="44.25689" lon="3.16083">
        <ele>873.5</ele>
        <time>2025-09-22T07:27:03Z</time>
      </trkpt>
      <trkpt lat="44.25704" lon="3.16056">
        <ele>870.61</ele>
        <time>2025-09-22T07:26:42Z</time>
      </trkpt>
      <trkpt lat="44.25725" lon="3.16033">
        <ele>870.13</ele>
        <time>2025-09-22T07:26:19Z</time>
      </trkpt>
      <trkpt lat="44.25746" lon="3.16015">
        <ele>869.65</ele>
        <time>2025-09-22T07:25:58Z</time>
      </trkpt>
      <trkpt lat="44.25763" lon="3.16008">
        <ele>868.21</ele>
        <time>2025-09-22T07:25:42Z</time>
      </trkpt>
      <trkpt lat="44.25784" lon="3.16001">
        <ele>866.77</ele>
        <time>2025-09-22T07:25:23Z</time>
      </trkpt>
      <trkpt lat="44.2581" lon="3.15998">
        <ele>866.29</ele>
        <time>2025-09-22T07:25:02Z</time>
      </trkpt>
      <trkpt lat="44.25837" lon="3.16001">
        <ele>866.77</ele>
        <time>2025-09-22T07:24:42Z</time>
      </trkpt>
      <trkpt lat="44.25864" lon="3.16">
        <ele>867.25</ele>
        <time>2025-09-22T07:24:22Z</time>
      </trkpt>
      <trkpt lat="44.25886" lon="3.15999">
        <ele>866.77</ele>
        <time>2025-09-22T07:24:04Z</time>
      </trkpt>
      <trkpt lat="44.25902" lon="3.15995">
        <ele>866.29</ele>
        <time>2025-09-22T07:23:50Z</time>
      </trkpt>
      <trkpt lat="44.2593" lon="3.15989">
        <ele>866.29</ele>
        <time>2025-09-22T07:23:29Z</time>
      </trkpt>
      <trkpt lat="44.25957" lon="3.15981">
        <ele>866.77</ele>
        <time>2025-09-22T07:23:07Z</time>
      </trkpt>
      <trkpt lat="44.25968" lon="3.15979">
        <ele>866.29</ele>
        <time>2025-09-22T07:22:48Z</time>
      </trkpt>
      <trkpt lat="44.2597" lon="3.15979">
        <ele>865.32</ele>
        <time>2025-09-22T07:22:33Z</time>
        <extensions>
          <visugpx:TrkExtension xmlns:visugpx="https://www.visugpx.com/editgpx/">
            <visugpx:node>1</visugpx:node>
            </visugpx:TrkExtension>
        </extensions>
      </trkpt>
      <trkpt lat="44.2606" lon="3.15837">
        <ele>864.84</ele>
        <time>2025-09-22T16:28:58Z</time>
      </trkpt>
      <trkpt lat="44.26061" lon="3.15838">
        <ele>864.36</ele>
        <time>2025-09-22T16:28:40Z</time>
      </trkpt>
      <trkpt lat="44.26064" lon="3.15838">
        <ele>862.92</ele>
        <time>2025-09-22T16:28:25Z</time>
      </trkpt>
      <trkpt lat="44.26063" lon="3.15839">
        <ele>863.4</ele>
        <time>2025-09-22T16:28:07Z</time>
      </trkpt>
      <trkpt lat="44.26063" lon="3.1584">
        <ele>862.92</ele>
        <time>2025-09-22T16:27:47Z</time>
      </trkpt>
      <trkpt lat="44.26062" lon="3.15841">
        <ele>862.92</ele>
        <time>2025-09-22T16:27:31Z</time>
      </trkpt>
      <trkpt lat="44.26062" lon="3.15841">
        <ele>861</ele>
        <time>2025-09-22T16:27:07Z</time>
      </trkpt>
      <trkpt lat="44.26062" lon="3.15839">
        <ele>861</ele>
        <time>2025-09-22T16:26:47Z</time>
      </trkpt>
      <trkpt lat="44.26062" lon="3.15849">
        <ele>860.52</ele>
        <time>2025-09-22T16:26:30Z</time>
      </trkpt>
      <trkpt lat="44.26061" lon="3.15851">
        <ele>860.04</ele>
        <time>2025-09-22T16:26:16Z</time>
      </trkpt>
      <trkpt lat="44.26063" lon="3.15852">
        <ele>859.08</ele>
        <time>2025-09-22T16:26:02Z</time>
      </trkpt>
      <trkpt lat="44.26058" lon="3.15857">
        <ele>857.15</ele>
        <time>2025-09-22T16:25:49Z</time>
      </trkpt>
      <trkpt lat="44.2606" lon="3.15859">
        <ele>856.67</ele>
        <time>2025-09-22T16:25:32Z</time>
      </trkpt>
      <trkpt lat="44.26057" lon="3.15868">
        <ele>858.59</ele>
        <time>2025-09-22T16:25:17Z</time>
      </trkpt>
      <trkpt lat="44.26056" lon="3.15882">
        <ele>860.04</ele>
        <time>2025-09-22T16:25:08Z</time>
      </trkpt>
      <trkpt lat="44.26051" lon="3.15897">
        <ele>861</ele>
        <time>2025-09-22T16:24:59Z</time>
      </trkpt>
      <trkpt lat="44.26041" lon="3.15925">
        <ele>863.4</ele>
        <time>2025-09-22T16:24:43Z</time>
      </trkpt>
      <trkpt lat="44.2604" lon="3.15959">
        <ele>865.8</ele>
        <time>2025-09-22T16:24:26Z</time>
      </trkpt>
      <trkpt lat="44.2606" lon="3.15966">
        <ele>866.29</ele>
        <time>2025-09-22T16:24:10Z</time>
      </trkpt>
      <trkpt lat="44.26083" lon="3.15965">
        <ele>867.25</ele>
        <time>2025-09-22T16:23:52Z</time>
      </trkpt>
      <trkpt lat="44.26101" lon="3.15964">
        <ele>868.21</ele>
        <time>2025-09-22T16:23:37Z</time>
      </trkpt>
      <trkpt lat="44.26115" lon="3.15964">
        <ele>868.69</ele>
        <time>2025-09-22T16:23:22Z</time>
      </trkpt>
      <trkpt lat="44.26138" lon="3.15976">
        <ele>869.65</ele>
        <time>2025-09-22T16:23:05Z</time>
      </trkpt>
      <trkpt lat="44.26159" lon="3.15991">
        <ele>870.61</ele>
        <time>2025-09-22T16:22:47Z</time>
      </trkpt>
      <trkpt lat="44.26166" lon="3.15996">
        <ele>870.61</ele>
        <time>2025-09-22T16:22:25Z</time>
      </trkpt>
      <trkpt lat="44.26172" lon="3.15998">
        <ele>870.61</ele>
        <time>2025-09-22T16:22:12Z</time>
      </trkpt>
      <trkpt lat="44.26193" lon="3.16013">
        <ele>871.57</ele>
        <time>2025-09-22T16:21:55Z</time>
      </trkpt>
      <trkpt lat="44.26214" lon="3.16029">
        <ele>872.53</ele>
        <time>2025-09-22T16:21:39Z</time>
      </trkpt>
      <trkpt lat="44.26231" lon="3.16044">
        <ele>873.98</ele>
        <time>2025-09-22T16:21:24Z</time>
      </trkpt>
      <trkpt lat="44.26253" lon="3.1605">
        <ele>874.94</ele>
        <time>2025-09-22T16:21:08Z</time>
      </trkpt>
      <trkpt lat="44.26271" lon="3.16051">
        <ele>875.9</ele>
        <time>2025-09-22T16:20:54Z</time>
      </trkpt>
      <trkpt lat="44.2628" lon="3.16052">
        <ele>876.38</ele>
        <time>2025-09-22T16:20:43Z</time>
      </trkpt>
      <trkpt lat="44.26302" lon="3.16049">
        <ele>877.34</ele>
        <time>2025-09-22T16:20:27Z</time>
      </trkpt>
      <trkpt lat="44.26323" lon="3.16047">
        <ele>877.34</ele>
        <time>2025-09-22T16:20:12Z</time>
      </trkpt>
      <trkpt lat="44.26345" lon="3.16044">
        <ele>876.86</ele>
        <time>2025-09-22T16:19:56Z</time>
      </trkpt>
      <trkpt lat="44.26365" lon="3.1604">
        <ele>877.34</ele>
        <time>2025-09-22T16:19:40Z</time>
      </trkpt>
      <trkpt lat="44.26366" lon="3.1604">
        <ele>876.86</ele>
        <time>2025-09-22T16:19:39Z</time>
      </trkpt>
      <trkpt lat="44.26368" lon="3.16039">
        <ele>876.86</ele>
        <time>2025-09-22T16:19:38Z</time>
      </trkpt>
      <trkpt lat="44.26369" lon="3.16039">
        <ele>876.86</ele>
        <time>2025-09-22T16:19:37Z</time>
      </trkpt>
      <trkpt lat="44.2637" lon="3.16039">
        <ele>876.86</ele>
        <time>2025-09-22T16:19:36Z</time>
      </trkpt>
      <trkpt lat="44.26371" lon="3.1604">
        <ele>876.86</ele>
        <time>2025-09-22T16:19:35Z</time>
      </trkpt>
      <trkpt lat="44.26372" lon="3.1604">
        <ele>876.86</ele>
        <time>2025-09-22T16:19:34Z</time>
      </trkpt>
      <trkpt lat="44.26392" lon="3.16036">
        <ele>875.42</ele>
        <time>2025-09-22T16:19:18Z</time>
      </trkpt>
      <trkpt lat="44.26418" lon="3.16031">
        <ele>873.5</ele>
        <time>2025-09-22T16:18:59Z</time>
      </trkpt>
      <trkpt lat="44.26438" lon="3.16027">
        <ele>872.05</ele>
        <time>2025-09-22T16:18:42Z</time>
      </trkpt>
      <trkpt lat="44.26441" lon="3.16022">
        <ele>872.05</ele>
        <time>2025-09-22T16:18:21Z</time>
      </trkpt>
      <trkpt lat="44.2644" lon="3.1602">
        <ele>869.65</ele>
        <time>2025-09-22T16:17:52Z</time>
      </trkpt>
      <trkpt lat="44.26446" lon="3.16017">
        <ele>868.21</ele>
        <time>2025-09-22T16:17:36Z</time>
      </trkpt>
      <trkpt lat="44.26447" lon="3.16017">
        <ele>868.21</ele>
        <time>2025-09-22T16:17:35Z</time>
      </trkpt>
      <trkpt lat="44.26449" lon="3.16014">
        <ele>868.21</ele>
        <time>2025-09-22T16:17:33Z</time>
      </trkpt>
      <trkpt lat="44.2645" lon="3.16013">
        <ele>868.69</ele>
        <time>2025-09-22T16:17:32Z</time>
      </trkpt>
      <trkpt lat="44.26449" lon="3.16011">
        <ele>868.69</ele>
        <time>2025-09-22T16:17:31Z</time>
      </trkpt>
      <trkpt lat="44.26437" lon="3.15993">
        <ele>871.57</ele>
        <time>2025-09-22T16:17:19Z</time>
      </trkpt>
      <trkpt lat="44.26421" lon="3.15973">
        <ele>873.98</ele>
        <time>2025-09-22T16:17:03Z</time>
      </trkpt>
      <trkpt lat="44.26404" lon="3.15954">
        <ele>874.94</ele>
        <time>2025-09-22T16:16:48Z</time>
      </trkpt>
      <trkpt lat="44.26385" lon="3.15931">
        <ele>879.26</ele>
        <time>2025-09-22T16:16:31Z</time>
      </trkpt>
      <trkpt lat="44.2637" lon="3.15902">
        <ele>880.22</ele>
        <time>2025-09-22T16:16:14Z</time>
      </trkpt>
      <trkpt lat="44.26359" lon="3.15868">
        <ele>880.71</ele>
        <time>2025-09-22T16:15:57Z</time>
      </trkpt>
      <trkpt lat="44.26353" lon="3.15835">
        <ele>882.63</ele>
        <time>2025-09-22T16:15:42Z</time>
      </trkpt>
      <trkpt lat="44.26351" lon="3.15824">
        <ele>884.07</ele>
        <time>2025-09-22T16:15:37Z</time>
      </trkpt>
      <trkpt lat="44.26345" lon="3.15795">
        <ele>885.99</ele>
        <time>2025-09-22T16:15:18Z</time>
      </trkpt>
      <trkpt lat="44.26355" lon="3.15765">
        <ele>887.43</ele>
        <time>2025-09-22T16:15:01Z</time>
      </trkpt>
      <trkpt lat="44.26371" lon="3.15742">
        <ele>887.91</ele>
        <time>2025-09-22T16:14:46Z</time>
      </trkpt>
      <trkpt lat="44.26388" lon="3.15726">
        <ele>889.84</ele>
        <time>2025-09-22T16:14:33Z</time>
      </trkpt>
      <trkpt lat="44.26406" lon="3.15717">
        <ele>891.28</ele>
        <time>2025-09-22T16:14:18Z</time>
      </trkpt>
      <trkpt lat="44.26425" lon="3.15713">
        <ele>893.68</ele>
        <time>2025-09-22T16:14:05Z</time>
      </trkpt>
      <trkpt lat="44.26449" lon="3.15707">
        <ele>895.12</ele>
        <time>2025-09-22T16:13:50Z</time>
      </trkpt>
      <trkpt lat="44.2647" lon="3.15694">
        <ele>896.09</ele>
        <time>2025-09-22T16:13:35Z</time>
      </trkpt>
      <trkpt lat="44.26491" lon="3.15678">
        <ele>898.49</ele>
        <time>2025-09-22T16:13:20Z</time>
      </trkpt>
      <trkpt lat="44.26513" lon="3.1566">
        <ele>899.93</ele>
        <time>2025-09-22T16:13:03Z</time>
      </trkpt>
      <trkpt lat="44.26532" lon="3.15647">
        <ele>901.37</ele>
        <time>2025-09-22T16:12:47Z</time>
      </trkpt>
      <trkpt lat="44.26558" lon="3.15632">
        <ele>902.33</ele>
        <time>2025-09-22T16:12:30Z</time>
      </trkpt>
      <trkpt lat="44.26581" lon="3.15625">
        <ele>900.89</ele>
        <time>2025-09-22T16:12:14Z</time>
      </trkpt>
      <trkpt lat="44.26611" lon="3.15617">
        <ele>900.41</ele>
        <time>2025-09-22T16:11:55Z</time>
      </trkpt>
      <trkpt lat="44.26626" lon="3.15614">
        <ele>900.89</ele>
        <time>2025-09-22T16:11:42Z</time>
      </trkpt>
      <trkpt lat="44.26631" lon="3.15613">
        <ele>901.85</ele>
        <time>2025-09-22T16:11:38Z</time>
      </trkpt>
      <trkpt lat="44.26654" lon="3.15599">
        <ele>901.37</ele>
        <time>2025-09-22T16:11:20Z</time>
      </trkpt>
      <trkpt lat="44.26678" lon="3.15585">
        <ele>900.41</ele>
        <time>2025-09-22T16:11:02Z</time>
      </trkpt>
      <trkpt lat="44.26703" lon="3.15581">
        <ele>897.53</ele>
        <time>2025-09-22T16:10:44Z</time>
      </trkpt>
      <trkpt lat="44.26732" lon="3.15574">
        <ele>895.61</ele>
        <time>2025-09-22T16:10:26Z</time>
      </trkpt>
      <trkpt lat="44.26758" lon="3.15566">
        <ele>896.09</ele>
        <time>2025-09-22T16:10:05Z</time>
      </trkpt>
      <trkpt lat="44.26784" lon="3.15558">
        <ele>895.12</ele>
        <time>2025-09-22T16:09:47Z</time>
      </trkpt>
      <trkpt lat="44.2681" lon="3.15547">
        <ele>893.2</ele>
        <time>2025-09-22T16:09:29Z</time>
      </trkpt>
      <trkpt lat="44.26834" lon="3.15538">
        <ele>893.2</ele>
        <time>2025-09-22T16:09:12Z</time>
      </trkpt>
      <trkpt lat="44.26858" lon="3.15533">
        <ele>894.64</ele>
        <time>2025-09-22T16:08:56Z</time>
      </trkpt>
      <trkpt lat="44.26876" lon="3.1553">
        <ele>895.61</ele>
        <time>2025-09-22T16:08:43Z</time>
      </trkpt>
      <trkpt lat="44.269" lon="3.15531">
        <ele>897.53</ele>
        <time>2025-09-22T16:08:26Z</time>
      </trkpt>
      <trkpt lat="44.26926" lon="3.15528">
        <ele>899.45</ele>
        <time>2025-09-22T16:08:08Z</time>
      </trkpt>
      <trkpt lat="44.26952" lon="3.15521">
        <ele>899.93</ele>
        <time>2025-09-22T16:07:50Z</time>
      </trkpt>
      <trkpt lat="44.26979" lon="3.15518">
        <ele>898.01</ele>
        <time>2025-09-22T16:07:31Z</time>
      </trkpt>
      <trkpt lat="44.27007" lon="3.15513">
        <ele>898.01</ele>
        <time>2025-09-22T16:07:11Z</time>
      </trkpt>
      <trkpt lat="44.27033" lon="3.15505">
        <ele>898.01</ele>
        <time>2025-09-22T16:06:52Z</time>
      </trkpt>
      <trkpt lat="44.27055" lon="3.15497">
        <ele>898.49</ele>
        <time>2025-09-22T16:06:35Z</time>
      </trkpt>
      <trkpt lat="44.27079" lon="3.1549">
        <ele>899.45</ele>
        <time>2025-09-22T16:06:18Z</time>
      </trkpt>
      <trkpt lat="44.27104" lon="3.15492">
        <ele>899.45</ele>
        <time>2025-09-22T16:06:00Z</time>
      </trkpt>
      <trkpt lat="44.27129" lon="3.15498">
        <ele>899.45</ele>
        <time>2025-09-22T16:05:42Z</time>
      </trkpt>
      <trkpt lat="44.27153" lon="3.15502">
        <ele>898.49</ele>
        <time>2025-09-22T16:05:24Z</time>
      </trkpt>
      <trkpt lat="44.27179" lon="3.15503">
        <ele>898.49</ele>
        <time>2025-09-22T16:05:04Z</time>
      </trkpt>
      <trkpt lat="44.27202" lon="3.15503">
        <ele>898.49</ele>
        <time>2025-09-22T16:04:46Z</time>
      </trkpt>
      <trkpt lat="44.27221" lon="3.15502">
        <ele>897.05</ele>
        <time>2025-09-22T16:04:30Z</time>
      </trkpt>
      <trkpt lat="44.27224" lon="3.15502">
        <ele>896.57</ele>
        <time>2025-09-22T16:04:18Z</time>
      </trkpt>
      <trkpt lat="44.27229" lon="3.15501">
        <ele>896.09</ele>
        <time>2025-09-22T16:04:05Z</time>
      </trkpt>
      <trkpt lat="44.27256" lon="3.1549">
        <ele>895.12</ele>
        <time>2025-09-22T16:03:46Z</time>
      </trkpt>
      <trkpt lat="44.27285" lon="3.1548">
        <ele>894.16</ele>
        <time>2025-09-22T16:03:25Z</time>
      </trkpt>
      <trkpt lat="44.27304" lon="3.15471">
        <ele>892.72</ele>
        <time>2025-09-22T16:03:12Z</time>
      </trkpt>
      <trkpt lat="44.27321" lon="3.1545">
        <ele>889.36</ele>
        <time>2025-09-22T16:02:57Z</time>
      </trkpt>
      <trkpt lat="44.27338" lon="3.15424">
        <ele>889.36</ele>
        <time>2025-09-22T16:02:40Z</time>
      </trkpt>
      <trkpt lat="44.27357" lon="3.15399">
        <ele>891.28</ele>
        <time>2025-09-22T16:02:22Z</time>
      </trkpt>
      <trkpt lat="44.27377" lon="3.15377">
        <ele>894.64</ele>
        <time>2025-09-22T16:02:06Z</time>
      </trkpt>
      <trkpt lat="44.274" lon="3.1536">
        <ele>894.64</ele>
        <time>2025-09-22T16:01:51Z</time>
      </trkpt>
      <trkpt lat="44.2743" lon="3.15341">
        <ele>897.05</ele>
        <time>2025-09-22T16:01:31Z</time>
      </trkpt>
      <trkpt lat="44.27452" lon="3.15317">
        <ele>895.61</ele>
        <time>2025-09-22T16:01:11Z</time>
      </trkpt>
      <trkpt lat="44.27464" lon="3.15293">
        <ele>893.68</ele>
        <time>2025-09-22T16:00:55Z</time>
      </trkpt>
      <trkpt lat="44.27479" lon="3.15258">
        <ele>892.24</ele>
        <time>2025-09-22T16:00:39Z</time>
      </trkpt>
      <trkpt lat="44.27488" lon="3.15232">
        <ele>894.64</ele>
        <time>2025-09-22T16:00:25Z</time>
      </trkpt>
      <trkpt lat="44.27498" lon="3.15196">
        <ele>897.05</ele>
        <time>2025-09-22T16:00:09Z</time>
      </trkpt>
      <trkpt lat="44.27509" lon="3.15162">
        <ele>896.57</ele>
        <time>2025-09-22T15:59:53Z</time>
      </trkpt>
      <trkpt lat="44.27521" lon="3.15126">
        <ele>896.57</ele>
        <time>2025-09-22T15:59:36Z</time>
      </trkpt>
      <trkpt lat="44.2753" lon="3.1509">
        <ele>897.05</ele>
        <time>2025-09-22T15:59:17Z</time>
      </trkpt>
      <trkpt lat="44.27535" lon="3.15063">
        <ele>896.57</ele>
        <time>2025-09-22T15:59:04Z</time>
      </trkpt>
      <trkpt lat="44.27543" lon="3.15027">
        <ele>896.09</ele>
        <time>2025-09-22T15:58:48Z</time>
      </trkpt>
      <trkpt lat="44.27552" lon="3.14988">
        <ele>895.12</ele>
        <time>2025-09-22T15:58:28Z</time>
      </trkpt>
      <trkpt lat="44.27563" lon="3.14956">
        <ele>894.64</ele>
        <time>2025-09-22T15:58:10Z</time>
      </trkpt>
      <trkpt lat="44.27576" lon="3.1492">
        <ele>894.64</ele>
        <time>2025-09-22T15:57:53Z</time>
      </trkpt>
      <trkpt lat="44.27594" lon="3.14886">
        <ele>892.24</ele>
        <time>2025-09-22T15:57:33Z</time>
      </trkpt>
      <trkpt lat="44.27609" lon="3.14856">
        <ele>885.99</ele>
        <time>2025-09-22T15:57:16Z</time>
      </trkpt>
      <trkpt lat="44.27625" lon="3.14826">
        <ele>883.59</ele>
        <time>2025-09-22T15:56:57Z</time>
      </trkpt>
      <trkpt lat="44.2764" lon="3.14794">
        <ele>885.99</ele>
        <time>2025-09-22T15:56:39Z</time>
      </trkpt>
      <trkpt lat="44.2765" lon="3.14764">
        <ele>887.43</ele>
        <time>2025-09-22T15:56:23Z</time>
      </trkpt>
      <trkpt lat="44.27658" lon="3.14733">
        <ele>886.47</ele>
        <time>2025-09-22T15:56:08Z</time>
      </trkpt>
      <trkpt lat="44.27663" lon="3.14707">
        <ele>885.99</ele>
        <time>2025-09-22T15:55:53Z</time>
      </trkpt>
      <trkpt lat="44.27672" lon="3.14672">
        <ele>887.43</ele>
        <time>2025-09-22T15:55:35Z</time>
      </trkpt>
      <trkpt lat="44.27679" lon="3.14645">
        <ele>887.91</ele>
        <time>2025-09-22T15:55:19Z</time>
      </trkpt>
      <trkpt lat="44.27685" lon="3.14617">
        <ele>886.47</ele>
        <time>2025-09-22T15:55:04Z</time>
      </trkpt>
      <trkpt lat="44.27686" lon="3.14615">
        <ele>886.47</ele>
        <time>2025-09-22T15:55:03Z</time>
      </trkpt>
      <trkpt lat="44.27692" lon="3.14608">
        <ele>885.51</ele>
        <time>2025-09-22T15:54:56Z</time>
      </trkpt>
      <trkpt lat="44.27708" lon="3.14589">
        <ele>883.11</ele>
        <time>2025-09-22T15:54:38Z</time>
      </trkpt>
      <trkpt lat="44.2773" lon="3.14566">
        <ele>881.67</ele>
        <time>2025-09-22T15:54:18Z</time>
      </trkpt>
      <trkpt lat="44.27748" lon="3.14545">
        <ele>881.19</ele>
        <time>2025-09-22T15:54:01Z</time>
      </trkpt>
      <trkpt lat="44.27769" lon="3.14533">
        <ele>879.74</ele>
        <time>2025-09-22T15:53:43Z</time>
      </trkpt>
      <trkpt lat="44.27796" lon="3.14524">
        <ele>876.38</ele>
        <time>2025-09-22T15:53:22Z</time>
      </trkpt>
      <trkpt lat="44.27818" lon="3.14513">
        <ele>873.01</ele>
        <time>2025-09-22T15:53:03Z</time>
      </trkpt>
      <trkpt lat="44.27838" lon="3.14503">
        <ele>871.09</ele>
        <time>2025-09-22T15:52:45Z</time>
      </trkpt>
      <trkpt lat="44.27859" lon="3.14491">
        <ele>866.77</ele>
        <time>2025-09-22T15:52:27Z</time>
      </trkpt>
      <trkpt lat="44.2786" lon="3.14491">
        <ele>866.77</ele>
        <time>2025-09-22T15:52:26Z</time>
      </trkpt>
      <trkpt lat="44.27862" lon="3.14491">
        <ele>866.29</ele>
        <time>2025-09-22T15:52:25Z</time>
      </trkpt>
      <trkpt lat="44.27878" lon="3.1448">
        <ele>863.88</ele>
        <time>2025-09-22T15:52:09Z</time>
      </trkpt>
      <trkpt lat="44.27897" lon="3.14468">
        <ele>862.92</ele>
        <time>2025-09-22T15:51:52Z</time>
      </trkpt>
      <trkpt lat="44.27918" lon="3.14454">
        <ele>862.92</ele>
        <time>2025-09-22T15:51:33Z</time>
      </trkpt>
      <trkpt lat="44.27938" lon="3.14444">
        <ele>864.36</ele>
        <time>2025-09-22T15:51:17Z</time>
      </trkpt>
      <trkpt lat="44.27965" lon="3.14439">
        <ele>865.8</ele>
        <time>2025-09-22T15:50:57Z</time>
      </trkpt>
      <trkpt lat="44.27989" lon="3.14431">
        <ele>867.25</ele>
        <time>2025-09-22T15:50:38Z</time>
      </trkpt>
      <trkpt lat="44.28011" lon="3.14429">
        <ele>867.25</ele>
        <time>2025-09-22T15:50:22Z</time>
      </trkpt>
      <trkpt lat="44.28032" lon="3.14432">
        <ele>868.21</ele>
        <time>2025-09-22T15:50:05Z</time>
      </trkpt>
      <trkpt lat="44.28054" lon="3.14432">
        <ele>869.17</ele>
        <time>2025-09-22T15:49:50Z</time>
      </trkpt>
      <trkpt lat="44.28076" lon="3.1443">
        <ele>868.69</ele>
        <time>2025-09-22T15:49:36Z</time>
      </trkpt>
      <trkpt lat="44.28097" lon="3.14418">
        <ele>869.65</ele>
        <time>2025-09-22T15:49:23Z</time>
      </trkpt>
      <trkpt lat="44.28126" lon="3.14402">
        <ele>870.13</ele>
        <time>2025-09-22T15:49:04Z</time>
      </trkpt>
      <trkpt lat="44.28153" lon="3.14392">
        <ele>870.61</ele>
        <time>2025-09-22T15:48:48Z</time>
      </trkpt>
      <trkpt lat="44.28176" lon="3.14378">
        <ele>871.09</ele>
        <time>2025-09-22T15:48:33Z</time>
      </trkpt>
      <trkpt lat="44.28198" lon="3.14366">
        <ele>873.01</ele>
        <time>2025-09-22T15:48:19Z</time>
      </trkpt>
      <trkpt lat="44.28219" lon="3.1435">
        <ele>873.5</ele>
        <time>2025-09-22T15:48:02Z</time>
      </trkpt>
      <trkpt lat="44.28239" lon="3.14338">
        <ele>874.46</ele>
        <time>2025-09-22T15:47:46Z</time>
      </trkpt>
      <trkpt lat="44.2824" lon="3.14337">
        <ele>874.46</ele>
        <time>2025-09-22T15:47:45Z</time>
      </trkpt>
      <trkpt lat="44.28241" lon="3.14337">
        <ele>874.46</ele>
        <time>2025-09-22T15:47:44Z</time>
      </trkpt>
      <trkpt lat="44.28242" lon="3.14336">
        <ele>874.46</ele>
        <time>2025-09-22T15:47:43Z</time>
      </trkpt>
      <trkpt lat="44.28243" lon="3.14335">
        <ele>874.46</ele>
        <time>2025-09-22T15:47:42Z</time>
      </trkpt>
      <trkpt lat="44.28244" lon="3.14335">
        <ele>874.46</ele>
        <time>2025-09-22T15:47:41Z</time>
      </trkpt>
      <trkpt lat="44.28264" lon="3.14336">
        <ele>874.46</ele>
        <time>2025-09-22T15:47:25Z</time>
      </trkpt>
      <trkpt lat="44.28265" lon="3.14336">
        <ele>873.98</ele>
        <time>2025-09-22T15:47:24Z</time>
      </trkpt>
      <trkpt lat="44.28267" lon="3.14338">
        <ele>873.98</ele>
        <time>2025-09-22T15:47:22Z</time>
      </trkpt>
      <trkpt lat="44.28268" lon="3.1434">
        <ele>873.98</ele>
        <time>2025-09-22T15:47:21Z</time>
      </trkpt>
      <trkpt lat="44.2827" lon="3.14344">
        <ele>873.98</ele>
        <time>2025-09-22T15:47:19Z</time>
      </trkpt>
      <trkpt lat="44.28268" lon="3.1437">
        <ele>875.42</ele>
        <time>2025-09-22T15:47:04Z</time>
      </trkpt>
      <trkpt lat="44.28268" lon="3.14372">
        <ele>875.42</ele>
        <time>2025-09-22T15:47:03Z</time>
      </trkpt>
      <trkpt lat="44.28268" lon="3.14374">
        <ele>875.42</ele>
        <time>2025-09-22T15:47:02Z</time>
      </trkpt>
      <trkpt lat="44.28268" lon="3.14376">
        <ele>875.42</ele>
        <time>2025-09-22T15:47:01Z</time>
      </trkpt>
      <trkpt lat="44.28268" lon="3.14379">
        <ele>875.42</ele>
        <time>2025-09-22T15:47:00Z</time>
      </trkpt>
      <trkpt lat="44.28268" lon="3.14381">
        <ele>875.42</ele>
        <time>2025-09-22T15:46:59Z</time>
      </trkpt>
      <trkpt lat="44.28267" lon="3.1439">
        <ele>874.94</ele>
        <time>2025-09-22T15:46:54Z</time>
      </trkpt>
      <trkpt lat="44.28266" lon="3.14393">
        <ele>874.46</ele>
        <time>2025-09-22T15:46:53Z</time>
      </trkpt>
      <trkpt lat="44.28267" lon="3.14411">
        <ele>874.46</ele>
        <time>2025-09-22T15:46:43Z</time>
      </trkpt>
      <trkpt lat="44.28267" lon="3.14444">
        <ele>876.86</ele>
        <time>2025-09-22T15:46:27Z</time>
      </trkpt>
      <trkpt lat="44.28268" lon="3.14474">
        <ele>880.22</ele>
        <time>2025-09-22T15:46:11Z</time>
      </trkpt>
      <trkpt lat="44.28271" lon="3.14501">
        <ele>884.07</ele>
        <time>2025-09-22T15:45:56Z</time>
      </trkpt>
      <trkpt lat="44.28281" lon="3.14518">
        <ele>886.47</ele>
        <time>2025-09-22T15:45:43Z</time>
      </trkpt>
      <trkpt lat="44.28282" lon="3.1452">
        <ele>886.95</ele>
        <time>2025-09-22T15:45:42Z</time>
      </trkpt>
      <trkpt lat="44.28287" lon="3.14532">
        <ele>886.47</ele>
        <time>2025-09-22T15:45:33Z</time>
      </trkpt>
      <trkpt lat="44.28302" lon="3.14554">
        <ele>888.4</ele>
        <time>2025-09-22T15:45:17Z</time>
      </trkpt>
      <trkpt lat="44.28314" lon="3.14572">
        <ele>890.32</ele>
        <time>2025-09-22T15:45:03Z</time>
      </trkpt>
      <trkpt lat="44.28328" lon="3.14586">
        <ele>892.72</ele>
        <time>2025-09-22T15:44:48Z</time>
      </trkpt>
      <trkpt lat="44.28343" lon="3.14605">
        <ele>893.2</ele>
        <time>2025-09-22T15:44:32Z</time>
      </trkpt>
      <trkpt lat="44.2836" lon="3.14627">
        <ele>894.64</ele>
        <time>2025-09-22T15:44:15Z</time>
      </trkpt>
      <trkpt lat="44.28378" lon="3.14646">
        <ele>894.16</ele>
        <time>2025-09-22T15:43:58Z</time>
      </trkpt>
      <trkpt lat="44.28394" lon="3.14664">
        <ele>896.09</ele>
        <time>2025-09-22T15:43:43Z</time>
      </trkpt>
      <trkpt lat="44.28411" lon="3.14685">
        <ele>899.93</ele>
        <time>2025-09-22T15:43:26Z</time>
      </trkpt>
      <trkpt lat="44.2843" lon="3.14705">
        <ele>902.82</ele>
        <time>2025-09-22T15:43:07Z</time>
      </trkpt>
      <trkpt lat="44.28452" lon="3.14723">
        <ele>903.78</ele>
        <time>2025-09-22T15:42:48Z</time>
      </trkpt>
      <trkpt lat="44.28476" lon="3.14741">
        <ele>903.78</ele>
        <time>2025-09-22T15:42:30Z</time>
      </trkpt>
      <trkpt lat="44.28477" lon="3.14743">
        <ele>903.3</ele>
        <time>2025-09-22T15:42:29Z</time>
      </trkpt>
      <trkpt lat="44.28478" lon="3.14744">
        <ele>903.3</ele>
        <time>2025-09-22T15:42:28Z</time>
      </trkpt>
      <trkpt lat="44.28492" lon="3.14776">
        <ele>907.62</ele>
        <time>2025-09-22T15:42:09Z</time>
      </trkpt>
      <trkpt lat="44.28504" lon="3.14805">
        <ele>911.95</ele>
        <time>2025-09-22T15:41:52Z</time>
      </trkpt>
      <trkpt lat="44.28505" lon="3.14807">
        <ele>911.95</ele>
        <time>2025-09-22T15:41:51Z</time>
      </trkpt>
      <trkpt lat="44.28505" lon="3.14808">
        <ele>912.43</ele>
        <time>2025-09-22T15:41:50Z</time>
      </trkpt>
      <trkpt lat="44.28508" lon="3.14837">
        <ele>915.79</ele>
        <time>2025-09-22T15:41:33Z</time>
      </trkpt>
      <trkpt lat="44.28513" lon="3.14877">
        <ele>916.75</ele>
        <time>2025-09-22T15:41:12Z</time>
      </trkpt>
      <trkpt lat="44.28517" lon="3.14913">
        <ele>916.75</ele>
        <time>2025-09-22T15:40:54Z</time>
      </trkpt>
      <trkpt lat="44.28529" lon="3.1495">
        <ele>919.16</ele>
        <time>2025-09-22T15:40:34Z</time>
      </trkpt>
      <trkpt lat="44.28544" lon="3.1498">
        <ele>921.56</ele>
        <time>2025-09-22T15:40:16Z</time>
      </trkpt>
      <trkpt lat="44.28557" lon="3.15005">
        <ele>922.52</ele>
        <time>2025-09-22T15:40:00Z</time>
      </trkpt>
      <trkpt lat="44.28567" lon="3.15027">
        <ele>923</ele>
        <time>2025-09-22T15:39:45Z</time>
      </trkpt>
      <trkpt lat="44.28562" lon="3.15057">
        <ele>923</ele>
        <time>2025-09-22T15:39:30Z</time>
      </trkpt>
      <trkpt lat="44.28562" lon="3.15059">
        <ele>923</ele>
        <time>2025-09-22T15:39:29Z</time>
      </trkpt>
      <trkpt lat="44.28561" lon="3.15061">
        <ele>923</ele>
        <time>2025-09-22T15:39:28Z</time>
      </trkpt>
      <trkpt lat="44.28561" lon="3.15063">
        <ele>923</ele>
        <time>2025-09-22T15:39:27Z</time>
      </trkpt>
      <trkpt lat="44.28561" lon="3.15065">
        <ele>923</ele>
        <time>2025-09-22T15:39:26Z</time>
      </trkpt>
      <trkpt lat="44.2856" lon="3.15067">
        <ele>923</ele>
        <time>2025-09-22T15:39:25Z</time>
      </trkpt>
      <trkpt lat="44.2856" lon="3.1509">
        <ele>922.52</ele>
        <time>2025-09-22T15:39:12Z</time>
      </trkpt>
      <trkpt lat="44.28556" lon="3.15119">
        <ele>918.68</ele>
        <time>2025-09-22T15:38:55Z</time>
      </trkpt>
      <trkpt lat="44.28552" lon="3.15146">
        <ele>915.79</ele>
        <time>2025-09-22T15:38:39Z</time>
      </trkpt>
      <trkpt lat="44.28552" lon="3.15148">
        <ele>915.79</ele>
        <time>2025-09-22T15:38:38Z</time>
      </trkpt>
      <trkpt lat="44.28552" lon="3.15154">
        <ele>914.83</ele>
        <time>2025-09-22T15:38:34Z</time>
      </trkpt>
      <trkpt lat="44.28546" lon="3.15187">
        <ele>910.99</ele>
        <time>2025-09-22T15:38:16Z</time>
      </trkpt>
      <trkpt lat="44.28546" lon="3.15189">
        <ele>910.51</ele>
        <time>2025-09-22T15:38:15Z</time>
      </trkpt>
      <trkpt lat="44.28546" lon="3.15191">
        <ele>910.03</ele>
        <time>2025-09-22T15:38:14Z</time>
      </trkpt>
      <trkpt lat="44.28545" lon="3.15193">
        <ele>910.03</ele>
        <time>2025-09-22T15:38:13Z</time>
      </trkpt>
      <trkpt lat="44.28545" lon="3.15195">
        <ele>909.54</ele>
        <time>2025-09-22T15:38:12Z</time>
      </trkpt>
      <trkpt lat="44.28546" lon="3.152">
        <ele>908.58</ele>
        <time>2025-09-22T15:38:10Z</time>
      </trkpt>
      <trkpt lat="44.28543" lon="3.15231">
        <ele>906.66</ele>
        <time>2025-09-22T15:37:51Z</time>
      </trkpt>
      <trkpt lat="44.28537" lon="3.1526">
        <ele>904.74</ele>
        <time>2025-09-22T15:37:33Z</time>
      </trkpt>
      <trkpt lat="44.28535" lon="3.15294">
        <ele>899.93</ele>
        <time>2025-09-22T15:37:13Z</time>
      </trkpt>
      <trkpt lat="44.28536" lon="3.15312">
        <ele>897.05</ele>
        <time>2025-09-22T15:37:01Z</time>
      </trkpt>
      <trkpt lat="44.28536" lon="3.15322">
        <ele>897.05</ele>
        <time>2025-09-22T15:36:50Z</time>
      </trkpt>
      <trkpt lat="44.28536" lon="3.15324">
        <ele>897.05</ele>
        <time>2025-09-22T15:36:49Z</time>
      </trkpt>
      <trkpt lat="44.28536" lon="3.15326">
        <ele>897.05</ele>
        <time>2025-09-22T15:36:48Z</time>
      </trkpt>
      <trkpt lat="44.28533" lon="3.1533">
        <ele>897.53</ele>
        <time>2025-09-22T15:36:43Z</time>
      </trkpt>
      <trkpt lat="44.28532" lon="3.15333">
        <ele>896.57</ele>
        <time>2025-09-22T15:36:40Z</time>
      </trkpt>
      <trkpt lat="44.28535" lon="3.15375">
        <ele>887.91</ele>
        <time>2025-09-22T15:36:25Z</time>
      </trkpt>
      <trkpt lat="44.28541" lon="3.15428">
        <ele>884.55</ele>
        <time>2025-09-22T15:36:13Z</time>
      </trkpt>
      <trkpt lat="44.28581" lon="3.15495">
        <ele>885.51</ele>
        <time>2025-09-22T15:36:00Z</time>
      </trkpt>
      <trkpt lat="44.28583" lon="3.155">
        <ele>885.51</ele>
        <time>2025-09-22T15:35:59Z</time>
      </trkpt>
      <trkpt lat="44.28599" lon="3.15566">
        <ele>885.99</ele>
        <time>2025-09-22T15:35:49Z</time>
      </trkpt>
      <trkpt lat="44.28605" lon="3.15589">
        <ele>885.99</ele>
        <time>2025-09-22T15:35:46Z</time>
      </trkpt>
      <trkpt lat="44.28655" lon="3.15693">
        <ele>886.95</ele>
        <time>2025-09-22T15:35:31Z</time>
      </trkpt>
      <trkpt lat="44.28688" lon="3.15749">
        <ele>887.91</ele>
        <time>2025-09-22T15:35:17Z</time>
      </trkpt>
      <trkpt lat="44.28734" lon="3.1579">
        <ele>886.95</ele>
        <time>2025-09-22T15:35:02Z</time>
      </trkpt>
      <trkpt lat="44.28772" lon="3.15817">
        <ele>885.99</ele>
        <time>2025-09-22T15:34:51Z</time>
      </trkpt>
      <trkpt lat="44.28806" lon="3.15844">
        <ele>888.4</ele>
        <time>2025-09-22T15:34:39Z</time>
      </trkpt>
      <trkpt lat="44.2885" lon="3.15878">
        <ele>891.28</ele>
        <time>2025-09-22T15:34:23Z</time>
      </trkpt>
      <trkpt lat="44.28888" lon="3.15889">
        <ele>890.8</ele>
        <time>2025-09-22T15:34:11Z</time>
      </trkpt>
      <trkpt lat="44.28922" lon="3.15912">
        <ele>889.36</ele>
        <time>2025-09-22T15:33:58Z</time>
      </trkpt>
      <trkpt lat="44.28959" lon="3.15962">
        <ele>884.55</ele>
        <time>2025-09-22T15:33:41Z</time>
      </trkpt>
      <trkpt lat="44.28994" lon="3.16012">
        <ele>878.78</ele>
        <time>2025-09-22T15:33:27Z</time>
      </trkpt>
      <trkpt lat="44.29022" lon="3.16054">
        <ele>876.86</ele>
        <time>2025-09-22T15:33:15Z</time>
      </trkpt>
      <trkpt lat="44.2905" lon="3.16101">
        <ele>875.42</ele>
        <time>2025-09-22T15:33:02Z</time>
      </trkpt>
      <trkpt lat="44.29079" lon="3.16147">
        <ele>873.01</ele>
        <time>2025-09-22T15:32:49Z</time>
      </trkpt>
      <trkpt lat="44.29108" lon="3.16193">
        <ele>873.5</ele>
        <time>2025-09-22T15:32:36Z</time>
      </trkpt>
      <trkpt lat="44.29128" lon="3.16243">
        <ele>875.42</ele>
        <time>2025-09-22T15:32:23Z</time>
      </trkpt>
      <trkpt lat="44.29142" lon="3.16289">
        <ele>876.38</ele>
        <time>2025-09-22T15:32:11Z</time>
      </trkpt>
      <trkpt lat="44.29157" lon="3.16327">
        <ele>877.82</ele>
        <time>2025-09-22T15:31:54Z</time>
      </trkpt>
      <trkpt lat="44.29168" lon="3.16362">
        <ele>877.82</ele>
        <time>2025-09-22T15:31:37Z</time>
      </trkpt>
      <trkpt lat="44.29178" lon="3.16394">
        <ele>877.34</ele>
        <time>2025-09-22T15:31:22Z</time>
      </trkpt>
      <trkpt lat="44.29189" lon="3.16428">
        <ele>877.34</ele>
        <time>2025-09-22T15:31:05Z</time>
      </trkpt>
      <trkpt lat="44.292" lon="3.16457">
        <ele>878.3</ele>
        <time>2025-09-22T15:30:50Z</time>
      </trkpt>
      <trkpt lat="44.292" lon="3.16459">
        <ele>878.3</ele>
        <time>2025-09-22T15:30:49Z</time>
      </trkpt>
      <trkpt lat="44.29205" lon="3.16472">
        <ele>878.3</ele>
        <time>2025-09-22T15:30:42Z</time>
      </trkpt>
      <trkpt lat="44.29216" lon="3.16506">
        <ele>878.3</ele>
        <time>2025-09-22T15:30:25Z</time>
      </trkpt>
      <trkpt lat="44.29216" lon="3.16508">
        <ele>878.3</ele>
        <time>2025-09-22T15:30:24Z</time>
      </trkpt>
      <trkpt lat="44.29216" lon="3.16511">
        <ele>877.82</ele>
        <time>2025-09-22T15:30:23Z</time>
      </trkpt>
      <trkpt lat="44.29217" lon="3.16513">
        <ele>877.82</ele>
        <time>2025-09-22T15:30:22Z</time>
      </trkpt>
      <trkpt lat="44.29217" lon="3.16515">
        <ele>877.82</ele>
        <time>2025-09-22T15:30:21Z</time>
      </trkpt>
      <trkpt lat="44.29231" lon="3.16535">
        <ele>880.71</ele>
        <time>2025-09-22T15:30:07Z</time>
      </trkpt>
      <trkpt lat="44.29253" lon="3.16542">
        <ele>882.15</ele>
        <time>2025-09-22T15:29:50Z</time>
      </trkpt>
      <trkpt lat="44.29274" lon="3.16507">
        <ele>883.59</ele>
        <time>2025-09-22T15:29:29Z</time>
      </trkpt>
      <trkpt lat="44.29289" lon="3.16473">
        <ele>885.03</ele>
        <time>2025-09-22T15:29:11Z</time>
      </trkpt>
      <trkpt lat="44.29309" lon="3.16456">
        <ele>888.4</ele>
        <time>2025-09-22T15:28:55Z</time>
      </trkpt>
      <trkpt lat="44.29335" lon="3.16459">
        <ele>892.24</ele>
        <time>2025-09-22T15:28:37Z</time>
      </trkpt>
      <trkpt lat="44.29361" lon="3.16464">
        <ele>895.61</ele>
        <time>2025-09-22T15:28:19Z</time>
      </trkpt>
      <trkpt lat="44.29375" lon="3.16464">
        <ele>896.57</ele>
        <time>2025-09-22T15:28:07Z</time>
      </trkpt>
      <trkpt lat="44.29401" lon="3.16467">
        <ele>898.49</ele>
        <time>2025-09-22T15:27:49Z</time>
      </trkpt>
      <trkpt lat="44.29431" lon="3.16457">
        <ele>898.97</ele>
        <time>2025-09-22T15:27:28Z</time>
      </trkpt>
      <trkpt lat="44.29455" lon="3.16434">
        <ele>898.01</ele>
        <time>2025-09-22T15:27:09Z</time>
      </trkpt>
      <trkpt lat="44.29478" lon="3.16421">
        <ele>897.05</ele>
        <time>2025-09-22T15:26:52Z</time>
      </trkpt>
      <trkpt lat="44.29503" lon="3.16411">
        <ele>895.61</ele>
        <time>2025-09-22T15:26:34Z</time>
      </trkpt>
      <trkpt lat="44.29521" lon="3.16411">
        <ele>894.64</ele>
        <time>2025-09-22T15:26:19Z</time>
      </trkpt>
      <trkpt lat="44.29545" lon="3.16417">
        <ele>891.76</ele>
        <time>2025-09-22T15:26:03Z</time>
      </trkpt>
      <trkpt lat="44.29564" lon="3.16422">
        <ele>887.43</ele>
        <time>2025-09-22T15:25:49Z</time>
      </trkpt>
      <trkpt lat="44.29565" lon="3.16422">
        <ele>886.95</ele>
        <time>2025-09-22T15:25:48Z</time>
      </trkpt>
      <trkpt lat="44.29566" lon="3.16422">
        <ele>886.95</ele>
        <time>2025-09-22T15:25:47Z</time>
      </trkpt>
      <trkpt lat="44.29585" lon="3.16424">
        <ele>886.47</ele>
        <time>2025-09-22T15:25:34Z</time>
      </trkpt>
      <trkpt lat="44.296" lon="3.16423">
        <ele>885.99</ele>
        <time>2025-09-22T15:25:22Z</time>
      </trkpt>
      <trkpt lat="44.29629" lon="3.16431">
        <ele>884.07</ele>
        <time>2025-09-22T15:25:03Z</time>
      </trkpt>
      <trkpt lat="44.29652" lon="3.16441">
        <ele>885.03</ele>
        <time>2025-09-22T15:24:47Z</time>
      </trkpt>
      <trkpt lat="44.29658" lon="3.16443">
        <ele>885.03</ele>
        <time>2025-09-22T15:24:42Z</time>
      </trkpt>
      <trkpt lat="44.2968" lon="3.16448">
        <ele>880.71</ele>
        <time>2025-09-22T15:24:26Z</time>
      </trkpt>
      <trkpt lat="44.29703" lon="3.16447">
        <ele>879.74</ele>
        <time>2025-09-22T15:24:11Z</time>
      </trkpt>
      <trkpt lat="44.29728" lon="3.16442">
        <ele>880.22</ele>
        <time>2025-09-22T15:23:53Z</time>
      </trkpt>
      <trkpt lat="44.29754" lon="3.16437">
        <ele>879.74</ele>
        <time>2025-09-22T15:23:36Z</time>
      </trkpt>
      <trkpt lat="44.29771" lon="3.16421">
        <ele>879.74</ele>
        <time>2025-09-22T15:23:19Z</time>
      </trkpt>
      <trkpt lat="44.29773" lon="3.16393">
        <ele>879.26</ele>
        <time>2025-09-22T15:23:04Z</time>
      </trkpt>
      <trkpt lat="44.2978" lon="3.16366">
        <ele>879.26</ele>
        <time>2025-09-22T15:22:48Z</time>
      </trkpt>
      <trkpt lat="44.29797" lon="3.16334">
        <ele>878.3</ele>
        <time>2025-09-22T15:22:29Z</time>
      </trkpt>
      <trkpt lat="44.29816" lon="3.16325">
        <ele>875.9</ele>
        <time>2025-09-22T15:22:15Z</time>
      </trkpt>
      <trkpt lat="44.29818" lon="3.16325">
        <ele>875.42</ele>
        <time>2025-09-22T15:22:14Z</time>
      </trkpt>
      <trkpt lat="44.29829" lon="3.16325">
        <ele>873.5</ele>
        <time>2025-09-22T15:22:07Z</time>
      </trkpt>
      <trkpt lat="44.29857" lon="3.16325">
        <ele>875.9</ele>
        <time>2025-09-22T15:21:47Z</time>
      </trkpt>
      <trkpt lat="44.29884" lon="3.16321">
        <ele>874.94</ele>
        <time>2025-09-22T15:21:26Z</time>
      </trkpt>
      <trkpt lat="44.29912" lon="3.1632">
        <ele>873.98</ele>
        <time>2025-09-22T15:21:07Z</time>
      </trkpt>
      <trkpt lat="44.29934" lon="3.16323">
        <ele>875.42</ele>
        <time>2025-09-22T15:20:51Z</time>
      </trkpt>
      <trkpt lat="44.29935" lon="3.16323">
        <ele>875.9</ele>
        <time>2025-09-22T15:20:50Z</time>
      </trkpt>
      <trkpt lat="44.2996" lon="3.16327">
        <ele>874.46</ele>
        <time>2025-09-22T15:20:33Z</time>
      </trkpt>
      <trkpt lat="44.29964" lon="3.16327">
        <ele>874.46</ele>
        <time>2025-09-22T15:20:30Z</time>
      </trkpt>
      <trkpt lat="44.2998" lon="3.16321">
        <ele>873.98</ele>
        <time>2025-09-22T15:20:16Z</time>
      </trkpt>
      <trkpt lat="44.29981" lon="3.1632">
        <ele>873.98</ele>
        <time>2025-09-22T15:20:15Z</time>
      </trkpt>
      <trkpt lat="44.29983" lon="3.1632">
        <ele>873.5</ele>
        <time>2025-09-22T15:20:14Z</time>
      </trkpt>
      <trkpt lat="44.29984" lon="3.1632">
        <ele>873.5</ele>
        <time>2025-09-22T15:20:13Z</time>
      </trkpt>
      <trkpt lat="44.29985" lon="3.1632">
        <ele>873.01</ele>
        <time>2025-09-22T15:20:12Z</time>
      </trkpt>
      <trkpt lat="44.29987" lon="3.1632">
        <ele>873.01</ele>
        <time>2025-09-22T15:20:11Z</time>
      </trkpt>
      <trkpt lat="44.29988" lon="3.1632">
        <ele>873.01</ele>
        <time>2025-09-22T15:20:10Z</time>
      </trkpt>
      <trkpt lat="44.29988" lon="3.1632">
        <ele>873.01</ele>
        <time>2025-09-22T15:20:09Z</time>
      </trkpt>
      <trkpt lat="44.29989" lon="3.1632">
        <ele>873.01</ele>
        <time>2025-09-22T15:20:08Z</time>
      </trkpt>
      <trkpt lat="44.2999" lon="3.16321">
        <ele>872.53</ele>
        <time>2025-09-22T15:20:07Z</time>
      </trkpt>
      <trkpt lat="44.29991" lon="3.16322">
        <ele>872.05</ele>
        <time>2025-09-22T15:20:06Z</time>
      </trkpt>
      <trkpt lat="44.29992" lon="3.16323">
        <ele>871.57</ele>
        <time>2025-09-22T15:20:05Z</time>
      </trkpt>
      <trkpt lat="44.29993" lon="3.16323">
        <ele>871.57</ele>
        <time>2025-09-22T15:20:04Z</time>
      </trkpt>
      <trkpt lat="44.30007" lon="3.16311">
        <ele>869.17</ele>
        <time>2025-09-22T15:19:51Z</time>
      </trkpt>
      <trkpt lat="44.30028" lon="3.16293">
        <ele>871.09</ele>
        <time>2025-09-22T15:19:32Z</time>
      </trkpt>
      <trkpt lat="44.30047" lon="3.1628">
        <ele>872.05</ele>
        <time>2025-09-22T15:19:17Z</time>
      </trkpt>
      <trkpt lat="44.30049" lon="3.16279">
        <ele>872.05</ele>
        <time>2025-09-22T15:19:16Z</time>
      </trkpt>
      <trkpt lat="44.30049" lon="3.16278">
        <ele>872.05</ele>
        <time>2025-09-22T15:19:15Z</time>
      </trkpt>
      <trkpt lat="44.30051" lon="3.16277">
        <ele>872.05</ele>
        <time>2025-09-22T15:19:14Z</time>
      </trkpt>
      <trkpt lat="44.30052" lon="3.16276">
        <ele>872.05</ele>
        <time>2025-09-22T15:19:13Z</time>
      </trkpt>
      <trkpt lat="44.30053" lon="3.16274">
        <ele>871.57</ele>
        <time>2025-09-22T15:19:12Z</time>
      </trkpt>
      <trkpt lat="44.30063" lon="3.16263">
        <ele>869.65</ele>
        <time>2025-09-22T15:19:02Z</time>
      </trkpt>
      <trkpt lat="44.30092" lon="3.16256">
        <ele>871.57</ele>
        <time>2025-09-22T15:18:45Z</time>
      </trkpt>
      <trkpt lat="44.30118" lon="3.16256">
        <ele>873.98</ele>
        <time>2025-09-22T15:18:30Z</time>
      </trkpt>
      <trkpt lat="44.30138" lon="3.16244">
        <ele>878.78</ele>
        <time>2025-09-22T15:18:16Z</time>
      </trkpt>
      <trkpt lat="44.30165" lon="3.16242">
        <ele>883.59</ele>
        <time>2025-09-22T15:17:59Z</time>
      </trkpt>
      <trkpt lat="44.30179" lon="3.16249">
        <ele>887.43</ele>
        <time>2025-09-22T15:17:52Z</time>
      </trkpt>
      <trkpt lat="44.30196" lon="3.16281">
        <ele>888.88</ele>
        <time>2025-09-22T15:17:37Z</time>
      </trkpt>
      <trkpt lat="44.30205" lon="3.16291">
        <ele>881.67</ele>
        <time>2025-09-22T15:17:25Z</time>
      </trkpt>
      <trkpt lat="44.3021" lon="3.16292">
        <ele>879.26</ele>
        <time>2025-09-22T15:17:22Z</time>
      </trkpt>
      <trkpt lat="44.30226" lon="3.16294">
        <ele>873.5</ele>
        <time>2025-09-22T15:17:12Z</time>
      </trkpt>
      <trkpt lat="44.30239" lon="3.163">
        <ele>870.61</ele>
        <time>2025-09-22T15:17:03Z</time>
      </trkpt>
      <trkpt lat="44.30245" lon="3.16301">
        <ele>869.65</ele>
        <time>2025-09-22T15:16:57Z</time>
      </trkpt>
      <trkpt lat="44.30267" lon="3.16288">
        <ele>865.32</ele>
        <time>2025-09-22T15:16:40Z</time>
      </trkpt>
      <trkpt lat="44.30288" lon="3.16281">
        <ele>864.36</ele>
        <time>2025-09-22T15:16:25Z</time>
      </trkpt>
      <trkpt lat="44.30322" lon="3.16286">
        <ele>863.88</ele>
        <time>2025-09-22T15:16:07Z</time>
      </trkpt>
      <trkpt lat="44.30339" lon="3.16285">
        <ele>865.8</ele>
        <time>2025-09-22T15:15:55Z</time>
      </trkpt>
      <trkpt lat="44.30357" lon="3.16278">
        <ele>867.25</ele>
        <time>2025-09-22T15:15:39Z</time>
      </trkpt>
      <trkpt lat="44.30376" lon="3.16276">
        <ele>867.73</ele>
        <time>2025-09-22T15:15:24Z</time>
      </trkpt>
      <trkpt lat="44.3038" lon="3.16275">
        <ele>868.21</ele>
        <time>2025-09-22T15:15:21Z</time>
      </trkpt>
      <trkpt lat="44.30398" lon="3.16278">
        <ele>870.61</ele>
        <time>2025-09-22T15:15:03Z</time>
      </trkpt>
      <trkpt lat="44.30415" lon="3.16286">
        <ele>871.09</ele>
        <time>2025-09-22T15:14:47Z</time>
      </trkpt>
      <trkpt lat="44.30418" lon="3.16286">
        <ele>865.2</ele>
      </trkpt>
      <trkpt lat="44.30424" lon="3.1629">
        <ele>864.9</ele>
      </trkpt>
      <trkpt lat="44.30432" lon="3.16294">
        <ele>864.5</ele>
      </trkpt>
      <trkpt lat="44.3044" lon="3.16295">
        <ele>863.9</ele>
      </trkpt>
      <trkpt lat="44.30446" lon="3.16294">
        <ele>863.5</ele>
      </trkpt>
      <trkpt lat="44.30456" lon="3.16293">
        <ele>862.9</ele>
      </trkpt>
      <trkpt lat="44.3046" lon="3.16293">
        <ele>862.7</ele>
        <extensions>
          <visugpx:TrkExtension xmlns:visugpx="https://www.visugpx.com/editgpx/">
            <visugpx:node>3</visugpx:node>
            </visugpx:TrkExtension>
        </extensions>
      </trkpt>
      <trkpt lat="44.30453" lon="3.16294">
        <ele>869.17</ele>
        <time>2025-09-22T15:06:00Z</time>
        <extensions>
          <visugpx:TrkExtension xmlns:visugpx="https://www.visugpx.com/editgpx/">
            <visugpx:node>1</visugpx:node>
            </visugpx:TrkExtension>
        </extensions>
      </trkpt>
      <trkpt lat="44.30461" lon="3.1629">
        <ele>869.65</ele>
        <time>2025-09-22T15:05:48Z</time>
      </trkpt>
      <trkpt lat="44.3048" lon="3.16301">
        <ele>870.13</ele>
        <time>2025-09-22T15:05:31Z</time>
      </trkpt>
      <trkpt lat="44.30491" lon="3.16331">
        <ele>868.21</ele>
        <time>2025-09-22T15:05:15Z</time>
      </trkpt>
      <trkpt lat="44.30487" lon="3.16362">
        <ele>866.77</ele>
        <time>2025-09-22T15:04:59Z</time>
      </trkpt>
      <trkpt lat="44.30487" lon="3.16399">
        <ele>864.36</ele>
        <time>2025-09-22T15:04:42Z</time>
      </trkpt>
      <trkpt lat="44.30491" lon="3.16426">
        <ele>861.48</ele>
        <time>2025-09-22T15:04:27Z</time>
      </trkpt>
      <trkpt lat="44.30495" lon="3.16454">
        <ele>860.52</ele>
        <time>2025-09-22T15:04:12Z</time>
      </trkpt>
      <trkpt lat="44.30497" lon="3.16491">
        <ele>860.04</ele>
        <time>2025-09-22T15:03:54Z</time>
      </trkpt>
      <trkpt lat="44.30501" lon="3.1653">
        <ele>860.04</ele>
        <time>2025-09-22T15:03:35Z</time>
      </trkpt>
      <trkpt lat="44.30512" lon="3.1657">
        <ele>861.48</ele>
        <time>2025-09-22T15:03:15Z</time>
      </trkpt>
      <trkpt lat="44.30525" lon="3.16604">
        <ele>862.92</ele>
        <time>2025-09-22T15:02:57Z</time>
      </trkpt>
      <trkpt lat="44.30532" lon="3.16633">
        <ele>863.4</ele>
        <time>2025-09-22T15:02:43Z</time>
      </trkpt>
      <trkpt lat="44.3052" lon="3.16671">
        <ele>863.4</ele>
        <time>2025-09-22T15:02:27Z</time>
      </trkpt>
      <trkpt lat="44.30508" lon="3.16703">
        <ele>861.48</ele>
        <time>2025-09-22T15:02:10Z</time>
      </trkpt>
      <trkpt lat="44.30499" lon="3.16729">
        <ele>860.52</ele>
        <time>2025-09-22T15:01:56Z</time>
      </trkpt>
      <trkpt lat="44.30492" lon="3.16751">
        <ele>863.88</ele>
        <time>2025-09-22T15:01:42Z</time>
      </trkpt>
      <trkpt lat="44.30485" lon="3.16777">
        <ele>865.32</ele>
        <time>2025-09-22T15:01:25Z</time>
      </trkpt>
      <trkpt lat="44.30484" lon="3.16779">
        <ele>865.8</ele>
        <time>2025-09-22T15:01:24Z</time>
      </trkpt>
      <trkpt lat="44.30484" lon="3.16781">
        <ele>865.8</ele>
        <time>2025-09-22T15:01:23Z</time>
      </trkpt>
      <trkpt lat="44.30484" lon="3.16782">
        <ele>865.8</ele>
        <time>2025-09-22T15:01:22Z</time>
      </trkpt>
      <trkpt lat="44.30484" lon="3.16784">
        <ele>866.29</ele>
        <time>2025-09-22T15:01:21Z</time>
      </trkpt>
      <trkpt lat="44.30484" lon="3.16786">
        <ele>866.29</ele>
        <time>2025-09-22T15:01:20Z</time>
      </trkpt>
      <trkpt lat="44.30484" lon="3.16787">
        <ele>866.29</ele>
        <time>2025-09-22T15:01:19Z</time>
      </trkpt>
      <trkpt lat="44.30484" lon="3.16789">
        <ele>866.77</ele>
        <time>2025-09-22T15:01:18Z</time>
      </trkpt>
      <trkpt lat="44.30496" lon="3.16806">
        <ele>869.17</ele>
        <time>2025-09-22T15:01:04Z</time>
      </trkpt>
      <trkpt lat="44.30508" lon="3.16815">
        <ele>870.61</ele>
        <time>2025-09-22T15:00:51Z</time>
      </trkpt>
      <trkpt lat="44.30511" lon="3.16818">
        <ele>870.61</ele>
        <time>2025-09-22T15:00:46Z</time>
      </trkpt>
      <trkpt lat="44.30513" lon="3.16828">
        <ele>871.09</ele>
        <time>2025-09-22T15:00:34Z</time>
      </trkpt>
      <trkpt lat="44.30509" lon="3.16855">
        <ele>872.53</ele>
        <time>2025-09-22T15:00:19Z</time>
      </trkpt>
      <trkpt lat="44.30499" lon="3.16888">
        <ele>873.5</ele>
        <time>2025-09-22T15:00:01Z</time>
      </trkpt>
      <trkpt lat="44.30493" lon="3.16922">
        <ele>874.94</ele>
        <time>2025-09-22T14:59:45Z</time>
      </trkpt>
      <trkpt lat="44.305" lon="3.16951">
        <ele>878.3</ele>
        <time>2025-09-22T14:59:30Z</time>
      </trkpt>
      <trkpt lat="44.30519" lon="3.1698">
        <ele>881.67</ele>
        <time>2025-09-22T14:59:10Z</time>
      </trkpt>
      <trkpt lat="44.30533" lon="3.17006">
        <ele>883.59</ele>
        <time>2025-09-22T14:58:52Z</time>
      </trkpt>
      <trkpt lat="44.30536" lon="3.17041">
        <ele>885.03</ele>
        <time>2025-09-22T14:58:34Z</time>
      </trkpt>
      <trkpt lat="44.30535" lon="3.17073">
        <ele>885.99</ele>
        <time>2025-09-22T14:58:17Z</time>
      </trkpt>
      <trkpt lat="44.30539" lon="3.17106">
        <ele>887.43</ele>
        <time>2025-09-22T14:57:59Z</time>
      </trkpt>
      <trkpt lat="44.3056" lon="3.17112">
        <ele>889.36</ele>
        <time>2025-09-22T14:57:41Z</time>
      </trkpt>
      <trkpt lat="44.30583" lon="3.17114">
        <ele>890.8</ele>
        <time>2025-09-22T14:57:24Z</time>
      </trkpt>
      <trkpt lat="44.30585" lon="3.17114">
        <ele>890.8</ele>
        <time>2025-09-22T14:57:23Z</time>
      </trkpt>
      <trkpt lat="44.30586" lon="3.17114">
        <ele>890.8</ele>
        <time>2025-09-22T14:57:22Z</time>
      </trkpt>
      <trkpt lat="44.30602" lon="3.17112">
        <ele>889.36</ele>
        <time>2025-09-22T14:57:06Z</time>
      </trkpt>
      <trkpt lat="44.3062" lon="3.17113">
        <ele>886.95</ele>
        <time>2025-09-22T14:56:50Z</time>
      </trkpt>
      <trkpt lat="44.30628" lon="3.17114">
        <ele>885.03</ele>
        <time>2025-09-22T14:56:34Z</time>
      </trkpt>
      <trkpt lat="44.30646" lon="3.17122">
        <ele>882.63</ele>
        <time>2025-09-22T14:56:16Z</time>
      </trkpt>
      <trkpt lat="44.30662" lon="3.17142">
        <ele>880.71</ele>
        <time>2025-09-22T14:55:58Z</time>
      </trkpt>
      <trkpt lat="44.30675" lon="3.17163">
        <ele>879.26</ele>
        <time>2025-09-22T14:55:42Z</time>
      </trkpt>
      <trkpt lat="44.30686" lon="3.17184">
        <ele>877.34</ele>
        <time>2025-09-22T14:55:26Z</time>
      </trkpt>
      <trkpt lat="44.30699" lon="3.17205">
        <ele>874.94</ele>
        <time>2025-09-22T14:55:09Z</time>
      </trkpt>
      <trkpt lat="44.30715" lon="3.1722">
        <ele>872.05</ele>
        <time>2025-09-22T14:54:52Z</time>
      </trkpt>
      <trkpt lat="44.30735" lon="3.17226">
        <ele>871.57</ele>
        <time>2025-09-22T14:54:35Z</time>
      </trkpt>
      <trkpt lat="44.30756" lon="3.17228">
        <ele>871.09</ele>
        <time>2025-09-22T14:54:18Z</time>
      </trkpt>
      <trkpt lat="44.30775" lon="3.17232">
        <ele>870.13</ele>
        <time>2025-09-22T14:54:03Z</time>
      </trkpt>
      <trkpt lat="44.30776" lon="3.17234">
        <ele>869.65</ele>
        <time>2025-09-22T14:54:02Z</time>
      </trkpt>
      <trkpt lat="44.30777" lon="3.17235">
        <ele>869.65</ele>
        <time>2025-09-22T14:54:01Z</time>
      </trkpt>
      <trkpt lat="44.30777" lon="3.17236">
        <ele>869.65</ele>
        <time>2025-09-22T14:54:00Z</time>
      </trkpt>
      <trkpt lat="44.30776" lon="3.17239">
        <ele>869.65</ele>
        <time>2025-09-22T14:53:59Z</time>
      </trkpt>
      <trkpt lat="44.30778" lon="3.17247">
        <ele>870.13</ele>
        <time>2025-09-22T14:53:55Z</time>
      </trkpt>
      <trkpt lat="44.30778" lon="3.17249">
        <ele>869.65</ele>
        <time>2025-09-22T14:53:54Z</time>
      </trkpt>
      <trkpt lat="44.30779" lon="3.17251">
        <ele>869.65</ele>
        <time>2025-09-22T14:53:53Z</time>
      </trkpt>
      <trkpt lat="44.30779" lon="3.17252">
        <ele>869.65</ele>
        <time>2025-09-22T14:53:52Z</time>
      </trkpt>
      <trkpt lat="44.30781" lon="3.17254">
        <ele>869.65</ele>
        <time>2025-09-22T14:53:51Z</time>
      </trkpt>
      <trkpt lat="44.30783" lon="3.17259">
        <ele>869.65</ele>
        <time>2025-09-22T14:53:48Z</time>
      </trkpt>
      <trkpt lat="44.30792" lon="3.17289">
        <ele>870.13</ele>
        <time>2025-09-22T14:53:31Z</time>
      </trkpt>
      <trkpt lat="44.30803" lon="3.17317">
        <ele>869.65</ele>
        <time>2025-09-22T14:53:14Z</time>
      </trkpt>
      <trkpt lat="44.30815" lon="3.1735">
        <ele>870.61</ele>
        <time>2025-09-22T14:52:55Z</time>
      </trkpt>
      <trkpt lat="44.30823" lon="3.17372">
        <ele>872.05</ele>
        <time>2025-09-22T14:52:41Z</time>
      </trkpt>
      <trkpt lat="44.30834" lon="3.17397">
        <ele>873.98</ele>
        <time>2025-09-22T14:52:24Z</time>
      </trkpt>
      <trkpt lat="44.30847" lon="3.1741">
        <ele>875.42</ele>
        <time>2025-09-22T14:52:11Z</time>
      </trkpt>
      <trkpt lat="44.30866" lon="3.17412">
        <ele>877.34</ele>
        <time>2025-09-22T14:51:55Z</time>
      </trkpt>
      <trkpt lat="44.30886" lon="3.17406">
        <ele>878.3</ele>
        <time>2025-09-22T14:51:39Z</time>
      </trkpt>
      <trkpt lat="44.30888" lon="3.17406">
        <ele>878.3</ele>
        <time>2025-09-22T14:51:38Z</time>
      </trkpt>
      <trkpt lat="44.30889" lon="3.17406">
        <ele>878.3</ele>
        <time>2025-09-22T14:51:37Z</time>
      </trkpt>
      <trkpt lat="44.3089" lon="3.17405">
        <ele>878.3</ele>
        <time>2025-09-22T14:51:36Z</time>
      </trkpt>
      <trkpt lat="44.30891" lon="3.17404">
        <ele>878.3</ele>
        <time>2025-09-22T14:51:35Z</time>
      </trkpt>
      <trkpt lat="44.30893" lon="3.17404">
        <ele>878.3</ele>
        <time>2025-09-22T14:51:34Z</time>
      </trkpt>
      <trkpt lat="44.30894" lon="3.17403">
        <ele>878.3</ele>
        <time>2025-09-22T14:51:33Z</time>
      </trkpt>
      <trkpt lat="44.30894" lon="3.17401">
        <ele>878.3</ele>
        <time>2025-09-22T14:51:32Z</time>
      </trkpt>
      <trkpt lat="44.30895" lon="3.174">
        <ele>878.3</ele>
        <time>2025-09-22T14:51:31Z</time>
      </trkpt>
      <trkpt lat="44.30896" lon="3.17395">
        <ele>878.3</ele>
        <time>2025-09-22T14:51:28Z</time>
      </trkpt>
      <trkpt lat="44.30896" lon="3.17394">
        <ele>878.3</ele>
        <time>2025-09-22T14:51:27Z</time>
      </trkpt>
      <trkpt lat="44.30897" lon="3.17392">
        <ele>878.78</ele>
        <time>2025-09-22T14:51:22Z</time>
      </trkpt>
      <trkpt lat="44.30898" lon="3.17388">
        <ele>879.26</ele>
        <time>2025-09-22T14:51:07Z</time>
      </trkpt>
      <trkpt lat="44.309" lon="3.17383">
        <ele>878.78</ele>
        <time>2025-09-22T14:50:56Z</time>
      </trkpt>
      <trkpt lat="44.30899" lon="3.17387">
        <ele>877.34</ele>
        <time>2025-09-22T14:50:31Z</time>
      </trkpt>
      <trkpt lat="44.30899" lon="3.17386">
        <ele>880.22</ele>
        <time>2025-09-22T14:50:06Z</time>
      </trkpt>
      <trkpt lat="44.309" lon="3.17384">
        <ele>880.22</ele>
        <time>2025-09-22T14:49:52Z</time>
      </trkpt>
      <trkpt lat="44.30905" lon="3.17383">
        <ele>878.78</ele>
        <time>2025-09-22T14:49:34Z</time>
      </trkpt>
      <trkpt lat="44.30902" lon="3.17385">
        <ele>878.3</ele>
        <time>2025-09-22T14:49:19Z</time>
      </trkpt>
      <trkpt lat="44.30904" lon="3.17391">
        <ele>880.22</ele>
        <time>2025-09-22T14:49:01Z</time>
      </trkpt>
      <trkpt lat="44.30905" lon="3.17391">
        <ele>879.26</ele>
        <time>2025-09-22T14:48:41Z</time>
      </trkpt>
      <trkpt lat="44.30914" lon="3.17395">
        <ele>877.82</ele>
        <time>2025-09-22T14:48:27Z</time>
      </trkpt>
      <trkpt lat="44.30915" lon="3.17395">
        <ele>877.82</ele>
        <time>2025-09-22T14:48:26Z</time>
      </trkpt>
      <trkpt lat="44.30916" lon="3.17397">
        <ele>877.82</ele>
        <time>2025-09-22T14:48:25Z</time>
      </trkpt>
      <trkpt lat="44.3092" lon="3.17399">
        <ele>878.3</ele>
        <time>2025-09-22T14:48:08Z</time>
      </trkpt>
      <trkpt lat="44.30919" lon="3.17399">
        <ele>878.3</ele>
        <time>2025-09-22T14:47:46Z</time>
      </trkpt>
      <trkpt lat="44.30921" lon="3.17397">
        <ele>876.38</ele>
        <time>2025-09-22T14:47:28Z</time>
      </trkpt>
      <trkpt lat="44.30923" lon="3.17397">
        <ele>874.94</ele>
        <time>2025-09-22T14:47:17Z</time>
      </trkpt>
      <trkpt lat="44.3093" lon="3.17402">
        <ele>873.5</ele>
        <time>2025-09-22T14:47:10Z</time>
      </trkpt>
      <trkpt lat="44.30931" lon="3.17404">
        <ele>873.5</ele>
        <time>2025-09-22T14:47:09Z</time>
      </trkpt>
      <trkpt lat="44.30932" lon="3.17405">
        <ele>873.01</ele>
        <time>2025-09-22T14:47:08Z</time>
      </trkpt>
      <trkpt lat="44.30933" lon="3.17406">
        <ele>873.01</ele>
        <time>2025-09-22T14:47:07Z</time>
      </trkpt>
      <trkpt lat="44.30934" lon="3.17406">
        <ele>873.01</ele>
        <time>2025-09-22T14:47:06Z</time>
      </trkpt>
      <trkpt lat="44.30952" lon="3.17405">
        <ele>873.98</ele>
        <time>2025-09-22T14:46:51Z</time>
      </trkpt>
      <trkpt lat="44.30976" lon="3.17401">
        <ele>875.42</ele>
        <time>2025-09-22T14:46:33Z</time>
      </trkpt>
      <trkpt lat="44.30995" lon="3.17399">
        <ele>874.46</ele>
        <time>2025-09-22T14:46:18Z</time>
      </trkpt>
      <trkpt lat="44.31003" lon="3.17398">
        <ele>874.94</ele>
        <time>2025-09-22T14:46:12Z</time>
      </trkpt>
      <trkpt lat="44.31023" lon="3.17392">
        <ele>878.3</ele>
        <time>2025-09-22T14:45:56Z</time>
      </trkpt>
      <trkpt lat="44.31045" lon="3.17396">
        <ele>880.22</ele>
        <time>2025-09-22T14:45:38Z</time>
      </trkpt>
      <trkpt lat="44.31067" lon="3.17399">
        <ele>881.19</ele>
        <time>2025-09-22T14:45:22Z</time>
      </trkpt>
      <trkpt lat="44.31087" lon="3.1741">
        <ele>882.63</ele>
        <time>2025-09-22T14:45:05Z</time>
      </trkpt>
      <trkpt lat="44.31088" lon="3.17411">
        <ele>882.63</ele>
        <time>2025-09-22T14:45:04Z</time>
      </trkpt>
      <trkpt lat="44.31089" lon="3.17415">
        <ele>882.63</ele>
        <time>2025-09-22T14:45:01Z</time>
      </trkpt>
      <trkpt lat="44.31093" lon="3.17445">
        <ele>882.15</ele>
        <time>2025-09-22T14:44:44Z</time>
      </trkpt>
      <trkpt lat="44.31099" lon="3.17476">
        <ele>882.63</ele>
        <time>2025-09-22T14:44:26Z</time>
      </trkpt>
      <trkpt lat="44.31105" lon="3.17506">
        <ele>881.67</ele>
        <time>2025-09-22T14:44:10Z</time>
      </trkpt>
      <trkpt lat="44.31112" lon="3.17533">
        <ele>883.59</ele>
        <time>2025-09-22T14:43:54Z</time>
      </trkpt>
      <trkpt lat="44.31113" lon="3.17535">
        <ele>883.59</ele>
        <time>2025-09-22T14:43:53Z</time>
      </trkpt>
      <trkpt lat="44.31115" lon="3.17539">
        <ele>884.07</ele>
        <time>2025-09-22T14:43:50Z</time>
      </trkpt>
      <trkpt lat="44.31118" lon="3.17544">
        <ele>883.59</ele>
        <time>2025-09-22T14:43:30Z</time>
      </trkpt>
      <trkpt lat="44.31121" lon="3.17559">
        <ele>883.59</ele>
        <time>2025-09-22T14:43:15Z</time>
      </trkpt>
      <trkpt lat="44.31133" lon="3.17593">
        <ele>885.51</ele>
        <time>2025-09-22T14:42:57Z</time>
      </trkpt>
      <trkpt lat="44.3115" lon="3.17624">
        <ele>888.4</ele>
        <time>2025-09-22T14:42:38Z</time>
      </trkpt>
      <trkpt lat="44.31161" lon="3.17652">
        <ele>889.36</ele>
        <time>2025-09-22T14:42:22Z</time>
      </trkpt>
      <trkpt lat="44.31171" lon="3.17688">
        <ele>892.72</ele>
        <time>2025-09-22T14:42:05Z</time>
      </trkpt>
      <trkpt lat="44.31181" lon="3.17719">
        <ele>894.16</ele>
        <time>2025-09-22T14:41:48Z</time>
      </trkpt>
      <trkpt lat="44.3119" lon="3.17751">
        <ele>895.61</ele>
        <time>2025-09-22T14:41:31Z</time>
      </trkpt>
      <trkpt lat="44.31196" lon="3.17779">
        <ele>897.53</ele>
        <time>2025-09-22T14:41:17Z</time>
      </trkpt>
      <trkpt lat="44.31201" lon="3.17821">
        <ele>899.45</ele>
        <time>2025-09-22T14:40:58Z</time>
      </trkpt>
      <trkpt lat="44.31207" lon="3.17865">
        <ele>899.93</ele>
        <time>2025-09-22T14:40:39Z</time>
      </trkpt>
      <trkpt lat="44.31209" lon="3.17885">
        <ele>899.45</ele>
        <time>2025-09-22T14:40:30Z</time>
      </trkpt>
      <trkpt lat="44.3121" lon="3.17913">
        <ele>899.45</ele>
        <time>2025-09-22T14:40:17Z</time>
      </trkpt>
      <trkpt lat="44.31212" lon="3.17946">
        <ele>904.74</ele>
        <time>2025-09-22T14:40:00Z</time>
      </trkpt>
      <trkpt lat="44.31212" lon="3.1798">
        <ele>909.06</ele>
        <time>2025-09-22T14:39:45Z</time>
      </trkpt>
      <trkpt lat="44.31214" lon="3.18015">
        <ele>914.83</ele>
        <time>2025-09-22T14:39:28Z</time>
      </trkpt>
      <trkpt lat="44.31214" lon="3.18047">
        <ele>917.24</ele>
        <time>2025-09-22T14:39:14Z</time>
      </trkpt>
      <trkpt lat="44.31211" lon="3.18081">
        <ele>919.16</ele>
        <time>2025-09-22T14:39:00Z</time>
      </trkpt>
      <trkpt lat="44.31207" lon="3.18116">
        <ele>916.27</ele>
        <time>2025-09-22T14:38:44Z</time>
      </trkpt>
      <trkpt lat="44.31207" lon="3.18147">
        <ele>918.68</ele>
        <time>2025-09-22T14:38:30Z</time>
      </trkpt>
      <trkpt lat="44.31199" lon="3.18178">
        <ele>923</ele>
        <time>2025-09-22T14:38:14Z</time>
      </trkpt>
      <trkpt lat="44.31199" lon="3.18181">
        <ele>923</ele>
        <time>2025-09-22T14:38:13Z</time>
      </trkpt>
      <trkpt lat="44.31193" lon="3.18208">
        <ele>924.45</ele>
        <time>2025-09-22T14:37:59Z</time>
      </trkpt>
      <trkpt lat="44.3119" lon="3.18245">
        <ele>926.85</ele>
        <time>2025-09-22T14:37:42Z</time>
      </trkpt>
      <trkpt lat="44.3119" lon="3.18271">
        <ele>928.77</ele>
        <time>2025-09-22T14:37:30Z</time>
      </trkpt>
      <trkpt lat="44.3119" lon="3.18273">
        <ele>928.77</ele>
        <time>2025-09-22T14:37:29Z</time>
      </trkpt>
      <trkpt lat="44.3119" lon="3.18275">
        <ele>928.77</ele>
        <time>2025-09-22T14:37:28Z</time>
      </trkpt>
      <trkpt lat="44.3119" lon="3.18277">
        <ele>928.77</ele>
        <time>2025-09-22T14:37:27Z</time>
      </trkpt>
      <trkpt lat="44.3119" lon="3.18279">
        <ele>929.25</ele>
        <time>2025-09-22T14:37:26Z</time>
      </trkpt>
      <trkpt lat="44.31189" lon="3.18281">
        <ele>929.25</ele>
        <time>2025-09-22T14:37:25Z</time>
      </trkpt>
      <trkpt lat="44.31189" lon="3.18283">
        <ele>929.25</ele>
        <time>2025-09-22T14:37:24Z</time>
      </trkpt>
      <trkpt lat="44.31188" lon="3.18297">
        <ele>929.73</ele>
        <time>2025-09-22T14:37:18Z</time>
      </trkpt>
      <trkpt lat="44.31188" lon="3.18299">
        <ele>929.73</ele>
        <time>2025-09-22T14:37:17Z</time>
      </trkpt>
      <trkpt lat="44.31188" lon="3.18301">
        <ele>929.73</ele>
        <time>2025-09-22T14:37:16Z</time>
      </trkpt>
      <trkpt lat="44.31188" lon="3.18303">
        <ele>930.21</ele>
        <time>2025-09-22T14:37:15Z</time>
      </trkpt>
      <trkpt lat="44.31187" lon="3.18305">
        <ele>930.21</ele>
        <time>2025-09-22T14:37:14Z</time>
      </trkpt>
      <trkpt lat="44.31187" lon="3.18308">
        <ele>930.21</ele>
        <time>2025-09-22T14:37:13Z</time>
      </trkpt>
      <trkpt lat="44.31187" lon="3.18311">
        <ele>930.69</ele>
        <time>2025-09-22T14:37:12Z</time>
      </trkpt>
      <trkpt lat="44.31187" lon="3.18313">
        <ele>930.69</ele>
        <time>2025-09-22T14:37:11Z</time>
      </trkpt>
      <trkpt lat="44.31187" lon="3.18316">
        <ele>930.69</ele>
        <time>2025-09-22T14:37:10Z</time>
      </trkpt>
      <trkpt lat="44.31187" lon="3.18318">
        <ele>931.17</ele>
        <time>2025-09-22T14:37:09Z</time>
      </trkpt>
      <trkpt lat="44.31187" lon="3.18331">
        <ele>930.69</ele>
        <time>2025-09-22T14:37:04Z</time>
      </trkpt>
      <trkpt lat="44.3118" lon="3.18394">
        <ele>929.25</ele>
        <time>2025-09-22T14:36:49Z</time>
      </trkpt>
      <trkpt lat="44.31158" lon="3.18459">
        <ele>929.73</ele>
        <time>2025-09-22T14:36:32Z</time>
      </trkpt>
      <trkpt lat="44.31158" lon="3.18522">
        <ele>928.77</ele>
        <time>2025-09-22T14:36:17Z</time>
      </trkpt>
      <trkpt lat="44.31169" lon="3.18572">
        <ele>928.77</ele>
        <time>2025-09-22T14:36:03Z</time>
      </trkpt>
      <trkpt lat="44.31177" lon="3.18605">
        <ele>928.29</ele>
        <time>2025-09-22T14:35:45Z</time>
      </trkpt>
      <trkpt lat="44.31186" lon="3.18636">
        <ele>927.33</ele>
        <time>2025-09-22T14:35:28Z</time>
      </trkpt>
      <trkpt lat="44.31192" lon="3.18669">
        <ele>925.89</ele>
        <time>2025-09-22T14:35:10Z</time>
      </trkpt>
      <trkpt lat="44.31192" lon="3.18671">
        <ele>925.41</ele>
        <time>2025-09-22T14:35:09Z</time>
      </trkpt>
      <trkpt lat="44.31197" lon="3.1871">
        <ele>924.93</ele>
        <time>2025-09-22T14:34:52Z</time>
      </trkpt>
      <trkpt lat="44.312" lon="3.18749">
        <ele>924.45</ele>
        <time>2025-09-22T14:34:33Z</time>
      </trkpt>
      <trkpt lat="44.31205" lon="3.18791">
        <ele>923.48</ele>
        <time>2025-09-22T14:34:11Z</time>
      </trkpt>
      <trkpt lat="44.31207" lon="3.1882">
        <ele>923.96</ele>
        <time>2025-09-22T14:33:56Z</time>
      </trkpt>
      <trkpt lat="44.31207" lon="3.1883">
        <ele>923.96</ele>
        <time>2025-09-22T14:33:51Z</time>
      </trkpt>
      <trkpt lat="44.31207" lon="3.18861">
        <ele>923.96</ele>
        <time>2025-09-22T14:33:36Z</time>
      </trkpt>
      <trkpt lat="44.31209" lon="3.18895">
        <ele>924.93</ele>
        <time>2025-09-22T14:33:18Z</time>
      </trkpt>
      <trkpt lat="44.31207" lon="3.18905">
        <ele>925.41</ele>
        <time>2025-09-22T14:33:13Z</time>
      </trkpt>
      <trkpt lat="44.31201" lon="3.18926">
        <ele>925.41</ele>
        <time>2025-09-22T14:33:03Z</time>
      </trkpt>
      <trkpt lat="44.31197" lon="3.18968">
        <ele>926.37</ele>
        <time>2025-09-22T14:32:46Z</time>
      </trkpt>
      <trkpt lat="44.31192" lon="3.18998">
        <ele>927.33</ele>
        <time>2025-09-22T14:32:31Z</time>
      </trkpt>
      <trkpt lat="44.31187" lon="3.19026">
        <ele>927.81</ele>
        <time>2025-09-22T14:32:16Z</time>
      </trkpt>
      <trkpt lat="44.31184" lon="3.19049">
        <ele>929.25</ele>
        <time>2025-09-22T14:32:03Z</time>
      </trkpt>
      <trkpt lat="44.31185" lon="3.1908">
        <ele>932.62</ele>
        <time>2025-09-22T14:31:47Z</time>
      </trkpt>
      <trkpt lat="44.31184" lon="3.19115">
        <ele>935.02</ele>
        <time>2025-09-22T14:31:29Z</time>
      </trkpt>
      <trkpt lat="44.31183" lon="3.19144">
        <ele>937.42</ele>
        <time>2025-09-22T14:31:14Z</time>
      </trkpt>
      <trkpt lat="44.31182" lon="3.19173">
        <ele>939.35</ele>
        <time>2025-09-22T14:30:58Z</time>
      </trkpt>
      <trkpt lat="44.31181" lon="3.19202">
        <ele>944.15</ele>
        <time>2025-09-22T14:30:41Z</time>
      </trkpt>
      <trkpt lat="44.31182" lon="3.19235">
        <ele>948.96</ele>
        <time>2025-09-22T14:30:23Z</time>
      </trkpt>
      <trkpt lat="44.31187" lon="3.19265">
        <ele>950.4</ele>
        <time>2025-09-22T14:30:07Z</time>
      </trkpt>
      <trkpt lat="44.3119" lon="3.19292">
        <ele>952.8</ele>
        <time>2025-09-22T14:29:52Z</time>
      </trkpt>
      <trkpt lat="44.31193" lon="3.19318">
        <ele>955.69</ele>
        <time>2025-09-22T14:29:36Z</time>
      </trkpt>
      <trkpt lat="44.31197" lon="3.19345">
        <ele>958.57</ele>
        <time>2025-09-22T14:29:19Z</time>
      </trkpt>
      <trkpt lat="44.31202" lon="3.19371">
        <ele>961.94</ele>
        <time>2025-09-22T14:29:02Z</time>
      </trkpt>
      <trkpt lat="44.31205" lon="3.19394">
        <ele>961.46</ele>
        <time>2025-09-22T14:28:47Z</time>
      </trkpt>
      <trkpt lat="44.31206" lon="3.19396">
        <ele>962.42</ele>
        <time>2025-09-22T14:28:33Z</time>
      </trkpt>
      <trkpt lat="44.31209" lon="3.19396">
        <ele>962.9</ele>
        <time>2025-09-22T14:28:19Z</time>
      </trkpt>
      <trkpt lat="44.31209" lon="3.19397">
        <ele>962.42</ele>
        <time>2025-09-22T14:28:00Z</time>
      </trkpt>
      <trkpt lat="44.31208" lon="3.19396">
        <ele>963.38</ele>
        <time>2025-09-22T14:27:42Z</time>
      </trkpt>
      <trkpt lat="44.31209" lon="3.19398">
        <ele>963.86</ele>
        <time>2025-09-22T14:27:27Z</time>
      </trkpt>
      <trkpt lat="44.31213" lon="3.19398">
        <ele>962.9</ele>
        <time>2025-09-22T14:27:13Z</time>
      </trkpt>
      <trkpt lat="44.31212" lon="3.19397">
        <ele>962.9</ele>
        <time>2025-09-22T14:26:53Z</time>
      </trkpt>
      <trkpt lat="44.31212" lon="3.19399">
        <ele>962.42</ele>
        <time>2025-09-22T14:26:32Z</time>
      </trkpt>
      <trkpt lat="44.31217" lon="3.19408">
        <ele>963.86</ele>
        <time>2025-09-22T14:26:19Z</time>
      </trkpt>
      <trkpt lat="44.31229" lon="3.19434">
        <ele>966.74</ele>
        <time>2025-09-22T14:26:02Z</time>
      </trkpt>
      <trkpt lat="44.31232" lon="3.19439">
        <ele>966.74</ele>
        <time>2025-09-22T14:25:59Z</time>
      </trkpt>
      <trkpt lat="44.31235" lon="3.19444">
        <ele>967.22</ele>
        <time>2025-09-22T14:25:55Z</time>
      </trkpt>
      <trkpt lat="44.31248" lon="3.19465">
        <ele>969.15</ele>
        <time>2025-09-22T14:25:39Z</time>
      </trkpt>
      <trkpt lat="44.31264" lon="3.19493">
        <ele>968.67</ele>
        <time>2025-09-22T14:25:21Z</time>
      </trkpt>
      <trkpt lat="44.31276" lon="3.19513">
        <ele>968.67</ele>
        <time>2025-09-22T14:25:07Z</time>
      </trkpt>
      <trkpt lat="44.31294" lon="3.19539">
        <ele>967.7</ele>
        <time>2025-09-22T14:24:46Z</time>
      </trkpt>
      <trkpt lat="44.3131" lon="3.19563">
        <ele>967.22</ele>
        <time>2025-09-22T14:24:27Z</time>
      </trkpt>
      <trkpt lat="44.31326" lon="3.19589">
        <ele>966.26</ele>
        <time>2025-09-22T14:24:07Z</time>
      </trkpt>
      <trkpt lat="44.3134" lon="3.19609">
        <ele>964.82</ele>
        <time>2025-09-22T14:23:51Z</time>
      </trkpt>
      <trkpt lat="44.31352" lon="3.19629">
        <ele>964.34</ele>
        <time>2025-09-22T14:23:36Z</time>
      </trkpt>
      <trkpt lat="44.31365" lon="3.19652">
        <ele>965.78</ele>
        <time>2025-09-22T14:23:21Z</time>
      </trkpt>
      <trkpt lat="44.3138" lon="3.19677">
        <ele>967.7</ele>
        <time>2025-09-22T14:23:04Z</time>
      </trkpt>
      <trkpt lat="44.31395" lon="3.197">
        <ele>969.63</ele>
        <time>2025-09-22T14:22:48Z</time>
      </trkpt>
      <trkpt lat="44.31406" lon="3.19719">
        <ele>972.03</ele>
        <time>2025-09-22T14:22:35Z</time>
      </trkpt>
      <trkpt lat="44.31418" lon="3.19738">
        <ele>973.95</ele>
        <time>2025-09-22T14:22:20Z</time>
      </trkpt>
      <trkpt lat="44.31432" lon="3.19761">
        <ele>975.39</ele>
        <time>2025-09-22T14:22:05Z</time>
      </trkpt>
      <trkpt lat="44.31445" lon="3.19782">
        <ele>977.8</ele>
        <time>2025-09-22T14:21:50Z</time>
      </trkpt>
      <trkpt lat="44.31464" lon="3.19807">
        <ele>981.16</ele>
        <time>2025-09-22T14:21:31Z</time>
      </trkpt>
      <trkpt lat="44.31475" lon="3.19826">
        <ele>984.05</ele>
        <time>2025-09-22T14:21:16Z</time>
      </trkpt>
      <trkpt lat="44.31471" lon="3.19852">
        <ele>985.97</ele>
        <time>2025-09-22T14:21:01Z</time>
      </trkpt>
      <trkpt lat="44.31451" lon="3.1987">
        <ele>987.41</ele>
        <time>2025-09-22T14:20:44Z</time>
      </trkpt>
      <trkpt lat="44.31435" lon="3.19886">
        <ele>987.41</ele>
        <time>2025-09-22T14:20:30Z</time>
      </trkpt>
      <trkpt lat="44.31417" lon="3.19905">
        <ele>986.93</ele>
        <time>2025-09-22T14:20:13Z</time>
      </trkpt>
      <trkpt lat="44.31416" lon="3.19907">
        <ele>986.93</ele>
        <time>2025-09-22T14:20:12Z</time>
      </trkpt>
      <trkpt lat="44.31416" lon="3.19908">
        <ele>986.93</ele>
        <time>2025-09-22T14:20:11Z</time>
      </trkpt>
      <trkpt lat="44.31419" lon="3.1993">
        <ele>988.85</ele>
        <time>2025-09-22T14:19:59Z</time>
      </trkpt>
      <trkpt lat="44.31439" lon="3.19952">
        <ele>989.81</ele>
        <time>2025-09-22T14:19:40Z</time>
      </trkpt>
      <trkpt lat="44.31453" lon="3.19963">
        <ele>993.18</ele>
        <time>2025-09-22T14:19:23Z</time>
      </trkpt>
      <trkpt lat="44.31454" lon="3.19964">
        <ele>993.18</ele>
        <time>2025-09-22T14:19:22Z</time>
      </trkpt>
      <trkpt lat="44.31455" lon="3.19965">
        <ele>993.18</ele>
        <time>2025-09-22T14:19:21Z</time>
      </trkpt>
      <trkpt lat="44.31456" lon="3.19966">
        <ele>993.18</ele>
        <time>2025-09-22T14:19:19Z</time>
      </trkpt>
      <trkpt lat="44.31466" lon="3.1997">
        <ele>994.14</ele>
        <time>2025-09-22T14:19:07Z</time>
      </trkpt>
      <trkpt lat="44.31484" lon="3.1998">
        <ele>995.1</ele>
        <time>2025-09-22T14:18:51Z</time>
      </trkpt>
      <trkpt lat="44.31495" lon="3.19987">
        <ele>996.54</ele>
        <time>2025-09-22T14:18:32Z</time>
      </trkpt>
      <trkpt lat="44.31511" lon="3.19997">
        <ele>998.95</ele>
        <time>2025-09-22T14:18:16Z</time>
      </trkpt>
      <trkpt lat="44.31528" lon="3.20011">
        <ele>1000.39</ele>
        <time>2025-09-22T14:18:00Z</time>
      </trkpt>
      <trkpt lat="44.31539" lon="3.20017">
        <ele>1000.87</ele>
        <time>2025-09-22T14:17:52Z</time>
      </trkpt>
      <trkpt lat="44.31541" lon="3.20018">
        <ele>1000.87</ele>
        <time>2025-09-22T14:17:51Z</time>
      </trkpt>
      <trkpt lat="44.31547" lon="3.20023">
        <ele>1000.39</ele>
        <time>2025-09-22T14:17:46Z</time>
      </trkpt>
      <trkpt lat="44.31548" lon="3.20024">
        <ele>1000.39</ele>
        <time>2025-09-22T14:17:45Z</time>
      </trkpt>
      <trkpt lat="44.31549" lon="3.20026">
        <ele>1000.39</ele>
        <time>2025-09-22T14:17:44Z</time>
      </trkpt>
      <trkpt lat="44.3155" lon="3.20027">
        <ele>1000.39</ele>
        <time>2025-09-22T14:17:43Z</time>
      </trkpt>
      <trkpt lat="44.31551" lon="3.20028">
        <ele>1000.39</ele>
        <time>2025-09-22T14:17:42Z</time>
      </trkpt>
      <trkpt lat="44.31552" lon="3.20029">
        <ele>1000.39</ele>
        <time>2025-09-22T14:17:41Z</time>
      </trkpt>
      <trkpt lat="44.31549" lon="3.20032">
        <ele>999.43</ele>
        <time>2025-09-22T14:17:35Z</time>
      </trkpt>
      <trkpt lat="44.31532" lon="3.20044">
        <ele>998.95</ele>
        <time>2025-09-22T14:17:21Z</time>
      </trkpt>
      <trkpt lat="44.31493" lon="3.2009">
        <ele>997.02</ele>
        <time>2025-09-22T14:17:07Z</time>
      </trkpt>
      <trkpt lat="44.31445" lon="3.20154">
        <ele>993.18</ele>
        <time>2025-09-22T14:16:53Z</time>
      </trkpt>
      <trkpt lat="44.31384" lon="3.20231">
        <ele>990.78</ele>
        <time>2025-09-22T14:16:40Z</time>
      </trkpt>
      <trkpt lat="44.31366" lon="3.20256">
        <ele>990.3</ele>
        <time>2025-09-22T14:16:35Z</time>
      </trkpt>
      <trkpt lat="44.31338" lon="3.20288">
        <ele>990.3</ele>
        <time>2025-09-22T14:16:21Z</time>
      </trkpt>
      <trkpt lat="44.31314" lon="3.20307">
        <ele>990.3</ele>
        <time>2025-09-22T14:16:03Z</time>
      </trkpt>
      <trkpt lat="44.31287" lon="3.2032">
        <ele>989.81</ele>
        <time>2025-09-22T14:15:44Z</time>
      </trkpt>
      <trkpt lat="44.31286" lon="3.20321">
        <ele>989.81</ele>
        <time>2025-09-22T14:15:43Z</time>
      </trkpt>
      <trkpt lat="44.31285" lon="3.20321">
        <ele>989.81</ele>
        <time>2025-09-22T14:15:42Z</time>
      </trkpt>
      <trkpt lat="44.31282" lon="3.20323">
        <ele>989.81</ele>
        <time>2025-09-22T14:15:40Z</time>
      </trkpt>
      <trkpt lat="44.31258" lon="3.20334">
        <ele>988.85</ele>
        <time>2025-09-22T14:15:22Z</time>
      </trkpt>
      <trkpt lat="44.3123" lon="3.20345">
        <ele>986.45</ele>
        <time>2025-09-22T14:15:02Z</time>
      </trkpt>
      <trkpt lat="44.31203" lon="3.20349">
        <ele>985.49</ele>
        <time>2025-09-22T14:14:44Z</time>
      </trkpt>
      <trkpt lat="44.31179" lon="3.20347">
        <ele>983.57</ele>
        <time>2025-09-22T14:14:28Z</time>
      </trkpt>
      <trkpt lat="44.31153" lon="3.20351">
        <ele>983.57</ele>
        <time>2025-09-22T14:14:09Z</time>
      </trkpt>
      <trkpt lat="44.31133" lon="3.20357">
        <ele>982.6</ele>
        <time>2025-09-22T14:13:54Z</time>
      </trkpt>
      <trkpt lat="44.31108" lon="3.20366">
        <ele>981.64</ele>
        <time>2025-09-22T14:13:35Z</time>
      </trkpt>
      <trkpt lat="44.31087" lon="3.20382">
        <ele>981.16</ele>
        <time>2025-09-22T14:13:17Z</time>
      </trkpt>
      <trkpt lat="44.31065" lon="3.20393">
        <ele>979.72</ele>
        <time>2025-09-22T14:12:59Z</time>
      </trkpt>
      <trkpt lat="44.31047" lon="3.20403">
        <ele>979.72</ele>
        <time>2025-09-22T14:12:43Z</time>
      </trkpt>
      <trkpt lat="44.31027" lon="3.20418">
        <ele>981.64</ele>
        <time>2025-09-22T14:12:26Z</time>
      </trkpt>
      <trkpt lat="44.31026" lon="3.20419">
        <ele>981.64</ele>
        <time>2025-09-22T14:12:25Z</time>
      </trkpt>
      <trkpt lat="44.31025" lon="3.20421">
        <ele>981.64</ele>
        <time>2025-09-22T14:12:24Z</time>
      </trkpt>
      <trkpt lat="44.31025" lon="3.20435">
        <ele>982.12</ele>
        <time>2025-09-22T14:12:17Z</time>
      </trkpt>
      <trkpt lat="44.3103" lon="3.20484">
        <ele>981.64</ele>
        <time>2025-09-22T14:11:58Z</time>
      </trkpt>
      <trkpt lat="44.31038" lon="3.20507">
        <ele>978.76</ele>
        <time>2025-09-22T14:11:44Z</time>
      </trkpt>
      <trkpt lat="44.31049" lon="3.20539">
        <ele>973.95</ele>
        <time>2025-09-22T14:11:25Z</time>
      </trkpt>
      <trkpt lat="44.31057" lon="3.20564">
        <ele>968.67</ele>
        <time>2025-09-22T14:11:08Z</time>
      </trkpt>
      <trkpt lat="44.31068" lon="3.20588">
        <ele>962.9</ele>
        <time>2025-09-22T14:10:48Z</time>
      </trkpt>
      <trkpt lat="44.31085" lon="3.20606">
        <ele>960.49</ele>
        <time>2025-09-22T14:10:31Z</time>
      </trkpt>
      <trkpt lat="44.31107" lon="3.20623">
        <ele>957.61</ele>
        <time>2025-09-22T14:10:13Z</time>
      </trkpt>
      <trkpt lat="44.31124" lon="3.20638">
        <ele>953.28</ele>
        <time>2025-09-22T14:09:55Z</time>
      </trkpt>
      <trkpt lat="44.31137" lon="3.20653">
        <ele>950.4</ele>
        <time>2025-09-22T14:09:41Z</time>
      </trkpt>
      <trkpt lat="44.3116" lon="3.20655">
        <ele>947.52</ele>
        <time>2025-09-22T14:09:22Z</time>
      </trkpt>
      <trkpt lat="44.31182" lon="3.20658">
        <ele>945.11</ele>
        <time>2025-09-22T14:09:05Z</time>
      </trkpt>
      <trkpt lat="44.31207" lon="3.20661">
        <ele>941.75</ele>
        <time>2025-09-22T14:08:46Z</time>
      </trkpt>
      <trkpt lat="44.31234" lon="3.2067">
        <ele>940.79</ele>
        <time>2025-09-22T14:08:25Z</time>
      </trkpt>
      <trkpt lat="44.31255" lon="3.20679">
        <ele>942.23</ele>
        <time>2025-09-22T14:08:08Z</time>
      </trkpt>
      <trkpt lat="44.3128" lon="3.20689">
        <ele>943.19</ele>
        <time>2025-09-22T14:07:48Z</time>
      </trkpt>
      <trkpt lat="44.313" lon="3.20701">
        <ele>944.63</ele>
        <time>2025-09-22T14:07:32Z</time>
      </trkpt>
      <trkpt lat="44.31319" lon="3.20716">
        <ele>945.11</ele>
        <time>2025-09-22T14:07:16Z</time>
      </trkpt>
      <trkpt lat="44.31339" lon="3.20738">
        <ele>944.15</ele>
        <time>2025-09-22T14:06:58Z</time>
      </trkpt>
      <trkpt lat="44.3134" lon="3.20739">
        <ele>944.15</ele>
        <time>2025-09-22T14:06:57Z</time>
      </trkpt>
      <trkpt lat="44.31341" lon="3.2074">
        <ele>944.15</ele>
        <time>2025-09-22T14:06:56Z</time>
      </trkpt>
      <trkpt lat="44.31342" lon="3.20741">
        <ele>944.15</ele>
        <time>2025-09-22T14:06:55Z</time>
      </trkpt>
      <trkpt lat="44.31343" lon="3.20742">
        <ele>944.15</ele>
        <time>2025-09-22T14:06:54Z</time>
      </trkpt>
      <trkpt lat="44.31344" lon="3.20743">
        <ele>944.15</ele>
        <time>2025-09-22T14:06:53Z</time>
      </trkpt>
      <trkpt lat="44.31345" lon="3.20744">
        <ele>944.15</ele>
        <time>2025-09-22T14:06:52Z</time>
      </trkpt>
      <trkpt lat="44.31351" lon="3.20748">
        <ele>944.15</ele>
        <time>2025-09-22T14:06:47Z</time>
      </trkpt>
      <trkpt lat="44.31364" lon="3.20769">
        <ele>944.63</ele>
        <time>2025-09-22T14:06:31Z</time>
      </trkpt>
      <trkpt lat="44.31365" lon="3.2077">
        <ele>944.63</ele>
        <time>2025-09-22T14:06:30Z</time>
      </trkpt>
      <trkpt lat="44.31366" lon="3.20775">
        <ele>945.11</ele>
        <time>2025-09-22T14:06:27Z</time>
      </trkpt>
      <trkpt lat="44.31366" lon="3.20776">
        <ele>945.59</ele>
        <time>2025-09-22T14:06:26Z</time>
      </trkpt>
      <trkpt lat="44.31367" lon="3.20778">
        <ele>945.59</ele>
        <time>2025-09-22T14:06:25Z</time>
      </trkpt>
      <trkpt lat="44.31367" lon="3.20779">
        <ele>946.07</ele>
        <time>2025-09-22T14:06:24Z</time>
      </trkpt>
      <trkpt lat="44.31367" lon="3.20781">
        <ele>945.59</ele>
        <time>2025-09-22T14:06:23Z</time>
      </trkpt>
      <trkpt lat="44.31366" lon="3.20784">
        <ele>946.07</ele>
        <time>2025-09-22T14:06:21Z</time>
      </trkpt>
      <trkpt lat="44.31352" lon="3.20799">
        <ele>947.52</ele>
        <time>2025-09-22T14:06:09Z</time>
      </trkpt>
      <trkpt lat="44.31331" lon="3.20809">
        <ele>947.04</ele>
        <time>2025-09-22T14:05:53Z</time>
      </trkpt>
      <trkpt lat="44.31311" lon="3.20812">
        <ele>943.67</ele>
        <time>2025-09-22T14:05:39Z</time>
      </trkpt>
      <trkpt lat="44.31299" lon="3.20813">
        <ele>942.23</ele>
        <time>2025-09-22T14:05:30Z</time>
      </trkpt>
      <trkpt lat="44.31298" lon="3.20813">
        <ele>942.23</ele>
        <time>2025-09-22T14:05:29Z</time>
      </trkpt>
      <trkpt lat="44.31297" lon="3.20813">
        <ele>941.75</ele>
        <time>2025-09-22T14:05:28Z</time>
      </trkpt>
      <trkpt lat="44.3129" lon="3.20814">
        <ele>941.27</ele>
        <time>2025-09-22T14:05:23Z</time>
      </trkpt>
      <trkpt lat="44.31269" lon="3.20822">
        <ele>942.71</ele>
        <time>2025-09-22T14:05:06Z</time>
      </trkpt>
      <trkpt lat="44.31267" lon="3.20824">
        <ele>941.75</ele>
        <time>2025-09-22T14:04:53Z</time>
      </trkpt>
      <trkpt lat="44.31265" lon="3.20833">
        <ele>940.79</ele>
        <time>2025-09-22T14:04:41Z</time>
      </trkpt>
      <trkpt lat="44.31266" lon="3.20858">
        <ele>940.79</ele>
        <time>2025-09-22T14:04:27Z</time>
      </trkpt>
      <trkpt lat="44.3127" lon="3.20888">
        <ele>942.71</ele>
        <time>2025-09-22T14:04:11Z</time>
      </trkpt>
      <trkpt lat="44.31273" lon="3.2092">
        <ele>945.11</ele>
        <time>2025-09-22T14:03:53Z</time>
      </trkpt>
      <trkpt lat="44.31273" lon="3.20946">
        <ele>946.56</ele>
        <time>2025-09-22T14:03:39Z</time>
      </trkpt>
      <trkpt lat="44.31264" lon="3.2098">
        <ele>948.96</ele>
        <time>2025-09-22T14:03:21Z</time>
      </trkpt>
      <trkpt lat="44.31253" lon="3.21008">
        <ele>949.92</ele>
        <time>2025-09-22T14:03:05Z</time>
      </trkpt>
      <trkpt lat="44.31241" lon="3.21039">
        <ele>949.92</ele>
        <time>2025-09-22T14:02:48Z</time>
      </trkpt>
      <trkpt lat="44.31233" lon="3.21063">
        <ele>950.88</ele>
        <time>2025-09-22T14:02:33Z</time>
      </trkpt>
      <trkpt lat="44.31232" lon="3.21065">
        <ele>950.88</ele>
        <time>2025-09-22T14:02:32Z</time>
      </trkpt>
      <trkpt lat="44.31231" lon="3.21067">
        <ele>950.88</ele>
        <time>2025-09-22T14:02:31Z</time>
      </trkpt>
      <trkpt lat="44.3123" lon="3.21069">
        <ele>950.88</ele>
        <time>2025-09-22T14:02:30Z</time>
      </trkpt>
      <trkpt lat="44.3123" lon="3.2107">
        <ele>950.88</ele>
        <time>2025-09-22T14:02:29Z</time>
      </trkpt>
      <trkpt lat="44.31223" lon="3.21089">
        <ele>950.88</ele>
        <time>2025-09-22T14:02:19Z</time>
      </trkpt>
      <trkpt lat="44.31214" lon="3.21114">
        <ele>952.32</ele>
        <time>2025-09-22T14:02:06Z</time>
      </trkpt>
      <trkpt lat="44.31203" lon="3.21153">
        <ele>955.21</ele>
        <time>2025-09-22T14:01:50Z</time>
      </trkpt>
      <trkpt lat="44.312" lon="3.21184">
        <ele>954.25</ele>
        <time>2025-09-22T14:01:32Z</time>
      </trkpt>
      <trkpt lat="44.31201" lon="3.21193">
        <ele>952.8</ele>
        <time>2025-09-22T14:01:12Z</time>
      </trkpt>
      <trkpt lat="44.31206" lon="3.21211">
        <ele>948.48</ele>
        <time>2025-09-22T14:00:54Z</time>
      </trkpt>
      <trkpt lat="44.31207" lon="3.21215">
        <ele>943.19</ele>
        <time>2025-09-22T14:00:34Z</time>
      </trkpt>
      <trkpt lat="44.31207" lon="3.21217">
        <ele>946.56</ele>
        <time>2025-09-22T14:00:21Z</time>
      </trkpt>
      <trkpt lat="44.31213" lon="3.2126">
        <ele>946.56</ele>
        <time>2025-09-22T14:00:00Z</time>
      </trkpt>
      <trkpt lat="44.31212" lon="3.21295">
        <ele>946.56</ele>
        <time>2025-09-22T13:59:43Z</time>
      </trkpt>
      <trkpt lat="44.31209" lon="3.21331">
        <ele>946.56</ele>
        <time>2025-09-22T13:59:24Z</time>
      </trkpt>
      <trkpt lat="44.31203" lon="3.21357">
        <ele>947.52</ele>
        <time>2025-09-22T13:59:09Z</time>
      </trkpt>
      <trkpt lat="44.31202" lon="3.21358">
        <ele>947.52</ele>
        <time>2025-09-22T13:59:08Z</time>
      </trkpt>
      <trkpt lat="44.312" lon="3.21364">
        <ele>947.04</ele>
        <time>2025-09-22T13:59:04Z</time>
      </trkpt>
      <trkpt lat="44.31193" lon="3.214">
        <ele>945.11</ele>
        <time>2025-09-22T13:58:46Z</time>
      </trkpt>
      <trkpt lat="44.31189" lon="3.21439">
        <ele>947.52</ele>
        <time>2025-09-22T13:58:27Z</time>
      </trkpt>
      <trkpt lat="44.31184" lon="3.21473">
        <ele>950.4</ele>
        <time>2025-09-22T13:58:09Z</time>
      </trkpt>
      <trkpt lat="44.31163" lon="3.21498">
        <ele>952.8</ele>
        <time>2025-09-22T13:57:50Z</time>
      </trkpt>
      <trkpt lat="44.31148" lon="3.21525">
        <ele>954.73</ele>
        <time>2025-09-22T13:57:32Z</time>
      </trkpt>
      <trkpt lat="44.31143" lon="3.21558">
        <ele>956.17</ele>
        <time>2025-09-22T13:57:15Z</time>
      </trkpt>
      <trkpt lat="44.31144" lon="3.21596">
        <ele>957.61</ele>
        <time>2025-09-22T13:56:58Z</time>
      </trkpt>
      <trkpt lat="44.31151" lon="3.21625">
        <ele>958.57</ele>
        <time>2025-09-22T13:56:42Z</time>
      </trkpt>
      <trkpt lat="44.31161" lon="3.21654">
        <ele>959.53</ele>
        <time>2025-09-22T13:56:25Z</time>
      </trkpt>
      <trkpt lat="44.31167" lon="3.21688">
        <ele>960.49</ele>
        <time>2025-09-22T13:56:07Z</time>
      </trkpt>
      <trkpt lat="44.31178" lon="3.21721">
        <ele>962.42</ele>
        <time>2025-09-22T13:55:49Z</time>
      </trkpt>
      <trkpt lat="44.31185" lon="3.21752">
        <ele>961.94</ele>
        <time>2025-09-22T13:55:32Z</time>
      </trkpt>
      <trkpt lat="44.31193" lon="3.21783">
        <ele>962.42</ele>
        <time>2025-09-22T13:55:15Z</time>
      </trkpt>
      <trkpt lat="44.31198" lon="3.21809">
        <ele>963.38</ele>
        <time>2025-09-22T13:55:00Z</time>
      </trkpt>
      <trkpt lat="44.31205" lon="3.21841">
        <ele>965.3</ele>
        <time>2025-09-22T13:54:42Z</time>
      </trkpt>
      <trkpt lat="44.31205" lon="3.21843">
        <ele>965.78</ele>
        <time>2025-09-22T13:54:41Z</time>
      </trkpt>
      <trkpt lat="44.31206" lon="3.21845">
        <ele>965.78</ele>
        <time>2025-09-22T13:54:40Z</time>
      </trkpt>
      <trkpt lat="44.31208" lon="3.21874">
        <ele>969.63</ele>
        <time>2025-09-22T13:54:23Z</time>
      </trkpt>
      <trkpt lat="44.31202" lon="3.21899">
        <ele>972.03</ele>
        <time>2025-09-22T13:54:07Z</time>
      </trkpt>
      <trkpt lat="44.31197" lon="3.21932">
        <ele>973.47</ele>
        <time>2025-09-22T13:53:48Z</time>
      </trkpt>
      <trkpt lat="44.31195" lon="3.21968">
        <ele>974.91</ele>
        <time>2025-09-22T13:53:29Z</time>
      </trkpt>
      <trkpt lat="44.31196" lon="3.2199">
        <ele>974.91</ele>
        <time>2025-09-22T13:53:17Z</time>
      </trkpt>
      <trkpt lat="44.31202" lon="3.22025">
        <ele>974.43</ele>
        <time>2025-09-22T13:52:59Z</time>
      </trkpt>
      <trkpt lat="44.31215" lon="3.22059">
        <ele>972.99</ele>
        <time>2025-09-22T13:52:38Z</time>
      </trkpt>
      <trkpt lat="44.31227" lon="3.22085">
        <ele>971.07</ele>
        <time>2025-09-22T13:52:21Z</time>
      </trkpt>
      <trkpt lat="44.3124" lon="3.22111">
        <ele>971.55</ele>
        <time>2025-09-22T13:52:04Z</time>
      </trkpt>
      <trkpt lat="44.31252" lon="3.2213">
        <ele>971.07</ele>
        <time>2025-09-22T13:51:49Z</time>
      </trkpt>
      <trkpt lat="44.31261" lon="3.22157">
        <ele>968.67</ele>
        <time>2025-09-22T13:51:32Z</time>
      </trkpt>
      <trkpt lat="44.31263" lon="3.22188">
        <ele>965.78</ele>
        <time>2025-09-22T13:51:14Z</time>
      </trkpt>
      <trkpt lat="44.31264" lon="3.22221">
        <ele>964.34</ele>
        <time>2025-09-22T13:50:55Z</time>
      </trkpt>
      <trkpt lat="44.31266" lon="3.22249">
        <ele>962.9</ele>
        <time>2025-09-22T13:50:40Z</time>
      </trkpt>
      <trkpt lat="44.31266" lon="3.22251">
        <ele>962.42</ele>
        <time>2025-09-22T13:50:39Z</time>
      </trkpt>
      <trkpt lat="44.31267" lon="3.22253">
        <ele>962.42</ele>
        <time>2025-09-22T13:50:38Z</time>
      </trkpt>
      <trkpt lat="44.31268" lon="3.22256">
        <ele>962.42</ele>
        <time>2025-09-22T13:50:36Z</time>
      </trkpt>
      <trkpt lat="44.31268" lon="3.22258">
        <ele>961.94</ele>
        <time>2025-09-22T13:50:35Z</time>
      </trkpt>
      <trkpt lat="44.31268" lon="3.2226">
        <ele>961.94</ele>
        <time>2025-09-22T13:50:34Z</time>
      </trkpt>
      <trkpt lat="44.31265" lon="3.22286">
        <ele>961.46</ele>
        <time>2025-09-22T13:50:24Z</time>
      </trkpt>
      <trkpt lat="44.31269" lon="3.22315">
        <ele>963.86</ele>
        <time>2025-09-22T13:50:10Z</time>
      </trkpt>
      <trkpt lat="44.31273" lon="3.22351">
        <ele>965.78</ele>
        <time>2025-09-22T13:49:52Z</time>
      </trkpt>
      <trkpt lat="44.31273" lon="3.22353">
        <ele>965.78</ele>
        <time>2025-09-22T13:49:51Z</time>
      </trkpt>
      <trkpt lat="44.31275" lon="3.22386">
        <ele>967.7</ele>
        <time>2025-09-22T13:49:34Z</time>
      </trkpt>
      <trkpt lat="44.31274" lon="3.22421">
        <ele>968.67</ele>
        <time>2025-09-22T13:49:20Z</time>
      </trkpt>
      <trkpt lat="44.31272" lon="3.22454">
        <ele>968.67</ele>
        <time>2025-09-22T13:49:04Z</time>
      </trkpt>
      <trkpt lat="44.3127" lon="3.22494">
        <ele>964.34</ele>
        <time>2025-09-22T13:48:48Z</time>
      </trkpt>
      <trkpt lat="44.31272" lon="3.22525">
        <ele>960.49</ele>
        <time>2025-09-22T13:48:32Z</time>
      </trkpt>
      <trkpt lat="44.31272" lon="3.22542">
        <ele>958.09</ele>
        <time>2025-09-22T13:48:16Z</time>
      </trkpt>
      <trkpt lat="44.31274" lon="3.22553">
        <ele>958.09</ele>
        <time>2025-09-22T13:48:05Z</time>
      </trkpt>
      <trkpt lat="44.31273" lon="3.22575">
        <ele>958.09</ele>
        <time>2025-09-22T13:47:53Z</time>
      </trkpt>
      <trkpt lat="44.31271" lon="3.22583">
        <ele>958.09</ele>
        <time>2025-09-22T13:47:49Z</time>
      </trkpt>
      <trkpt lat="44.31257" lon="3.22604">
        <ele>955.69</ele>
        <time>2025-09-22T13:47:33Z</time>
      </trkpt>
      <trkpt lat="44.31245" lon="3.22628">
        <ele>955.69</ele>
        <time>2025-09-22T13:47:17Z</time>
      </trkpt>
      <trkpt lat="44.31236" lon="3.22657">
        <ele>957.61</ele>
        <time>2025-09-22T13:47:00Z</time>
      </trkpt>
      <trkpt lat="44.31225" lon="3.22686">
        <ele>960.01</ele>
        <time>2025-09-22T13:46:42Z</time>
      </trkpt>
      <trkpt lat="44.31223" lon="3.22694">
        <ele>960.98</ele>
        <time>2025-09-22T13:46:38Z</time>
      </trkpt>
      <trkpt lat="44.31212" lon="3.22717">
        <ele>964.82</ele>
        <time>2025-09-22T13:46:24Z</time>
      </trkpt>
      <trkpt lat="44.31205" lon="3.22753">
        <ele>962.9</ele>
        <time>2025-09-22T13:46:05Z</time>
      </trkpt>
      <trkpt lat="44.31202" lon="3.2278">
        <ele>960.98</ele>
        <time>2025-09-22T13:45:48Z</time>
      </trkpt>
      <trkpt lat="44.312" lon="3.22807">
        <ele>957.13</ele>
        <time>2025-09-22T13:45:30Z</time>
      </trkpt>
      <trkpt lat="44.31196" lon="3.22832">
        <ele>951.36</ele>
        <time>2025-09-22T13:45:13Z</time>
      </trkpt>
      <trkpt lat="44.31195" lon="3.22838">
        <ele>950.88</ele>
        <time>2025-09-22T13:44:57Z</time>
      </trkpt>
      <trkpt lat="44.31195" lon="3.22845">
        <ele>951.36</ele>
        <time>2025-09-22T13:44:43Z</time>
      </trkpt>
      <trkpt lat="44.31191" lon="3.22854">
        <ele>950.88</ele>
        <time>2025-09-22T13:44:29Z</time>
      </trkpt>
      <trkpt lat="44.31185" lon="3.22872">
        <ele>950.88</ele>
        <time>2025-09-22T13:44:12Z</time>
      </trkpt>
      <trkpt lat="44.31185" lon="3.22872">
        <ele>954.73</ele>
        <time>2025-09-22T13:43:54Z</time>
      </trkpt>
      <trkpt lat="44.31182" lon="3.22889">
        <ele>954.73</ele>
        <time>2025-09-22T13:43:38Z</time>
      </trkpt>
      <trkpt lat="44.31179" lon="3.22926">
        <ele>952.8</ele>
        <time>2025-09-22T13:43:17Z</time>
      </trkpt>
      <trkpt lat="44.31178" lon="3.22964">
        <ele>952.32</ele>
        <time>2025-09-22T13:42:57Z</time>
      </trkpt>
      <trkpt lat="44.31177" lon="3.23002">
        <ele>947.52</ele>
        <time>2025-09-22T13:42:38Z</time>
      </trkpt>
      <trkpt lat="44.3118" lon="3.23034">
        <ele>940.31</ele>
        <time>2025-09-22T13:42:19Z</time>
      </trkpt>
      <trkpt lat="44.31181" lon="3.23039">
        <ele>939.35</ele>
        <time>2025-09-22T13:42:16Z</time>
      </trkpt>
      <trkpt lat="44.31183" lon="3.23064">
        <ele>935.98</ele>
        <time>2025-09-22T13:41:59Z</time>
      </trkpt>
      <trkpt lat="44.31184" lon="3.23087">
        <ele>933.1</ele>
        <time>2025-09-22T13:41:42Z</time>
      </trkpt>
      <trkpt lat="44.31185" lon="3.23097">
        <ele>931.65</ele>
        <time>2025-09-22T13:41:35Z</time>
      </trkpt>
      <trkpt lat="44.31191" lon="3.23122">
        <ele>927.33</ele>
        <time>2025-09-22T13:41:18Z</time>
      </trkpt>
      <trkpt lat="44.31193" lon="3.23142">
        <ele>924.45</ele>
        <time>2025-09-22T13:41:03Z</time>
      </trkpt>
      <trkpt lat="44.31193" lon="3.23157">
        <ele>923.48</ele>
        <time>2025-09-22T13:40:50Z</time>
      </trkpt>
      <trkpt lat="44.31193" lon="3.23158">
        <ele>923</ele>
        <time>2025-09-22T13:40:27Z</time>
      </trkpt>
      <trkpt lat="44.31192" lon="3.23153">
        <ele>922.52</ele>
        <time>2025-09-22T13:40:09Z</time>
      </trkpt>
      <trkpt lat="44.31191" lon="3.23158">
        <ele>922.04</ele>
        <time>2025-09-22T13:39:55Z</time>
      </trkpt>
      <trkpt lat="44.31191" lon="3.23179">
        <ele>919.64</ele>
        <time>2025-09-22T13:39:40Z</time>
      </trkpt>
      <trkpt lat="44.31191" lon="3.23187">
        <ele>918.2</ele>
        <time>2025-09-22T13:39:26Z</time>
      </trkpt>
      <trkpt lat="44.31195" lon="3.23208">
        <ele>914.35</ele>
        <time>2025-09-22T13:39:10Z</time>
      </trkpt>
      <trkpt lat="44.31198" lon="3.23214">
        <ele>913.39</ele>
        <time>2025-09-22T13:39:05Z</time>
      </trkpt>
      <trkpt lat="44.312" lon="3.23216">
        <ele>912.91</ele>
        <time>2025-09-22T13:39:03Z</time>
      </trkpt>
      <trkpt lat="44.31204" lon="3.23236">
        <ele>909.06</ele>
        <time>2025-09-22T13:38:48Z</time>
      </trkpt>
      <trkpt lat="44.31208" lon="3.23263">
        <ele>905.7</ele>
        <time>2025-09-22T13:38:31Z</time>
      </trkpt>
      <trkpt lat="44.31212" lon="3.23288">
        <ele>902.82</ele>
        <time>2025-09-22T13:38:16Z</time>
      </trkpt>
      <trkpt lat="44.31211" lon="3.23316">
        <ele>898.97</ele>
        <time>2025-09-22T13:37:59Z</time>
      </trkpt>
      <trkpt lat="44.31205" lon="3.23344">
        <ele>896.57</ele>
        <time>2025-09-22T13:37:42Z</time>
      </trkpt>
      <trkpt lat="44.31194" lon="3.2337">
        <ele>894.16</ele>
        <time>2025-09-22T13:37:24Z</time>
      </trkpt>
      <trkpt lat="44.31188" lon="3.2338">
        <ele>894.16</ele>
        <time>2025-09-22T13:37:11Z</time>
      </trkpt>
      <trkpt lat="44.31186" lon="3.23384">
        <ele>893.68</ele>
        <time>2025-09-22T13:36:54Z</time>
      </trkpt>
      <trkpt lat="44.31181" lon="3.23398">
        <ele>889.84</ele>
        <time>2025-09-22T13:36:36Z</time>
      </trkpt>
      <trkpt lat="44.31181" lon="3.23403">
        <ele>888.4</ele>
        <time>2025-09-22T13:36:32Z</time>
      </trkpt>
      <trkpt lat="44.31184" lon="3.23412">
        <ele>887.43</ele>
        <time>2025-09-22T13:36:12Z</time>
      </trkpt>
      <trkpt lat="44.31185" lon="3.23411">
        <ele>887.43</ele>
        <time>2025-09-22T13:36:00Z</time>
      </trkpt>
      <trkpt lat="44.31187" lon="3.2341">
        <ele>887.43</ele>
        <time>2025-09-22T13:35:46Z</time>
      </trkpt>
      <trkpt lat="44.31192" lon="3.23405">
        <ele>888.88</ele>
        <time>2025-09-22T13:35:30Z</time>
      </trkpt>
      <trkpt lat="44.31197" lon="3.23404">
        <ele>889.36</ele>
        <time>2025-09-22T13:35:23Z</time>
      </trkpt>
      <trkpt lat="44.31197" lon="3.23404">
        <ele>889.36</ele>
        <time>2025-09-22T13:35:22Z</time>
      </trkpt>
      <trkpt lat="44.31186" lon="3.23413">
        <ele>889.84</ele>
        <time>2025-09-22T13:35:07Z</time>
      </trkpt>
      <trkpt lat="44.3118" lon="3.2342">
        <ele>889.84</ele>
        <time>2025-09-22T13:34:54Z</time>
      </trkpt>
      <trkpt lat="44.31156" lon="3.23446">
        <ele>889.84</ele>
        <time>2025-09-22T13:34:31Z</time>
      </trkpt>
      <trkpt lat="44.31134" lon="3.23462">
        <ele>890.32</ele>
        <time>2025-09-22T13:34:13Z</time>
      </trkpt>
      <trkpt lat="44.31112" lon="3.23463">
        <ele>890.32</ele>
        <time>2025-09-22T13:33:57Z</time>
      </trkpt>
      <trkpt lat="44.31111" lon="3.23469">
        <ele>889.84</ele>
        <time>2025-09-22T13:33:53Z</time>
      </trkpt>
      <trkpt lat="44.31121" lon="3.23482">
        <ele>888.4</ele>
        <time>2025-09-22T13:33:42Z</time>
      </trkpt>
      <trkpt lat="44.31127" lon="3.23489">
        <ele>886.95</ele>
        <time>2025-09-22T13:33:35Z</time>
      </trkpt>
      <trkpt lat="44.3113" lon="3.23497">
        <ele>885.51</ele>
        <time>2025-09-22T13:33:29Z</time>
      </trkpt>
      <trkpt lat="44.31134" lon="3.2352">
        <ele>881.67</ele>
        <time>2025-09-22T13:33:13Z</time>
      </trkpt>
      <trkpt lat="44.31134" lon="3.23527">
        <ele>881.19</ele>
        <time>2025-09-22T13:33:09Z</time>
      </trkpt>
      <trkpt lat="44.31143" lon="3.23539">
        <ele>878.78</ele>
        <time>2025-09-22T13:32:58Z</time>
      </trkpt>
      <trkpt lat="44.31146" lon="3.23545">
        <ele>877.82</ele>
        <time>2025-09-22T13:32:53Z</time>
      </trkpt>
      <trkpt lat="44.31149" lon="3.23549">
        <ele>876.38</ele>
        <time>2025-09-22T13:32:49Z</time>
      </trkpt>
      <trkpt lat="44.31159" lon="3.23567">
        <ele>872.53</ele>
        <time>2025-09-22T13:32:34Z</time>
      </trkpt>
      <trkpt lat="44.31167" lon="3.23581">
        <ele>870.13</ele>
        <time>2025-09-22T13:32:19Z</time>
      </trkpt>
      <trkpt lat="44.31166" lon="3.23595">
        <ele>868.69</ele>
        <time>2025-09-22T13:32:09Z</time>
      </trkpt>
      <trkpt lat="44.31166" lon="3.23628">
        <ele>864.36</ele>
        <time>2025-09-22T13:31:50Z</time>
      </trkpt>
      <trkpt lat="44.31165" lon="3.23654">
        <ele>861</ele>
        <time>2025-09-22T13:31:36Z</time>
      </trkpt>
      <trkpt lat="44.31166" lon="3.23682">
        <ele>858.59</ele>
        <time>2025-09-22T13:31:20Z</time>
      </trkpt>
      <trkpt lat="44.31165" lon="3.23691">
        <ele>857.15</ele>
        <time>2025-09-22T13:31:15Z</time>
      </trkpt>
      <trkpt lat="44.31164" lon="3.23722">
        <ele>856.19</ele>
        <time>2025-09-22T13:30:58Z</time>
      </trkpt>
      <trkpt lat="44.31162" lon="3.23739">
        <ele>851.38</ele>
        <time>2025-09-22T13:30:39Z</time>
      </trkpt>
      <trkpt lat="44.31164" lon="3.23739">
        <ele>851.38</ele>
        <time>2025-09-22T13:30:22Z</time>
      </trkpt>
      <trkpt lat="44.31169" lon="3.23735">
        <ele>852.35</ele>
        <time>2025-09-22T13:30:10Z</time>
      </trkpt>
      <trkpt lat="44.31167" lon="3.23731">
        <ele>853.79</ele>
        <time>2025-09-22T13:29:45Z</time>
      </trkpt>
      <trkpt lat="44.31167" lon="3.23732">
        <ele>853.79</ele>
        <time>2025-09-22T13:29:21Z</time>
      </trkpt>
      <trkpt lat="44.31169" lon="3.23735">
        <ele>852.35</ele>
        <time>2025-09-22T13:29:00Z</time>
      </trkpt>
      <trkpt lat="44.31168" lon="3.23734">
        <ele>854.27</ele>
        <time>2025-09-22T13:28:43Z</time>
      </trkpt>
      <trkpt lat="44.31166" lon="3.23734">
        <ele>854.75</ele>
        <time>2025-09-22T13:28:29Z</time>
      </trkpt>
      <trkpt lat="44.31168" lon="3.23734">
        <ele>854.75</ele>
        <time>2025-09-22T13:28:09Z</time>
      </trkpt>
      <trkpt lat="44.31168" lon="3.23735">
        <ele>854.75</ele>
        <time>2025-09-22T13:27:46Z</time>
      </trkpt>
      <trkpt lat="44.31164" lon="3.23737">
        <ele>855.23</ele>
        <time>2025-09-22T13:27:32Z</time>
      </trkpt>
      <trkpt lat="44.3116" lon="3.23736">
        <ele>855.71</ele>
        <time>2025-09-22T13:27:18Z</time>
      </trkpt>
      <trkpt lat="44.31159" lon="3.23738">
        <ele>855.23</ele>
        <time>2025-09-22T13:27:04Z</time>
      </trkpt>
      <trkpt lat="44.31165" lon="3.23739">
        <ele>855.71</ele>
        <time>2025-09-22T13:26:51Z</time>
      </trkpt>
      <trkpt lat="44.3117" lon="3.23745">
        <ele>855.23</ele>
        <time>2025-09-22T13:26:37Z</time>
      </trkpt>
      <trkpt lat="44.31171" lon="3.23754">
        <ele>854.27</ele>
        <time>2025-09-22T13:26:23Z</time>
      </trkpt>
      <trkpt lat="44.31171" lon="3.23772">
        <ele>854.27</ele>
        <time>2025-09-22T13:26:07Z</time>
      </trkpt>
      <trkpt lat="44.31174" lon="3.23808">
        <ele>852.35</ele>
        <time>2025-09-22T13:25:45Z</time>
      </trkpt>
      <trkpt lat="44.31178" lon="3.23842">
        <ele>849.46</ele>
        <time>2025-09-22T13:25:25Z</time>
      </trkpt>
      <trkpt lat="44.3118" lon="3.2386">
        <ele>849.46</ele>
        <time>2025-09-22T13:25:14Z</time>
      </trkpt>
      <trkpt lat="44.3118" lon="3.23897">
        <ele>846.1</ele>
        <time>2025-09-22T13:24:54Z</time>
      </trkpt>
      <trkpt lat="44.31185" lon="3.23925">
        <ele>844.66</ele>
        <time>2025-09-22T13:24:33Z</time>
      </trkpt>
      <trkpt lat="44.31189" lon="3.23943">
        <ele>842.25</ele>
        <time>2025-09-22T13:24:18Z</time>
      </trkpt>
      <trkpt lat="44.31194" lon="3.23958">
        <ele>840.81</ele>
        <time>2025-09-22T13:24:01Z</time>
      </trkpt>
      <trkpt lat="44.31195" lon="3.23964">
        <ele>841.29</ele>
        <time>2025-09-22T13:23:44Z</time>
      </trkpt>
      <trkpt lat="44.31194" lon="3.23968">
        <ele>841.29</ele>
        <time>2025-09-22T13:23:25Z</time>
      </trkpt>
      <trkpt lat="44.31196" lon="3.23979">
        <ele>840.81</ele>
        <time>2025-09-22T13:23:08Z</time>
      </trkpt>
      <trkpt lat="44.31197" lon="3.23993">
        <ele>840.33</ele>
        <time>2025-09-22T13:22:56Z</time>
      </trkpt>
      <trkpt lat="44.31192" lon="3.24019">
        <ele>841.29</ele>
        <time>2025-09-22T13:22:40Z</time>
      </trkpt>
      <trkpt lat="44.31189" lon="3.24048">
        <ele>841.77</ele>
        <time>2025-09-22T13:22:23Z</time>
      </trkpt>
      <trkpt lat="44.31182" lon="3.24076">
        <ele>844.66</ele>
        <time>2025-09-22T13:22:07Z</time>
      </trkpt>
      <trkpt lat="44.31177" lon="3.24105">
        <ele>848.02</ele>
        <time>2025-09-22T13:21:50Z</time>
      </trkpt>
      <trkpt lat="44.31173" lon="3.2413">
        <ele>850.42</ele>
        <time>2025-09-22T13:21:34Z</time>
      </trkpt>
      <trkpt lat="44.31172" lon="3.24134">
        <ele>850.42</ele>
        <time>2025-09-22T13:21:31Z</time>
      </trkpt>
      <trkpt lat="44.31172" lon="3.24137">
        <ele>850.42</ele>
        <time>2025-09-22T13:21:29Z</time>
      </trkpt>
      <trkpt lat="44.31171" lon="3.24139">
        <ele>848.98</ele>
        <time>2025-09-22T13:21:11Z</time>
      </trkpt>
      <trkpt lat="44.31172" lon="3.24139">
        <ele>847.54</ele>
        <time>2025-09-22T13:20:52Z</time>
      </trkpt>
      <trkpt lat="44.31172" lon="3.24141">
        <ele>845.62</ele>
        <time>2025-09-22T13:20:31Z</time>
      </trkpt>
      <trkpt lat="44.31172" lon="3.2414">
        <ele>845.14</ele>
        <time>2025-09-22T13:20:17Z</time>
      </trkpt>
      <trkpt lat="44.31168" lon="3.24148">
        <ele>845.14</ele>
        <time>2025-09-22T13:20:04Z</time>
      </trkpt>
      <trkpt lat="44.31174" lon="3.24153">
        <ele>845.14</ele>
        <time>2025-09-22T13:19:57Z</time>
      </trkpt>
      <trkpt lat="44.31175" lon="3.24154">
        <ele>844.66</ele>
        <time>2025-09-22T13:19:56Z</time>
      </trkpt>
      <trkpt lat="44.31193" lon="3.24159">
        <ele>846.1</ele>
        <time>2025-09-22T13:19:41Z</time>
      </trkpt>
      <trkpt lat="44.31194" lon="3.24156">
        <ele>847.54</ele>
        <time>2025-09-22T13:19:27Z</time>
      </trkpt>
      <trkpt lat="44.31194" lon="3.24156">
        <ele>847.54</ele>
        <time>2025-09-22T13:19:11Z</time>
      </trkpt>
      <trkpt lat="44.31197" lon="3.24155">
        <ele>849.46</ele>
        <time>2025-09-22T13:18:55Z</time>
      </trkpt>
      <trkpt lat="44.31198" lon="3.24156">
        <ele>849.94</ele>
        <time>2025-09-22T13:18:33Z</time>
      </trkpt>
      <trkpt lat="44.31202" lon="3.24152">
        <ele>851.87</ele>
        <time>2025-09-22T13:18:13Z</time>
      </trkpt>
      <trkpt lat="44.31199" lon="3.24153">
        <ele>849.94</ele>
        <time>2025-09-22T13:17:55Z</time>
      </trkpt>
      <trkpt lat="44.31196" lon="3.24155">
        <ele>849.94</ele>
        <time>2025-09-22T13:17:39Z</time>
      </trkpt>
      <trkpt lat="44.31199" lon="3.2416">
        <ele>849.94</ele>
        <time>2025-09-22T13:17:19Z</time>
      </trkpt>
      <trkpt lat="44.31199" lon="3.24161">
        <ele>849.46</ele>
        <time>2025-09-22T13:17:08Z</time>
      </trkpt>
      <trkpt lat="44.31201" lon="3.24162">
        <ele>848.02</ele>
        <time>2025-09-22T13:16:54Z</time>
      </trkpt>
      <trkpt lat="44.31202" lon="3.24166">
        <ele>848.5</ele>
        <time>2025-09-22T13:16:39Z</time>
      </trkpt>
      <trkpt lat="44.31209" lon="3.24171">
        <ele>848.02</ele>
        <time>2025-09-22T13:16:25Z</time>
      </trkpt>
      <trkpt lat="44.31219" lon="3.24177">
        <ele>848.02</ele>
        <time>2025-09-22T13:16:09Z</time>
      </trkpt>
      <trkpt lat="44.31216" lon="3.24177">
        <ele>847.54</ele>
        <time>2025-09-22T13:15:49Z</time>
      </trkpt>
      <trkpt lat="44.31213" lon="3.24175">
        <ele>848.5</ele>
        <time>2025-09-22T13:15:26Z</time>
      </trkpt>
      <trkpt lat="44.31216" lon="3.24179">
        <ele>845.62</ele>
        <time>2025-09-22T13:14:55Z</time>
      </trkpt>
      <trkpt lat="44.31214" lon="3.2418">
        <ele>847.06</ele>
        <time>2025-09-22T13:14:30Z</time>
      </trkpt>
      <trkpt lat="44.31214" lon="3.24175">
        <ele>850.42</ele>
        <time>2025-09-22T13:14:09Z</time>
      </trkpt>
      <trkpt lat="44.31212" lon="3.24174">
        <ele>853.79</ele>
        <time>2025-09-22T13:13:44Z</time>
      </trkpt>
      <trkpt lat="44.3121" lon="3.24172">
        <ele>854.27</ele>
        <time>2025-09-22T13:13:22Z</time>
      </trkpt>
      <trkpt lat="44.31209" lon="3.24172">
        <ele>853.79</ele>
        <time>2025-09-22T13:13:06Z</time>
      </trkpt>
      <trkpt lat="44.31209" lon="3.24172">
        <ele>851.38</ele>
        <time>2025-09-22T13:12:51Z</time>
      </trkpt>
      <trkpt lat="44.31211" lon="3.24168">
        <ele>848.98</ele>
        <time>2025-09-22T13:12:31Z</time>
      </trkpt>
      <trkpt lat="44.31214" lon="3.24169">
        <ele>848.98</ele>
        <time>2025-09-22T12:04:35Z</time>
      </trkpt>
      <trkpt lat="44.3121" lon="3.24168">
        <ele>845.62</ele>
        <time>2025-09-22T12:04:17Z</time>
      </trkpt>
      <trkpt lat="44.31213" lon="3.24167">
        <ele>844.66</ele>
        <time>2025-09-22T12:03:48Z</time>
      </trkpt>
      <trkpt lat="44.31215" lon="3.24171">
        <ele>848.98</ele>
        <time>2025-09-22T12:03:17Z</time>
      </trkpt>
      <trkpt lat="44.31213" lon="3.24167">
        <ele>848.98</ele>
        <time>2025-09-22T12:02:51Z</time>
      </trkpt>
      <trkpt lat="44.31213" lon="3.24165">
        <ele>848.98</ele>
        <time>2025-09-22T12:02:23Z</time>
      </trkpt>
      <trkpt lat="44.31213" lon="3.24167">
        <ele>851.38</ele>
        <time>2025-09-22T12:02:07Z</time>
      </trkpt>
      <trkpt lat="44.31209" lon="3.24171">
        <ele>851.38</ele>
        <time>2025-09-22T12:01:45Z</time>
      </trkpt>
      <trkpt lat="44.31209" lon="3.24171">
        <ele>850.9</ele>
        <time>2025-09-22T12:01:29Z</time>
      </trkpt>
      <trkpt lat="44.31211" lon="3.24164">
        <ele>852.83</ele>
        <time>2025-09-22T12:01:15Z</time>
      </trkpt>
      <trkpt lat="44.31204" lon="3.2417">
        <ele>853.79</ele>
        <time>2025-09-22T12:00:55Z</time>
      </trkpt>
      <trkpt lat="44.31205" lon="3.24166">
        <ele>853.79</ele>
        <time>2025-09-22T12:00:23Z</time>
      </trkpt>
      <trkpt lat="44.31205" lon="3.24166">
        <ele>852.83</ele>
        <time>2025-09-22T12:00:01Z</time>
      </trkpt>
      <trkpt lat="44.31206" lon="3.24169">
        <ele>851.87</ele>
        <time>2025-09-22T11:59:39Z</time>
      </trkpt>
      <trkpt lat="44.31207" lon="3.24172">
        <ele>851.87</ele>
        <time>2025-09-22T11:59:17Z</time>
      </trkpt>
      <trkpt lat="44.31209" lon="3.24175">
        <ele>852.35</ele>
        <time>2025-09-22T11:59:02Z</time>
      </trkpt>
      <trkpt lat="44.31209" lon="3.24168">
        <ele>852.35</ele>
        <time>2025-09-22T11:58:42Z</time>
      </trkpt>
      <trkpt lat="44.3121" lon="3.24169">
        <ele>851.87</ele>
        <time>2025-09-22T11:58:21Z</time>
      </trkpt>
      <trkpt lat="44.31213" lon="3.2417">
        <ele>851.87</ele>
        <time>2025-09-22T11:58:07Z</time>
      </trkpt>
      <trkpt lat="44.31212" lon="3.24168">
        <ele>851.87</ele>
        <time>2025-09-22T11:57:45Z</time>
      </trkpt>
      <trkpt lat="44.31212" lon="3.24167">
        <ele>851.38</ele>
        <time>2025-09-22T11:57:23Z</time>
      </trkpt>
      <trkpt lat="44.31214" lon="3.2417">
        <ele>851.38</ele>
        <time>2025-09-22T11:57:00Z</time>
      </trkpt>
      <trkpt lat="44.31217" lon="3.24164">
        <ele>850.42</ele>
        <time>2025-09-22T11:56:45Z</time>
      </trkpt>
      <trkpt lat="44.31216" lon="3.24163">
        <ele>850.42</ele>
        <time>2025-09-22T11:56:44Z</time>
      </trkpt>
      <trkpt lat="44.31216" lon="3.24161">
        <ele>849.46</ele>
        <time>2025-09-22T11:56:20Z</time>
      </trkpt>
      <trkpt lat="44.31213" lon="3.2416">
        <ele>849.94</ele>
        <time>2025-09-22T11:56:03Z</time>
      </trkpt>
      <trkpt lat="44.31214" lon="3.24167">
        <ele>850.9</ele>
        <time>2025-09-22T11:55:49Z</time>
      </trkpt>
      <trkpt lat="44.31216" lon="3.24163">
        <ele>849.94</ele>
        <time>2025-09-22T11:55:33Z</time>
      </trkpt>
      <trkpt lat="44.31215" lon="3.24163">
        <ele>848.98</ele>
        <time>2025-09-22T11:55:18Z</time>
      </trkpt>
      <trkpt lat="44.31214" lon="3.24163">
        <ele>849.94</ele>
        <time>2025-09-22T11:54:59Z</time>
      </trkpt>
      <trkpt lat="44.31213" lon="3.24159">
        <ele>851.87</ele>
        <time>2025-09-22T11:54:45Z</time>
      </trkpt>
      <trkpt lat="44.31216" lon="3.24162">
        <ele>850.9</ele>
        <time>2025-09-22T11:54:30Z</time>
      </trkpt>
      <trkpt lat="44.31215" lon="3.24162">
        <ele>849.46</ele>
        <time>2025-09-22T11:54:17Z</time>
      </trkpt>
      <trkpt lat="44.31213" lon="3.24156">
        <ele>850.9</ele>
        <time>2025-09-22T11:54:02Z</time>
      </trkpt>
      <trkpt lat="44.31214" lon="3.24159">
        <ele>851.38</ele>
        <time>2025-09-22T11:53:43Z</time>
      </trkpt>
      <trkpt lat="44.31214" lon="3.24161">
        <ele>850.42</ele>
        <time>2025-09-22T11:53:16Z</time>
      </trkpt>
      <trkpt lat="44.31215" lon="3.24161">
        <ele>850.42</ele>
        <time>2025-09-22T11:52:51Z</time>
      </trkpt>
      <trkpt lat="44.31216" lon="3.24162">
        <ele>851.87</ele>
        <time>2025-09-22T11:52:33Z</time>
      </trkpt>
      <trkpt lat="44.31215" lon="3.24161">
        <ele>852.35</ele>
        <time>2025-09-22T11:52:18Z</time>
      </trkpt>
      <trkpt lat="44.31216" lon="3.24165">
        <ele>855.23</ele>
        <time>2025-09-22T11:52:01Z</time>
      </trkpt>
      <trkpt lat="44.31214" lon="3.24166">
        <ele>857.15</ele>
        <time>2025-09-22T11:51:44Z</time>
      </trkpt>
      <trkpt lat="44.31213" lon="3.24167">
        <ele>857.15</ele>
        <time>2025-09-22T11:51:31Z</time>
      </trkpt>
      <trkpt lat="44.31207" lon="3.24184">
        <ele>858.11</ele>
        <time>2025-09-22T11:51:16Z</time>
      </trkpt>
      <trkpt lat="44.31203" lon="3.24194">
        <ele>858.59</ele>
        <time>2025-09-22T11:51:08Z</time>
      </trkpt>
      <trkpt lat="44.31194" lon="3.24212">
        <ele>857.63</ele>
        <time>2025-09-22T11:50:53Z</time>
      </trkpt>
      <trkpt lat="44.31187" lon="3.24218">
        <ele>857.15</ele>
        <time>2025-09-22T11:50:44Z</time>
      </trkpt>
      <trkpt lat="44.31187" lon="3.24218">
        <ele>856.67</ele>
        <time>2025-09-22T11:50:24Z</time>
      </trkpt>
      <trkpt lat="44.31187" lon="3.24218">
        <ele>855.23</ele>
        <time>2025-09-22T11:50:01Z</time>
      </trkpt>
      <trkpt lat="44.31188" lon="3.2422">
        <ele>854.75</ele>
        <time>2025-09-22T11:49:47Z</time>
      </trkpt>
      <trkpt lat="44.31188" lon="3.24222">
        <ele>854.27</ele>
        <time>2025-09-22T11:49:34Z</time>
      </trkpt>
      <trkpt lat="44.31187" lon="3.24226">
        <ele>854.27</ele>
        <time>2025-09-22T11:49:20Z</time>
      </trkpt>
      <trkpt lat="44.31189" lon="3.24227">
        <ele>853.31</ele>
        <time>2025-09-22T11:49:01Z</time>
      </trkpt>
      <trkpt lat="44.31191" lon="3.24211">
        <ele>852.83</ele>
        <time>2025-09-22T11:48:44Z</time>
      </trkpt>
      <trkpt lat="44.31188" lon="3.24206">
        <ele>852.35</ele>
        <time>2025-09-22T11:48:27Z</time>
      </trkpt>
      <trkpt lat="44.31189" lon="3.24205">
        <ele>852.83</ele>
        <time>2025-09-22T11:48:15Z</time>
      </trkpt>
      <trkpt lat="44.31186" lon="3.24206">
        <ele>851.87</ele>
        <time>2025-09-22T11:48:02Z</time>
      </trkpt>
      <trkpt lat="44.31186" lon="3.24206">
        <ele>852.83</ele>
        <time>2025-09-22T11:47:42Z</time>
      </trkpt>
      <trkpt lat="44.31187" lon="3.24205">
        <ele>851.38</ele>
        <time>2025-09-22T11:47:15Z</time>
      </trkpt>
      <trkpt lat="44.31192" lon="3.24206">
        <ele>852.83</ele>
        <time>2025-09-22T11:47:02Z</time>
      </trkpt>
      <trkpt lat="44.31189" lon="3.24203">
        <ele>852.35</ele>
        <time>2025-09-22T11:46:45Z</time>
      </trkpt>
      <trkpt lat="44.31174" lon="3.24191">
        <ele>849.94</ele>
        <time>2025-09-22T11:46:28Z</time>
      </trkpt>
      <trkpt lat="44.31164" lon="3.24155">
        <ele>844.66</ele>
        <time>2025-09-22T11:46:07Z</time>
      </trkpt>
      <trkpt lat="44.3117" lon="3.24122">
        <ele>840.33</ele>
        <time>2025-09-22T11:45:48Z</time>
      </trkpt>
      <trkpt lat="44.31179" lon="3.24082">
        <ele>837.93</ele>
        <time>2025-09-22T11:45:26Z</time>
      </trkpt>
      <trkpt lat="44.31184" lon="3.24049">
        <ele>837.45</ele>
        <time>2025-09-22T11:45:07Z</time>
      </trkpt>
      <trkpt lat="44.31187" lon="3.24019">
        <ele>836.48</ele>
        <time>2025-09-22T11:44:50Z</time>
      </trkpt>
      <trkpt lat="44.31191" lon="3.23983">
        <ele>835.52</ele>
        <time>2025-09-22T11:44:31Z</time>
      </trkpt>
      <trkpt lat="44.31188" lon="3.2395">
        <ele>837.93</ele>
        <time>2025-09-22T11:44:14Z</time>
      </trkpt>
      <trkpt lat="44.31183" lon="3.23916">
        <ele>841.29</ele>
        <time>2025-09-22T11:43:57Z</time>
      </trkpt>
      <trkpt lat="44.31178" lon="3.23889">
        <ele>843.69</ele>
        <time>2025-09-22T11:43:42Z</time>
      </trkpt>
      <trkpt lat="44.31176" lon="3.23858">
        <ele>845.14</ele>
        <time>2025-09-22T11:43:25Z</time>
      </trkpt>
      <trkpt lat="44.31171" lon="3.23817">
        <ele>847.06</ele>
        <time>2025-09-22T11:43:05Z</time>
      </trkpt>
      <trkpt lat="44.31168" lon="3.23795">
        <ele>846.58</ele>
        <time>2025-09-22T11:42:48Z</time>
      </trkpt>
      <trkpt lat="44.31166" lon="3.23766">
        <ele>846.58</ele>
        <time>2025-09-22T11:42:30Z</time>
      </trkpt>
      <trkpt lat="44.31164" lon="3.23744">
        <ele>848.02</ele>
        <time>2025-09-22T11:42:14Z</time>
      </trkpt>
      <trkpt lat="44.31164" lon="3.23716">
        <ele>849.46</ele>
        <time>2025-09-22T11:41:57Z</time>
      </trkpt>
      <trkpt lat="44.31165" lon="3.23676">
        <ele>850.9</ele>
        <time>2025-09-22T11:41:38Z</time>
      </trkpt>
      <trkpt lat="44.31168" lon="3.23641">
        <ele>852.35</ele>
        <time>2025-09-22T11:41:21Z</time>
      </trkpt>
      <trkpt lat="44.31164" lon="3.23622">
        <ele>855.71</ele>
        <time>2025-09-22T11:41:06Z</time>
      </trkpt>
      <trkpt lat="44.31166" lon="3.23612">
        <ele>857.15</ele>
        <time>2025-09-22T11:41:00Z</time>
      </trkpt>
      <trkpt lat="44.31166" lon="3.2361">
        <ele>857.63</ele>
        <time>2025-09-22T11:40:58Z</time>
      </trkpt>
      <trkpt lat="44.31166" lon="3.23585">
        <ele>860.04</ele>
        <time>2025-09-22T11:40:43Z</time>
      </trkpt>
      <trkpt lat="44.31166" lon="3.23579">
        <ele>860.04</ele>
        <time>2025-09-22T11:40:39Z</time>
      </trkpt>
      <trkpt lat="44.31157" lon="3.23568">
        <ele>859.08</ele>
        <time>2025-09-22T11:40:29Z</time>
      </trkpt>
      <trkpt lat="44.31148" lon="3.23551">
        <ele>866.29</ele>
        <time>2025-09-22T11:40:15Z</time>
      </trkpt>
      <trkpt lat="44.3114" lon="3.23537">
        <ele>872.53</ele>
        <time>2025-09-22T11:40:01Z</time>
      </trkpt>
      <trkpt lat="44.31132" lon="3.23514">
        <ele>876.86</ele>
        <time>2025-09-22T11:39:44Z</time>
      </trkpt>
      <trkpt lat="44.31129" lon="3.23492">
        <ele>882.63</ele>
        <time>2025-09-22T11:39:29Z</time>
      </trkpt>
      <trkpt lat="44.31116" lon="3.23475">
        <ele>885.51</ele>
        <time>2025-09-22T11:39:13Z</time>
      </trkpt>
      <trkpt lat="44.31107" lon="3.23457">
        <ele>887.43</ele>
        <time>2025-09-22T11:38:59Z</time>
      </trkpt>
      <trkpt lat="44.31096" lon="3.2344">
        <ele>886.47</ele>
        <time>2025-09-22T11:38:45Z</time>
      </trkpt>
      <trkpt lat="44.31081" lon="3.23419">
        <ele>886.47</ele>
        <time>2025-09-22T11:38:29Z</time>
      </trkpt>
      <trkpt lat="44.3107" lon="3.23408">
        <ele>885.51</ele>
        <time>2025-09-22T11:38:21Z</time>
      </trkpt>
      <trkpt lat="44.31061" lon="3.23401">
        <ele>887.91</ele>
        <time>2025-09-22T11:38:13Z</time>
      </trkpt>
      <trkpt lat="44.31058" lon="3.23398">
        <ele>888.88</ele>
        <time>2025-09-22T11:38:05Z</time>
      </trkpt>
      <trkpt lat="44.31055" lon="3.23394">
        <ele>888.88</ele>
        <time>2025-09-22T11:37:46Z</time>
      </trkpt>
      <trkpt lat="44.31044" lon="3.2339">
        <ele>891.28</ele>
        <time>2025-09-22T11:37:32Z</time>
      </trkpt>
      <trkpt lat="44.31035" lon="3.23386">
        <ele>890.8</ele>
        <time>2025-09-22T11:37:23Z</time>
      </trkpt>
      <trkpt lat="44.31028" lon="3.23378">
        <ele>889.36</ele>
        <time>2025-09-22T11:37:04Z</time>
      </trkpt>
      <trkpt lat="44.31019" lon="3.23372">
        <ele>886.47</ele>
        <time>2025-09-22T11:36:44Z</time>
      </trkpt>
      <trkpt lat="44.31002" lon="3.23356">
        <ele>885.03</ele>
        <time>2025-09-22T11:36:25Z</time>
      </trkpt>
      <trkpt lat="44.31" lon="3.23355">
        <ele>885.03</ele>
        <time>2025-09-22T11:36:24Z</time>
      </trkpt>
      <trkpt lat="44.30988" lon="3.23342">
        <ele>883.11</ele>
        <time>2025-09-22T11:36:16Z</time>
      </trkpt>
      <trkpt lat="44.30986" lon="3.2334">
        <ele>883.11</ele>
        <time>2025-09-22T11:36:15Z</time>
      </trkpt>
      <trkpt lat="44.30984" lon="3.23337">
        <ele>882.63</ele>
        <time>2025-09-22T11:36:13Z</time>
      </trkpt>
      <trkpt lat="44.30965" lon="3.23313">
        <ele>880.71</ele>
        <time>2025-09-22T11:35:59Z</time>
      </trkpt>
      <trkpt lat="44.30964" lon="3.23311">
        <ele>880.71</ele>
        <time>2025-09-22T11:35:58Z</time>
      </trkpt>
      <trkpt lat="44.30952" lon="3.23292">
        <ele>882.15</ele>
        <time>2025-09-22T11:35:48Z</time>
      </trkpt>
      <trkpt lat="44.3094" lon="3.23269">
        <ele>887.43</ele>
        <time>2025-09-22T11:35:32Z</time>
      </trkpt>
      <trkpt lat="44.30925" lon="3.23245">
        <ele>893.68</ele>
        <time>2025-09-22T11:35:14Z</time>
      </trkpt>
      <trkpt lat="44.30915" lon="3.23234">
        <ele>895.12</ele>
        <time>2025-09-22T11:34:58Z</time>
      </trkpt>
      <trkpt lat="44.30913" lon="3.23233">
        <ele>894.64</ele>
        <time>2025-09-22T11:34:57Z</time>
      </trkpt>
      <trkpt lat="44.30896" lon="3.23221">
        <ele>891.28</ele>
        <time>2025-09-22T11:34:44Z</time>
      </trkpt>
      <trkpt lat="44.30875" lon="3.23199">
        <ele>891.76</ele>
        <time>2025-09-22T11:34:24Z</time>
      </trkpt>
      <trkpt lat="44.30858" lon="3.23179">
        <ele>895.12</ele>
        <time>2025-09-22T11:34:05Z</time>
      </trkpt>
      <trkpt lat="44.3085" lon="3.23161">
        <ele>897.05</ele>
        <time>2025-09-22T11:33:48Z</time>
      </trkpt>
      <trkpt lat="44.30847" lon="3.23154">
        <ele>896.57</ele>
        <time>2025-09-22T11:33:32Z</time>
      </trkpt>
      <trkpt lat="44.30845" lon="3.23152">
        <ele>896.57</ele>
        <time>2025-09-22T11:33:31Z</time>
      </trkpt>
      <trkpt lat="44.30844" lon="3.2315">
        <ele>896.09</ele>
        <time>2025-09-22T11:33:30Z</time>
      </trkpt>
      <trkpt lat="44.30844" lon="3.23148">
        <ele>896.09</ele>
        <time>2025-09-22T11:33:29Z</time>
      </trkpt>
      <trkpt lat="44.30843" lon="3.23146">
        <ele>895.61</ele>
        <time>2025-09-22T11:33:28Z</time>
      </trkpt>
      <trkpt lat="44.30832" lon="3.23125">
        <ele>894.64</ele>
        <time>2025-09-22T11:33:16Z</time>
      </trkpt>
      <trkpt lat="44.30814" lon="3.231">
        <ele>895.61</ele>
        <time>2025-09-22T11:32:59Z</time>
      </trkpt>
      <trkpt lat="44.30799" lon="3.23083">
        <ele>896.57</ele>
        <time>2025-09-22T11:32:46Z</time>
      </trkpt>
      <trkpt lat="44.30775" lon="3.23065">
        <ele>896.57</ele>
        <time>2025-09-22T11:32:27Z</time>
      </trkpt>
      <trkpt lat="44.30757" lon="3.23054">
        <ele>896.57</ele>
        <time>2025-09-22T11:32:13Z</time>
      </trkpt>
      <trkpt lat="44.30741" lon="3.2304">
        <ele>900.89</ele>
        <time>2025-09-22T11:31:58Z</time>
      </trkpt>
      <trkpt lat="44.30741" lon="3.23033">
        <ele>902.82</ele>
        <time>2025-09-22T11:31:54Z</time>
      </trkpt>
      <trkpt lat="44.30743" lon="3.2303">
        <ele>902.82</ele>
        <time>2025-09-22T11:31:51Z</time>
      </trkpt>
      <trkpt lat="44.30729" lon="3.23022">
        <ele>902.33</ele>
        <time>2025-09-22T11:31:34Z</time>
      </trkpt>
      <trkpt lat="44.30728" lon="3.23022">
        <ele>902.82</ele>
        <time>2025-09-22T11:31:33Z</time>
      </trkpt>
      <trkpt lat="44.30726" lon="3.23021">
        <ele>902.82</ele>
        <time>2025-09-22T11:31:32Z</time>
      </trkpt>
      <trkpt lat="44.30725" lon="3.23021">
        <ele>902.82</ele>
        <time>2025-09-22T11:31:31Z</time>
      </trkpt>
      <trkpt lat="44.30724" lon="3.2302">
        <ele>902.82</ele>
        <time>2025-09-22T11:31:30Z</time>
      </trkpt>
      <trkpt lat="44.30723" lon="3.2302">
        <ele>902.82</ele>
        <time>2025-09-22T11:31:29Z</time>
      </trkpt>
      <trkpt lat="44.30721" lon="3.2302">
        <ele>902.82</ele>
        <time>2025-09-22T11:31:28Z</time>
      </trkpt>
      <trkpt lat="44.30719" lon="3.2302">
        <ele>903.3</ele>
        <time>2025-09-22T11:31:26Z</time>
      </trkpt>
      <trkpt lat="44.30705" lon="3.23013">
        <ele>903.78</ele>
        <time>2025-09-22T11:31:14Z</time>
      </trkpt>
      <trkpt lat="44.30685" lon="3.23002">
        <ele>903.3</ele>
        <time>2025-09-22T11:30:56Z</time>
      </trkpt>
      <trkpt lat="44.30684" lon="3.23001">
        <ele>903.78</ele>
        <time>2025-09-22T11:30:55Z</time>
      </trkpt>
      <trkpt lat="44.30683" lon="3.23">
        <ele>903.78</ele>
        <time>2025-09-22T11:30:54Z</time>
      </trkpt>
      <trkpt lat="44.30682" lon="3.22998">
        <ele>903.78</ele>
        <time>2025-09-22T11:30:53Z</time>
      </trkpt>
      <trkpt lat="44.30681" lon="3.22997">
        <ele>903.78</ele>
        <time>2025-09-22T11:30:52Z</time>
      </trkpt>
      <trkpt lat="44.3068" lon="3.22995">
        <ele>903.78</ele>
        <time>2025-09-22T11:30:51Z</time>
      </trkpt>
      <trkpt lat="44.30671" lon="3.22988">
        <ele>902.82</ele>
        <time>2025-09-22T11:30:42Z</time>
      </trkpt>
      <trkpt lat="44.30652" lon="3.2298">
        <ele>900.89</ele>
        <time>2025-09-22T11:30:26Z</time>
      </trkpt>
      <trkpt lat="44.30629" lon="3.2297">
        <ele>898.97</ele>
        <time>2025-09-22T11:30:09Z</time>
      </trkpt>
      <trkpt lat="44.30612" lon="3.22966">
        <ele>897.05</ele>
        <time>2025-09-22T11:29:53Z</time>
      </trkpt>
      <trkpt lat="44.3059" lon="3.22958">
        <ele>896.57</ele>
        <time>2025-09-22T11:29:36Z</time>
      </trkpt>
      <trkpt lat="44.3057" lon="3.22958">
        <ele>896.09</ele>
        <time>2025-09-22T11:29:20Z</time>
      </trkpt>
      <trkpt lat="44.30547" lon="3.22964">
        <ele>894.64</ele>
        <time>2025-09-22T11:29:02Z</time>
      </trkpt>
      <trkpt lat="44.30522" lon="3.22967">
        <ele>894.64</ele>
        <time>2025-09-22T11:28:44Z</time>
      </trkpt>
      <trkpt lat="44.30499" lon="3.2298">
        <ele>895.61</ele>
        <time>2025-09-22T11:28:25Z</time>
      </trkpt>
      <trkpt lat="44.30477" lon="3.22995">
        <ele>897.53</ele>
        <time>2025-09-22T11:28:07Z</time>
      </trkpt>
      <trkpt lat="44.3045" lon="3.22997">
        <ele>898.01</ele>
        <time>2025-09-22T11:27:48Z</time>
      </trkpt>
      <trkpt lat="44.30426" lon="3.22995">
        <ele>899.93</ele>
        <time>2025-09-22T11:27:30Z</time>
      </trkpt>
      <trkpt lat="44.30397" lon="3.22992">
        <ele>901.85</ele>
        <time>2025-09-22T11:27:09Z</time>
      </trkpt>
      <trkpt lat="44.30374" lon="3.22994">
        <ele>903.3</ele>
        <time>2025-09-22T11:26:52Z</time>
      </trkpt>
      <trkpt lat="44.30362" lon="3.22996">
        <ele>904.74</ele>
        <time>2025-09-22T11:26:38Z</time>
      </trkpt>
      <trkpt lat="44.30359" lon="3.22996">
        <ele>902.82</ele>
        <time>2025-09-22T11:26:13Z</time>
      </trkpt>
      <trkpt lat="44.30351" lon="3.22995">
        <ele>903.78</ele>
        <time>2025-09-22T11:25:58Z</time>
      </trkpt>
      <trkpt lat="44.30329" lon="3.22998">
        <ele>904.74</ele>
        <time>2025-09-22T11:25:42Z</time>
      </trkpt>
      <trkpt lat="44.30305" lon="3.23002">
        <ele>903.78</ele>
        <time>2025-09-22T11:25:25Z</time>
      </trkpt>
      <trkpt lat="44.30282" lon="3.23">
        <ele>902.82</ele>
        <time>2025-09-22T11:25:10Z</time>
      </trkpt>
      <trkpt lat="44.30259" lon="3.22984">
        <ele>904.74</ele>
        <time>2025-09-22T11:24:51Z</time>
      </trkpt>
      <trkpt lat="44.3024" lon="3.22959">
        <ele>907.62</ele>
        <time>2025-09-22T11:24:32Z</time>
      </trkpt>
      <trkpt lat="44.30231" lon="3.22917">
        <ele>908.1</ele>
        <time>2025-09-22T11:24:10Z</time>
      </trkpt>
      <trkpt lat="44.30221" lon="3.22879">
        <ele>910.03</ele>
        <time>2025-09-22T11:23:50Z</time>
      </trkpt>
      <trkpt lat="44.30214" lon="3.22842">
        <ele>913.87</ele>
        <time>2025-09-22T11:23:31Z</time>
      </trkpt>
      <trkpt lat="44.30212" lon="3.22804">
        <ele>916.27</ele>
        <time>2025-09-22T11:23:11Z</time>
      </trkpt>
      <trkpt lat="44.30211" lon="3.22772">
        <ele>915.79</ele>
        <time>2025-09-22T11:22:55Z</time>
      </trkpt>
      <trkpt lat="44.30211" lon="3.2277">
        <ele>915.79</ele>
        <time>2025-09-22T11:22:54Z</time>
      </trkpt>
      <trkpt lat="44.30211" lon="3.22768">
        <ele>916.27</ele>
        <time>2025-09-22T11:22:53Z</time>
      </trkpt>
      <trkpt lat="44.3021" lon="3.22762">
        <ele>916.27</ele>
        <time>2025-09-22T11:22:50Z</time>
      </trkpt>
      <trkpt lat="44.30208" lon="3.22749">
        <ele>916.75</ele>
        <time>2025-09-22T11:22:43Z</time>
      </trkpt>
      <trkpt lat="44.30205" lon="3.22715">
        <ele>915.31</ele>
        <time>2025-09-22T11:22:25Z</time>
      </trkpt>
      <trkpt lat="44.30201" lon="3.22681">
        <ele>916.27</ele>
        <time>2025-09-22T11:22:07Z</time>
      </trkpt>
      <trkpt lat="44.30201" lon="3.22673">
        <ele>916.75</ele>
        <time>2025-09-22T11:22:03Z</time>
      </trkpt>
      <trkpt lat="44.30197" lon="3.22645">
        <ele>919.16</ele>
        <time>2025-09-22T11:21:47Z</time>
      </trkpt>
      <trkpt lat="44.30193" lon="3.22616">
        <ele>921.08</ele>
        <time>2025-09-22T11:21:30Z</time>
      </trkpt>
      <trkpt lat="44.30193" lon="3.22614">
        <ele>921.08</ele>
        <time>2025-09-22T11:21:29Z</time>
      </trkpt>
      <trkpt lat="44.30192" lon="3.22603">
        <ele>922.04</ele>
        <time>2025-09-22T11:21:23Z</time>
      </trkpt>
      <trkpt lat="44.30187" lon="3.22576">
        <ele>923.48</ele>
        <time>2025-09-22T11:21:07Z</time>
      </trkpt>
      <trkpt lat="44.30187" lon="3.22574">
        <ele>923.48</ele>
        <time>2025-09-22T11:21:06Z</time>
      </trkpt>
      <trkpt lat="44.3018" lon="3.22551">
        <ele>924.93</ele>
        <time>2025-09-22T11:20:52Z</time>
      </trkpt>
      <trkpt lat="44.30173" lon="3.22523">
        <ele>926.85</ele>
        <time>2025-09-22T11:20:37Z</time>
      </trkpt>
      <trkpt lat="44.30174" lon="3.22493">
        <ele>929.73</ele>
        <time>2025-09-22T11:20:21Z</time>
      </trkpt>
      <trkpt lat="44.30182" lon="3.22471">
        <ele>930.21</ele>
        <time>2025-09-22T11:20:07Z</time>
      </trkpt>
      <trkpt lat="44.30192" lon="3.22443">
        <ele>930.69</ele>
        <time>2025-09-22T11:19:50Z</time>
      </trkpt>
      <trkpt lat="44.30196" lon="3.22408">
        <ele>930.21</ele>
        <time>2025-09-22T11:19:32Z</time>
      </trkpt>
      <trkpt lat="44.30198" lon="3.22384">
        <ele>930.69</ele>
        <time>2025-09-22T11:19:18Z</time>
      </trkpt>
      <trkpt lat="44.302" lon="3.22356">
        <ele>931.17</ele>
        <time>2025-09-22T11:19:02Z</time>
      </trkpt>
      <trkpt lat="44.30199" lon="3.22329">
        <ele>934.06</ele>
        <time>2025-09-22T11:18:46Z</time>
      </trkpt>
      <trkpt lat="44.30193" lon="3.22301">
        <ele>937.42</ele>
        <time>2025-09-22T11:18:28Z</time>
      </trkpt>
      <trkpt lat="44.30179" lon="3.22278">
        <ele>938.38</ele>
        <time>2025-09-22T11:18:10Z</time>
      </trkpt>
      <trkpt lat="44.30175" lon="3.22274">
        <ele>938.38</ele>
        <time>2025-09-22T11:17:52Z</time>
      </trkpt>
      <trkpt lat="44.30176" lon="3.22274">
        <ele>939.35</ele>
        <time>2025-09-22T11:17:31Z</time>
      </trkpt>
      <trkpt lat="44.30162" lon="3.2226">
        <ele>939.83</ele>
        <time>2025-09-22T11:17:15Z</time>
      </trkpt>
      <trkpt lat="44.30144" lon="3.22248">
        <ele>941.27</ele>
        <time>2025-09-22T11:17:00Z</time>
      </trkpt>
      <trkpt lat="44.30125" lon="3.22236">
        <ele>940.79</ele>
        <time>2025-09-22T11:16:44Z</time>
      </trkpt>
      <trkpt lat="44.30106" lon="3.22225">
        <ele>941.75</ele>
        <time>2025-09-22T11:16:28Z</time>
      </trkpt>
      <trkpt lat="44.30084" lon="3.22208">
        <ele>942.23</ele>
        <time>2025-09-22T11:16:09Z</time>
      </trkpt>
      <trkpt lat="44.30062" lon="3.22191">
        <ele>943.67</ele>
        <time>2025-09-22T11:15:50Z</time>
      </trkpt>
      <trkpt lat="44.3004" lon="3.22175">
        <ele>944.15</ele>
        <time>2025-09-22T11:15:32Z</time>
      </trkpt>
      <trkpt lat="44.30019" lon="3.2216">
        <ele>946.07</ele>
        <time>2025-09-22T11:15:14Z</time>
      </trkpt>
      <trkpt lat="44.29996" lon="3.22143">
        <ele>947.52</ele>
        <time>2025-09-22T11:14:56Z</time>
      </trkpt>
      <trkpt lat="44.29974" lon="3.22129">
        <ele>947.52</ele>
        <time>2025-09-22T11:14:38Z</time>
      </trkpt>
      <trkpt lat="44.29946" lon="3.22123">
        <ele>947.52</ele>
        <time>2025-09-22T11:14:18Z</time>
      </trkpt>
      <trkpt lat="44.29919" lon="3.22119">
        <ele>947.52</ele>
        <time>2025-09-22T11:13:58Z</time>
      </trkpt>
      <trkpt lat="44.29892" lon="3.22115">
        <ele>948</ele>
        <time>2025-09-22T11:13:40Z</time>
      </trkpt>
      <trkpt lat="44.29867" lon="3.22109">
        <ele>948</ele>
        <time>2025-09-22T11:13:22Z</time>
      </trkpt>
      <trkpt lat="44.29847" lon="3.22105">
        <ele>945.59</ele>
        <time>2025-09-22T11:13:05Z</time>
      </trkpt>
      <trkpt lat="44.29821" lon="3.22103">
        <ele>944.15</ele>
        <time>2025-09-22T11:12:46Z</time>
      </trkpt>
      <trkpt lat="44.29794" lon="3.22103">
        <ele>944.15</ele>
        <time>2025-09-22T11:12:26Z</time>
      </trkpt>
      <trkpt lat="44.29769" lon="3.22105">
        <ele>944.63</ele>
        <time>2025-09-22T11:12:07Z</time>
      </trkpt>
      <trkpt lat="44.29747" lon="3.22107">
        <ele>943.67</ele>
        <time>2025-09-22T11:11:49Z</time>
      </trkpt>
      <trkpt lat="44.29725" lon="3.22107">
        <ele>942.23</ele>
        <time>2025-09-22T11:11:33Z</time>
      </trkpt>
      <trkpt lat="44.29702" lon="3.22108">
        <ele>940.31</ele>
        <time>2025-09-22T11:11:15Z</time>
      </trkpt>
      <trkpt lat="44.29675" lon="3.2209">
        <ele>937.9</ele>
        <time>2025-09-22T11:10:53Z</time>
      </trkpt>
      <trkpt lat="44.29664" lon="3.22068">
        <ele>936.46</ele>
        <time>2025-09-22T11:10:38Z</time>
      </trkpt>
      <trkpt lat="44.29647" lon="3.22036">
        <ele>932.14</ele>
        <time>2025-09-22T11:10:18Z</time>
      </trkpt>
      <trkpt lat="44.29627" lon="3.22013">
        <ele>931.65</ele>
        <time>2025-09-22T11:09:58Z</time>
      </trkpt>
      <trkpt lat="44.2961" lon="3.21996">
        <ele>929.73</ele>
        <time>2025-09-22T11:09:41Z</time>
      </trkpt>
      <trkpt lat="44.29592" lon="3.21978">
        <ele>925.89</ele>
        <time>2025-09-22T11:09:24Z</time>
      </trkpt>
      <trkpt lat="44.29577" lon="3.21956">
        <ele>922.04</ele>
        <time>2025-09-22T11:09:06Z</time>
      </trkpt>
      <trkpt lat="44.29576" lon="3.21954">
        <ele>920.6</ele>
        <time>2025-09-22T11:09:04Z</time>
      </trkpt>
      <trkpt lat="44.29564" lon="3.2194">
        <ele>915.31</ele>
        <time>2025-09-22T11:08:50Z</time>
      </trkpt>
      <trkpt lat="44.29549" lon="3.21925">
        <ele>914.35</ele>
        <time>2025-09-22T11:08:35Z</time>
      </trkpt>
      <trkpt lat="44.29531" lon="3.2191">
        <ele>913.39</ele>
        <time>2025-09-22T11:08:18Z</time>
      </trkpt>
      <trkpt lat="44.29512" lon="3.21893">
        <ele>910.99</ele>
        <time>2025-09-22T11:08:00Z</time>
      </trkpt>
      <trkpt lat="44.29494" lon="3.21878">
        <ele>909.54</ele>
        <time>2025-09-22T11:07:42Z</time>
      </trkpt>
      <trkpt lat="44.2947" lon="3.21858">
        <ele>908.1</ele>
        <time>2025-09-22T11:07:21Z</time>
      </trkpt>
      <trkpt lat="44.2945" lon="3.21841">
        <ele>907.14</ele>
        <time>2025-09-22T11:07:03Z</time>
      </trkpt>
      <trkpt lat="44.2943" lon="3.21827">
        <ele>905.7</ele>
        <time>2025-09-22T11:06:44Z</time>
      </trkpt>
      <trkpt lat="44.29412" lon="3.21816">
        <ele>904.26</ele>
        <time>2025-09-22T11:06:27Z</time>
      </trkpt>
      <trkpt lat="44.29388" lon="3.21804">
        <ele>903.78</ele>
        <time>2025-09-22T11:06:08Z</time>
      </trkpt>
      <trkpt lat="44.29359" lon="3.21802">
        <ele>903.3</ele>
        <time>2025-09-22T11:05:50Z</time>
      </trkpt>
      <trkpt lat="44.29329" lon="3.21801">
        <ele>903.3</ele>
        <time>2025-09-22T11:05:31Z</time>
      </trkpt>
      <trkpt lat="44.29328" lon="3.21801">
        <ele>903.3</ele>
        <time>2025-09-22T11:05:30Z</time>
      </trkpt>
      <trkpt lat="44.2931" lon="3.21792">
        <ele>908.1</ele>
        <time>2025-09-22T11:05:17Z</time>
      </trkpt>
      <trkpt lat="44.29289" lon="3.21775">
        <ele>910.51</ele>
        <time>2025-09-22T11:04:59Z</time>
      </trkpt>
      <trkpt lat="44.29267" lon="3.21747">
        <ele>910.51</ele>
        <time>2025-09-22T11:04:39Z</time>
      </trkpt>
      <trkpt lat="44.29252" lon="3.21714">
        <ele>910.03</ele>
        <time>2025-09-22T11:04:19Z</time>
      </trkpt>
      <trkpt lat="44.29236" lon="3.21676">
        <ele>910.03</ele>
        <time>2025-09-22T11:03:57Z</time>
      </trkpt>
      <trkpt lat="44.29218" lon="3.21646">
        <ele>910.51</ele>
        <time>2025-09-22T11:03:37Z</time>
      </trkpt>
      <trkpt lat="44.292" lon="3.21621">
        <ele>912.43</ele>
        <time>2025-09-22T11:03:18Z</time>
      </trkpt>
      <trkpt lat="44.29184" lon="3.21589">
        <ele>912.91</ele>
        <time>2025-09-22T11:02:59Z</time>
      </trkpt>
      <trkpt lat="44.29177" lon="3.21543">
        <ele>911.95</ele>
        <time>2025-09-22T11:02:35Z</time>
      </trkpt>
      <trkpt lat="44.29166" lon="3.21503">
        <ele>909.54</ele>
        <time>2025-09-22T11:02:14Z</time>
      </trkpt>
      <trkpt lat="44.29144" lon="3.21471">
        <ele>910.99</ele>
        <time>2025-09-22T11:01:54Z</time>
      </trkpt>
      <trkpt lat="44.29142" lon="3.2147">
        <ele>910.99</ele>
        <time>2025-09-22T11:01:53Z</time>
      </trkpt>
      <trkpt lat="44.29131" lon="3.2146">
        <ele>910.51</ele>
        <time>2025-09-22T11:01:43Z</time>
      </trkpt>
      <trkpt lat="44.29108" lon="3.21431">
        <ele>910.99</ele>
        <time>2025-09-22T11:01:22Z</time>
      </trkpt>
      <trkpt lat="44.29086" lon="3.21404">
        <ele>911.95</ele>
        <time>2025-09-22T11:01:01Z</time>
      </trkpt>
      <trkpt lat="44.29068" lon="3.21379">
        <ele>911.95</ele>
        <time>2025-09-22T11:00:44Z</time>
      </trkpt>
      <trkpt lat="44.29042" lon="3.21351">
        <ele>910.99</ele>
        <time>2025-09-22T11:00:22Z</time>
      </trkpt>
      <trkpt lat="44.29019" lon="3.21329">
        <ele>910.03</ele>
        <time>2025-09-22T11:00:03Z</time>
      </trkpt>
      <trkpt lat="44.28993" lon="3.21309">
        <ele>909.06</ele>
        <time>2025-09-22T10:59:44Z</time>
      </trkpt>
      <trkpt lat="44.2897" lon="3.21291">
        <ele>909.06</ele>
        <time>2025-09-22T10:59:26Z</time>
      </trkpt>
      <trkpt lat="44.28946" lon="3.21263">
        <ele>907.62</ele>
        <time>2025-09-22T10:59:04Z</time>
      </trkpt>
      <trkpt lat="44.28925" lon="3.21233">
        <ele>909.06</ele>
        <time>2025-09-22T10:58:44Z</time>
      </trkpt>
      <trkpt lat="44.28908" lon="3.21202">
        <ele>909.06</ele>
        <time>2025-09-22T10:58:25Z</time>
      </trkpt>
      <trkpt lat="44.28891" lon="3.21177">
        <ele>908.58</ele>
        <time>2025-09-22T10:58:07Z</time>
      </trkpt>
      <trkpt lat="44.28873" lon="3.21152">
        <ele>909.06</ele>
        <time>2025-09-22T10:57:49Z</time>
      </trkpt>
      <trkpt lat="44.28849" lon="3.21127">
        <ele>909.06</ele>
        <time>2025-09-22T10:57:28Z</time>
      </trkpt>
      <trkpt lat="44.28826" lon="3.21105">
        <ele>908.58</ele>
        <time>2025-09-22T10:57:08Z</time>
      </trkpt>
      <trkpt lat="44.28803" lon="3.21085">
        <ele>907.14</ele>
        <time>2025-09-22T10:56:50Z</time>
      </trkpt>
      <trkpt lat="44.28784" lon="3.21067">
        <ele>906.66</ele>
        <time>2025-09-22T10:56:33Z</time>
      </trkpt>
      <trkpt lat="44.2876" lon="3.21047">
        <ele>906.18</ele>
        <time>2025-09-22T10:56:14Z</time>
      </trkpt>
      <trkpt lat="44.28759" lon="3.21046">
        <ele>906.18</ele>
        <time>2025-09-22T10:56:13Z</time>
      </trkpt>
      <trkpt lat="44.28758" lon="3.21045">
        <ele>906.18</ele>
        <time>2025-09-22T10:56:12Z</time>
      </trkpt>
      <trkpt lat="44.28757" lon="3.21044">
        <ele>906.18</ele>
        <time>2025-09-22T10:56:11Z</time>
      </trkpt>
      <trkpt lat="44.28756" lon="3.21042">
        <ele>906.18</ele>
        <time>2025-09-22T10:56:10Z</time>
      </trkpt>
      <trkpt lat="44.28754" lon="3.21041">
        <ele>906.18</ele>
        <time>2025-09-22T10:56:09Z</time>
      </trkpt>
      <trkpt lat="44.28753" lon="3.2104">
        <ele>905.7</ele>
        <time>2025-09-22T10:56:08Z</time>
      </trkpt>
      <trkpt lat="44.28741" lon="3.21026">
        <ele>905.22</ele>
        <time>2025-09-22T10:55:57Z</time>
      </trkpt>
      <trkpt lat="44.2872" lon="3.21003">
        <ele>903.3</ele>
        <time>2025-09-22T10:55:38Z</time>
      </trkpt>
      <trkpt lat="44.28702" lon="3.20985">
        <ele>903.78</ele>
        <time>2025-09-22T10:55:22Z</time>
      </trkpt>
      <trkpt lat="44.28683" lon="3.20967">
        <ele>903.78</ele>
        <time>2025-09-22T10:55:07Z</time>
      </trkpt>
      <trkpt lat="44.28662" lon="3.20951">
        <ele>903.3</ele>
        <time>2025-09-22T10:54:50Z</time>
      </trkpt>
      <trkpt lat="44.28638" lon="3.20932">
        <ele>902.82</ele>
        <time>2025-09-22T10:54:31Z</time>
      </trkpt>
      <trkpt lat="44.28614" lon="3.20908">
        <ele>902.82</ele>
        <time>2025-09-22T10:54:13Z</time>
      </trkpt>
      <trkpt lat="44.28593" lon="3.20888">
        <ele>902.82</ele>
        <time>2025-09-22T10:53:55Z</time>
      </trkpt>
      <trkpt lat="44.28574" lon="3.20872">
        <ele>902.82</ele>
        <time>2025-09-22T10:53:41Z</time>
      </trkpt>
      <trkpt lat="44.28548" lon="3.20852">
        <ele>905.22</ele>
        <time>2025-09-22T10:53:22Z</time>
      </trkpt>
      <trkpt lat="44.28523" lon="3.20844">
        <ele>904.74</ele>
        <time>2025-09-22T10:53:05Z</time>
      </trkpt>
      <trkpt lat="44.28498" lon="3.2084">
        <ele>905.7</ele>
        <time>2025-09-22T10:52:47Z</time>
      </trkpt>
      <trkpt lat="44.28472" lon="3.20836">
        <ele>906.18</ele>
        <time>2025-09-22T10:52:29Z</time>
      </trkpt>
      <trkpt lat="44.28447" lon="3.20832">
        <ele>907.14</ele>
        <time>2025-09-22T10:52:11Z</time>
      </trkpt>
      <trkpt lat="44.28419" lon="3.20827">
        <ele>907.14</ele>
        <time>2025-09-22T10:51:52Z</time>
      </trkpt>
      <trkpt lat="44.28396" lon="3.20825">
        <ele>906.66</ele>
        <time>2025-09-22T10:51:35Z</time>
      </trkpt>
      <trkpt lat="44.28372" lon="3.20823">
        <ele>907.62</ele>
        <time>2025-09-22T10:51:18Z</time>
      </trkpt>
      <trkpt lat="44.28344" lon="3.20824">
        <ele>908.1</ele>
        <time>2025-09-22T10:51:00Z</time>
      </trkpt>
      <trkpt lat="44.28309" lon="3.20829">
        <ele>909.06</ele>
        <time>2025-09-22T10:50:36Z</time>
      </trkpt>
      <trkpt lat="44.28283" lon="3.20831">
        <ele>910.03</ele>
        <time>2025-09-22T10:50:17Z</time>
      </trkpt>
      <trkpt lat="44.28272" lon="3.20829">
        <ele>910.03</ele>
        <time>2025-09-22T10:50:04Z</time>
      </trkpt>
      <trkpt lat="44.28254" lon="3.2083">
        <ele>908.1</ele>
        <time>2025-09-22T10:49:47Z</time>
      </trkpt>
      <trkpt lat="44.28233" lon="3.20836">
        <ele>909.54</ele>
        <time>2025-09-22T10:49:30Z</time>
      </trkpt>
      <trkpt lat="44.28212" lon="3.20844">
        <ele>910.03</ele>
        <time>2025-09-22T10:49:14Z</time>
      </trkpt>
      <trkpt lat="44.28185" lon="3.20856">
        <ele>910.99</ele>
        <time>2025-09-22T10:48:55Z</time>
      </trkpt>
      <trkpt lat="44.28184" lon="3.20857">
        <ele>910.99</ele>
        <time>2025-09-22T10:48:54Z</time>
      </trkpt>
      <trkpt lat="44.28182" lon="3.20858">
        <ele>910.99</ele>
        <time>2025-09-22T10:48:53Z</time>
      </trkpt>
      <trkpt lat="44.28181" lon="3.20859">
        <ele>910.99</ele>
        <time>2025-09-22T10:48:52Z</time>
      </trkpt>
      <trkpt lat="44.28179" lon="3.20861">
        <ele>910.99</ele>
        <time>2025-09-22T10:48:51Z</time>
      </trkpt>
      <trkpt lat="44.28178" lon="3.20864">
        <ele>910.99</ele>
        <time>2025-09-22T10:48:50Z</time>
      </trkpt>
      <trkpt lat="44.28184" lon="3.2089">
        <ele>909.54</ele>
        <time>2025-09-22T10:48:35Z</time>
      </trkpt>
      <trkpt lat="44.28197" lon="3.20916">
        <ele>907.62</ele>
        <time>2025-09-22T10:48:18Z</time>
      </trkpt>
      <trkpt lat="44.28198" lon="3.20918">
        <ele>907.14</ele>
        <time>2025-09-22T10:48:17Z</time>
      </trkpt>
      <trkpt lat="44.28204" lon="3.20934">
        <ele>906.66</ele>
        <time>2025-09-22T10:48:04Z</time>
      </trkpt>
      <trkpt lat="44.28192" lon="3.20965">
        <ele>904.74</ele>
        <time>2025-09-22T10:47:46Z</time>
      </trkpt>
      <trkpt lat="44.28178" lon="3.20996">
        <ele>903.3</ele>
        <time>2025-09-22T10:47:27Z</time>
      </trkpt>
      <trkpt lat="44.28166" lon="3.2103">
        <ele>903.3</ele>
        <time>2025-09-22T10:47:08Z</time>
      </trkpt>
      <trkpt lat="44.28155" lon="3.21068">
        <ele>904.26</ele>
        <time>2025-09-22T10:46:47Z</time>
      </trkpt>
      <trkpt lat="44.28146" lon="3.21107">
        <ele>906.18</ele>
        <time>2025-09-22T10:46:27Z</time>
      </trkpt>
      <trkpt lat="44.28138" lon="3.2114">
        <ele>909.06</ele>
        <time>2025-09-22T10:46:08Z</time>
      </trkpt>
      <trkpt lat="44.28123" lon="3.21172">
        <ele>911.95</ele>
        <time>2025-09-22T10:45:47Z</time>
      </trkpt>
      <trkpt lat="44.28103" lon="3.21203">
        <ele>914.35</ele>
        <time>2025-09-22T10:45:27Z</time>
      </trkpt>
      <trkpt lat="44.28087" lon="3.21234">
        <ele>912.91</ele>
        <time>2025-09-22T10:45:08Z</time>
      </trkpt>
      <trkpt lat="44.28073" lon="3.21266">
        <ele>912.43</ele>
        <time>2025-09-22T10:44:49Z</time>
      </trkpt>
      <trkpt lat="44.28056" lon="3.21291">
        <ele>914.35</ele>
        <time>2025-09-22T10:44:33Z</time>
      </trkpt>
      <trkpt lat="44.28035" lon="3.21307">
        <ele>917.24</ele>
        <time>2025-09-22T10:44:17Z</time>
      </trkpt>
      <trkpt lat="44.2801" lon="3.21315">
        <ele>919.64</ele>
        <time>2025-09-22T10:43:58Z</time>
      </trkpt>
      <trkpt lat="44.27987" lon="3.21323">
        <ele>919.16</ele>
        <time>2025-09-22T10:43:42Z</time>
      </trkpt>
      <trkpt lat="44.27963" lon="3.21332">
        <ele>916.75</ele>
        <time>2025-09-22T10:43:23Z</time>
      </trkpt>
      <trkpt lat="44.27941" lon="3.21342">
        <ele>912.91</ele>
        <time>2025-09-22T10:43:08Z</time>
      </trkpt>
      <trkpt lat="44.27918" lon="3.21351">
        <ele>910.51</ele>
        <time>2025-09-22T10:42:50Z</time>
      </trkpt>
      <trkpt lat="44.27888" lon="3.21353">
        <ele>908.1</ele>
        <time>2025-09-22T10:42:28Z</time>
      </trkpt>
      <trkpt lat="44.27864" lon="3.21351">
        <ele>906.18</ele>
        <time>2025-09-22T10:42:12Z</time>
      </trkpt>
      <trkpt lat="44.27842" lon="3.21354">
        <ele>904.26</ele>
        <time>2025-09-22T10:41:56Z</time>
      </trkpt>
      <trkpt lat="44.27813" lon="3.21354">
        <ele>900.89</ele>
        <time>2025-09-22T10:41:36Z</time>
      </trkpt>
      <trkpt lat="44.27785" lon="3.21353">
        <ele>897.53</ele>
        <time>2025-09-22T10:41:16Z</time>
      </trkpt>
      <trkpt lat="44.2776" lon="3.21358">
        <ele>892.24</ele>
        <time>2025-09-22T10:40:58Z</time>
      </trkpt>
      <trkpt lat="44.27735" lon="3.21362">
        <ele>886.47</ele>
        <time>2025-09-22T10:40:39Z</time>
      </trkpt>
      <trkpt lat="44.27712" lon="3.21357">
        <ele>880.22</ele>
        <time>2025-09-22T10:40:21Z</time>
      </trkpt>
      <trkpt lat="44.27687" lon="3.21357">
        <ele>876.86</ele>
        <time>2025-09-22T10:40:03Z</time>
      </trkpt>
      <trkpt lat="44.27665" lon="3.21358">
        <ele>876.38</ele>
        <time>2025-09-22T10:39:46Z</time>
      </trkpt>
      <trkpt lat="44.27644" lon="3.21381">
        <ele>874.46</ele>
        <time>2025-09-22T10:39:29Z</time>
      </trkpt>
      <trkpt lat="44.27631" lon="3.21401">
        <ele>873.5</ele>
        <time>2025-09-22T10:39:15Z</time>
      </trkpt>
      <trkpt lat="44.2762" lon="3.21421">
        <ele>873.01</ele>
        <time>2025-09-22T10:39:03Z</time>
      </trkpt>
      <trkpt lat="44.27606" lon="3.21447">
        <ele>872.05</ele>
        <time>2025-09-22T10:38:49Z</time>
      </trkpt>
      <trkpt lat="44.2759" lon="3.21476">
        <ele>871.09</ele>
        <time>2025-09-22T10:38:30Z</time>
      </trkpt>
      <trkpt lat="44.27575" lon="3.2151">
        <ele>870.13</ele>
        <time>2025-09-22T10:38:11Z</time>
      </trkpt>
      <trkpt lat="44.27558" lon="3.21542">
        <ele>867.25</ele>
        <time>2025-09-22T10:37:53Z</time>
      </trkpt>
      <trkpt lat="44.27535" lon="3.21561">
        <ele>864.84</ele>
        <time>2025-09-22T10:37:34Z</time>
      </trkpt>
      <trkpt lat="44.27513" lon="3.21581">
        <ele>864.84</ele>
        <time>2025-09-22T10:37:14Z</time>
      </trkpt>
      <trkpt lat="44.27501" lon="3.21593">
        <ele>863.88</ele>
        <time>2025-09-22T10:36:58Z</time>
      </trkpt>
      <trkpt lat="44.27484" lon="3.21601">
        <ele>861.48</ele>
        <time>2025-09-22T10:36:44Z</time>
      </trkpt>
      <trkpt lat="44.27463" lon="3.21605">
        <ele>859.08</ele>
        <time>2025-09-22T10:36:26Z</time>
      </trkpt>
      <trkpt lat="44.27446" lon="3.21605">
        <ele>857.15</ele>
        <time>2025-09-22T10:36:10Z</time>
      </trkpt>
      <trkpt lat="44.27441" lon="3.21609">
        <ele>857.63</ele>
        <time>2025-09-22T10:36:05Z</time>
      </trkpt>
      <trkpt lat="44.27428" lon="3.21591">
        <ele>856.67</ele>
        <time>2025-09-22T10:35:48Z</time>
      </trkpt>
      <trkpt lat="44.27416" lon="3.21575">
        <ele>858.11</ele>
        <time>2025-09-22T10:35:34Z</time>
      </trkpt>
      <trkpt lat="44.27396" lon="3.21564">
        <ele>858.11</ele>
        <time>2025-09-22T10:35:16Z</time>
      </trkpt>
      <trkpt lat="44.27375" lon="3.21556">
        <ele>858.59</ele>
        <time>2025-09-22T10:35:00Z</time>
      </trkpt>
      <trkpt lat="44.27354" lon="3.21548">
        <ele>861.48</ele>
        <time>2025-09-22T10:34:44Z</time>
      </trkpt>
      <trkpt lat="44.2733" lon="3.21539">
        <ele>863.88</ele>
        <time>2025-09-22T10:34:28Z</time>
      </trkpt>
      <trkpt lat="44.27299" lon="3.21528">
        <ele>868.21</ele>
        <time>2025-09-22T10:34:07Z</time>
      </trkpt>
      <trkpt lat="44.27298" lon="3.21539">
        <ele>866.77</ele>
        <time>2025-09-22T10:33:58Z</time>
      </trkpt>
      <trkpt lat="44.27304" lon="3.21548">
        <ele>866.29</ele>
        <time>2025-09-22T10:33:51Z</time>
      </trkpt>
      <trkpt lat="44.2731" lon="3.21552">
        <ele>862.92</ele>
        <time>2025-09-22T10:33:47Z</time>
      </trkpt>
      <trkpt lat="44.27315" lon="3.21557">
        <ele>861.96</ele>
        <time>2025-09-22T10:33:41Z</time>
      </trkpt>
      <trkpt lat="44.27324" lon="3.21592">
        <ele>860.52</ele>
        <time>2025-09-22T10:33:24Z</time>
      </trkpt>
      <trkpt lat="44.27318" lon="3.21609">
        <ele>861.96</ele>
        <time>2025-09-22T10:33:10Z</time>
      </trkpt>
      <trkpt lat="44.27342" lon="3.21601">
        <ele>861.96</ele>
        <time>2025-09-22T10:32:54Z</time>
      </trkpt>
      <trkpt lat="44.2736" lon="3.21599">
        <ele>861.96</ele>
        <time>2025-09-22T10:32:36Z</time>
      </trkpt>
      <trkpt lat="44.27367" lon="3.21595">
        <ele>861</ele>
        <time>2025-09-22T10:32:20Z</time>
      </trkpt>
      <trkpt lat="44.2739" lon="3.21579">
        <ele>861.96</ele>
        <time>2025-09-22T10:31:59Z</time>
      </trkpt>
      <trkpt lat="44.27395" lon="3.21568">
        <ele>862.44</ele>
        <time>2025-09-22T10:31:42Z</time>
      </trkpt>
      <trkpt lat="44.27391" lon="3.21571">
        <ele>861.48</ele>
        <time>2025-09-22T10:31:25Z</time>
      </trkpt>
      <trkpt lat="44.27392" lon="3.2158">
        <ele>862.44</ele>
        <time>2025-09-22T10:31:06Z</time>
      </trkpt>
      <trkpt lat="44.27387" lon="3.216">
        <ele>862.92</ele>
        <time>2025-09-22T10:30:48Z</time>
      </trkpt>
      <trkpt lat="44.27385" lon="3.2161">
        <ele>862.44</ele>
        <time>2025-09-22T10:30:43Z</time>
      </trkpt>
      <trkpt lat="44.27383" lon="3.21619">
        <ele>861.48</ele>
        <time>2025-09-22T10:30:33Z</time>
      </trkpt>
      <trkpt lat="44.27383" lon="3.21625">
        <ele>859.56</ele>
        <time>2025-09-22T10:30:13Z</time>
      </trkpt>
      <trkpt lat="44.27387" lon="3.21626">
        <ele>857.63</ele>
        <time>2025-09-22T10:29:55Z</time>
      </trkpt>
      <trkpt lat="44.27391" lon="3.21627">
        <ele>859.56</ele>
        <time>2025-09-22T10:29:38Z</time>
      </trkpt>
      <trkpt lat="44.27393" lon="3.21627">
        <ele>860.52</ele>
        <time>2025-09-22T10:29:16Z</time>
      </trkpt>
      <trkpt lat="44.27394" lon="3.21623">
        <ele>863.88</ele>
        <time>2025-09-22T10:28:53Z</time>
      </trkpt>
      <trkpt lat="44.27392" lon="3.21624">
        <ele>861.96</ele>
        <time>2025-09-22T10:28:23Z</time>
      </trkpt>
      <trkpt lat="44.27391" lon="3.21626">
        <ele>859.08</ele>
        <time>2025-09-22T10:28:04Z</time>
      </trkpt>
      <trkpt lat="44.27391" lon="3.21625">
        <ele>859.08</ele>
        <time>2025-09-22T10:27:49Z</time>
      </trkpt>
      <trkpt lat="44.27392" lon="3.21624">
        <ele>855.71</ele>
        <time>2025-09-22T10:27:30Z</time>
      </trkpt>
      <trkpt lat="44.27395" lon="3.21605">
        <ele>856.19</ele>
        <time>2025-09-22T10:27:14Z</time>
      </trkpt>
      <trkpt lat="44.27392" lon="3.21593">
        <ele>857.15</ele>
        <time>2025-09-22T10:26:53Z</time>
      </trkpt>
      <trkpt lat="44.27391" lon="3.21583">
        <ele>856.67</ele>
        <time>2025-09-22T10:26:38Z</time>
      </trkpt>
      <trkpt lat="44.27397" lon="3.21569">
        <ele>856.19</ele>
        <time>2025-09-22T10:26:27Z</time>
      </trkpt>
      <trkpt lat="44.27398" lon="3.21568">
        <ele>856.67</ele>
        <time>2025-09-22T10:26:24Z</time>
      </trkpt>
      <trkpt lat="44.27378" lon="3.21559">
        <ele>856.19</ele>
        <time>2025-09-22T10:26:06Z</time>
      </trkpt>
      <trkpt lat="44.27343" lon="3.21545">
        <ele>858.11</ele>
        <time>2025-09-22T10:25:43Z</time>
      </trkpt>
      <trkpt lat="44.27314" lon="3.21531">
        <ele>861.48</ele>
        <time>2025-09-22T10:25:23Z</time>
      </trkpt>
      <trkpt lat="44.27287" lon="3.2151">
        <ele>861.96</ele>
        <time>2025-09-22T10:25:03Z</time>
      </trkpt>
      <trkpt lat="44.27276" lon="3.21478">
        <ele>862.44</ele>
        <time>2025-09-22T10:24:46Z</time>
      </trkpt>
      <trkpt lat="44.27275" lon="3.21438">
        <ele>864.84</ele>
        <time>2025-09-22T10:24:28Z</time>
      </trkpt>
      <trkpt lat="44.27276" lon="3.21428">
        <ele>865.32</ele>
        <time>2025-09-22T10:24:23Z</time>
      </trkpt>
      <trkpt lat="44.27279" lon="3.21399">
        <ele>870.13</ele>
        <time>2025-09-22T10:24:08Z</time>
      </trkpt>
      <trkpt lat="44.27276" lon="3.21365">
        <ele>870.13</ele>
        <time>2025-09-22T10:23:53Z</time>
      </trkpt>
      <trkpt lat="44.27253" lon="3.21335">
        <ele>873.98</ele>
        <time>2025-09-22T10:23:33Z</time>
      </trkpt>
      <trkpt lat="44.27248" lon="3.21326">
        <ele>874.94</ele>
        <time>2025-09-22T10:23:27Z</time>
      </trkpt>
      <trkpt lat="44.27244" lon="3.21293">
        <ele>876.38</ele>
        <time>2025-09-22T10:23:11Z</time>
      </trkpt>
      <trkpt lat="44.27258" lon="3.21267">
        <ele>876.38</ele>
        <time>2025-09-22T10:22:56Z</time>
      </trkpt>
      <trkpt lat="44.2728" lon="3.21248">
        <ele>878.3</ele>
        <time>2025-09-22T10:22:39Z</time>
      </trkpt>
      <trkpt lat="44.273" lon="3.21247">
        <ele>878.78</ele>
        <time>2025-09-22T10:22:25Z</time>
      </trkpt>
      <trkpt lat="44.27323" lon="3.2124">
        <ele>875.9</ele>
        <time>2025-09-22T10:22:07Z</time>
      </trkpt>
      <trkpt lat="44.27341" lon="3.21222">
        <ele>875.9</ele>
        <time>2025-09-22T10:21:50Z</time>
      </trkpt>
      <trkpt lat="44.27355" lon="3.21199">
        <ele>873.5</ele>
        <time>2025-09-22T10:21:35Z</time>
      </trkpt>
      <trkpt lat="44.27369" lon="3.21188">
        <ele>875.9</ele>
        <time>2025-09-22T10:21:22Z</time>
      </trkpt>
      <trkpt lat="44.27372" lon="3.21184">
        <ele>875.9</ele>
        <time>2025-09-22T10:21:19Z</time>
      </trkpt>
      <trkpt lat="44.27374" lon="3.21182">
        <ele>875.9</ele>
        <time>2025-09-22T10:21:03Z</time>
      </trkpt>
      <trkpt lat="44.2738" lon="3.2118">
        <ele>874.46</ele>
        <time>2025-09-22T10:20:50Z</time>
      </trkpt>
      <trkpt lat="44.2738" lon="3.21179">
        <ele>873.5</ele>
        <time>2025-09-22T10:20:31Z</time>
      </trkpt>
      <trkpt lat="44.27372" lon="3.21182">
        <ele>872.53</ele>
        <time>2025-09-22T10:20:14Z</time>
      </trkpt>
      <trkpt lat="44.27366" lon="3.21174">
        <ele>874.46</ele>
        <time>2025-09-22T10:20:00Z</time>
      </trkpt>
      <trkpt lat="44.27354" lon="3.21178">
        <ele>876.38</ele>
        <time>2025-09-22T10:19:50Z</time>
      </trkpt>
      <trkpt lat="44.27354" lon="3.21178">
        <ele>876.86</ele>
        <time>2025-09-22T10:19:49Z</time>
      </trkpt>
      <trkpt lat="44.27353" lon="3.21178">
        <ele>876.86</ele>
        <time>2025-09-22T10:19:48Z</time>
      </trkpt>
      <trkpt lat="44.27352" lon="3.21175">
        <ele>877.34</ele>
        <time>2025-09-22T10:19:46Z</time>
      </trkpt>
      <trkpt lat="44.27357" lon="3.21159">
        <ele>877.34</ele>
        <time>2025-09-22T10:19:37Z</time>
      </trkpt>
      <trkpt lat="44.2738" lon="3.21146">
        <ele>879.74</ele>
        <time>2025-09-22T10:19:18Z</time>
      </trkpt>
      <trkpt lat="44.27403" lon="3.21143">
        <ele>880.71</ele>
        <time>2025-09-22T10:19:02Z</time>
      </trkpt>
      <trkpt lat="44.2743" lon="3.2114">
        <ele>883.59</ele>
        <time>2025-09-22T10:18:42Z</time>
      </trkpt>
      <trkpt lat="44.27454" lon="3.21132">
        <ele>886.95</ele>
        <time>2025-09-22T10:18:24Z</time>
      </trkpt>
      <trkpt lat="44.27474" lon="3.21122">
        <ele>890.32</ele>
        <time>2025-09-22T10:18:08Z</time>
      </trkpt>
      <trkpt lat="44.27469" lon="3.21117">
        <ele>891.76</ele>
        <time>2025-09-22T10:18:00Z</time>
      </trkpt>
      <trkpt lat="44.2745" lon="3.21119">
        <ele>892.72</ele>
        <time>2025-09-22T10:17:46Z</time>
      </trkpt>
      <trkpt lat="44.27439" lon="3.2112">
        <ele>893.68</ele>
        <time>2025-09-22T10:17:32Z</time>
      </trkpt>
      <trkpt lat="44.27425" lon="3.21121">
        <ele>895.12</ele>
        <time>2025-09-22T10:17:16Z</time>
      </trkpt>
      <trkpt lat="44.27398" lon="3.21113">
        <ele>897.05</ele>
        <time>2025-09-22T10:16:54Z</time>
      </trkpt>
      <trkpt lat="44.27381" lon="3.21103">
        <ele>898.01</ele>
        <time>2025-09-22T10:16:37Z</time>
      </trkpt>
      <trkpt lat="44.27364" lon="3.21093">
        <ele>898.97</ele>
        <time>2025-09-22T10:16:21Z</time>
      </trkpt>
      <trkpt lat="44.27363" lon="3.21092">
        <ele>898.97</ele>
        <time>2025-09-22T10:16:20Z</time>
      </trkpt>
      <trkpt lat="44.27361" lon="3.21091">
        <ele>898.97</ele>
        <time>2025-09-22T10:16:19Z</time>
      </trkpt>
      <trkpt lat="44.2736" lon="3.2109">
        <ele>899.45</ele>
        <time>2025-09-22T10:16:18Z</time>
      </trkpt>
      <trkpt lat="44.27358" lon="3.21089">
        <ele>899.45</ele>
        <time>2025-09-22T10:16:17Z</time>
      </trkpt>
      <trkpt lat="44.27354" lon="3.21085">
        <ele>899.93</ele>
        <time>2025-09-22T10:16:13Z</time>
      </trkpt>
      <trkpt lat="44.27335" lon="3.21067">
        <ele>901.37</ele>
        <time>2025-09-22T10:15:55Z</time>
      </trkpt>
      <trkpt lat="44.27327" lon="3.21058">
        <ele>904.26</ele>
        <time>2025-09-22T10:15:40Z</time>
      </trkpt>
      <trkpt lat="44.27323" lon="3.21058">
        <ele>904.26</ele>
        <time>2025-09-22T10:15:35Z</time>
      </trkpt>
      <trkpt lat="44.27308" lon="3.21054">
        <ele>904.26</ele>
        <time>2025-09-22T10:15:24Z</time>
      </trkpt>
      <trkpt lat="44.27295" lon="3.21057">
        <ele>903.78</ele>
        <time>2025-09-22T10:15:12Z</time>
      </trkpt>
      <trkpt lat="44.27294" lon="3.21057">
        <ele>903.3</ele>
        <time>2025-09-22T10:15:11Z</time>
      </trkpt>
      <trkpt lat="44.27289" lon="3.2106">
        <ele>903.3</ele>
        <time>2025-09-22T10:14:58Z</time>
      </trkpt>
      <trkpt lat="44.27288" lon="3.21061">
        <ele>903.3</ele>
        <time>2025-09-22T10:14:57Z</time>
      </trkpt>
      <trkpt lat="44.27287" lon="3.21061">
        <ele>903.3</ele>
        <time>2025-09-22T10:14:56Z</time>
      </trkpt>
      <trkpt lat="44.27285" lon="3.21061">
        <ele>903.3</ele>
        <time>2025-09-22T10:14:55Z</time>
      </trkpt>
      <trkpt lat="44.27276" lon="3.21066">
        <ele>902.82</ele>
        <time>2025-09-22T10:14:45Z</time>
      </trkpt>
      <trkpt lat="44.27249" lon="3.21075">
        <ele>902.33</ele>
        <time>2025-09-22T10:14:29Z</time>
      </trkpt>
      <trkpt lat="44.27225" lon="3.21069">
        <ele>902.33</ele>
        <time>2025-09-22T10:14:13Z</time>
      </trkpt>
      <trkpt lat="44.27202" lon="3.21071">
        <ele>901.37</ele>
        <time>2025-09-22T10:13:57Z</time>
      </trkpt>
      <trkpt lat="44.27178" lon="3.21076">
        <ele>899.93</ele>
        <time>2025-09-22T10:13:41Z</time>
      </trkpt>
      <trkpt lat="44.27155" lon="3.21074">
        <ele>897.53</ele>
        <time>2025-09-22T10:13:25Z</time>
      </trkpt>
      <trkpt lat="44.27132" lon="3.21059">
        <ele>895.12</ele>
        <time>2025-09-22T10:13:07Z</time>
      </trkpt>
      <trkpt lat="44.27114" lon="3.21047">
        <ele>893.2</ele>
        <time>2025-09-22T10:12:53Z</time>
      </trkpt>
      <trkpt lat="44.27111" lon="3.21047">
        <ele>892.72</ele>
        <time>2025-09-22T10:12:52Z</time>
      </trkpt>
      <trkpt lat="44.27094" lon="3.21042">
        <ele>890.8</ele>
        <time>2025-09-22T10:12:44Z</time>
      </trkpt>
      <trkpt lat="44.27076" lon="3.21037">
        <ele>892.72</ele>
        <time>2025-09-22T10:12:29Z</time>
      </trkpt>
      <trkpt lat="44.27055" lon="3.21035">
        <ele>892.24</ele>
        <time>2025-09-22T10:12:13Z</time>
      </trkpt>
      <trkpt lat="44.27026" lon="3.21035">
        <ele>894.16</ele>
        <time>2025-09-22T10:11:53Z</time>
      </trkpt>
      <trkpt lat="44.26999" lon="3.21035">
        <ele>897.05</ele>
        <time>2025-09-22T10:11:34Z</time>
      </trkpt>
      <trkpt lat="44.26975" lon="3.21034">
        <ele>901.37</ele>
        <time>2025-09-22T10:11:15Z</time>
      </trkpt>
      <trkpt lat="44.26951" lon="3.2103">
        <ele>902.82</ele>
        <time>2025-09-22T10:10:56Z</time>
      </trkpt>
      <trkpt lat="44.26924" lon="3.21038">
        <ele>899.45</ele>
        <time>2025-09-22T10:10:40Z</time>
      </trkpt>
      <trkpt lat="44.26899" lon="3.21046">
        <ele>898.01</ele>
        <time>2025-09-22T10:10:21Z</time>
      </trkpt>
      <trkpt lat="44.26877" lon="3.21053">
        <ele>899.93</ele>
        <time>2025-09-22T10:10:05Z</time>
      </trkpt>
      <trkpt lat="44.26862" lon="3.21059">
        <ele>901.37</ele>
        <time>2025-09-22T10:09:50Z</time>
      </trkpt>
      <trkpt lat="44.2686" lon="3.21059">
        <ele>901.37</ele>
        <time>2025-09-22T10:09:49Z</time>
      </trkpt>
      <trkpt lat="44.26859" lon="3.21059">
        <ele>901.37</ele>
        <time>2025-09-22T10:09:48Z</time>
      </trkpt>
      <trkpt lat="44.26858" lon="3.2106">
        <ele>901.37</ele>
        <time>2025-09-22T10:09:47Z</time>
      </trkpt>
      <trkpt lat="44.26856" lon="3.2106">
        <ele>901.37</ele>
        <time>2025-09-22T10:09:46Z</time>
      </trkpt>
      <trkpt lat="44.26855" lon="3.21061">
        <ele>901.37</ele>
        <time>2025-09-22T10:09:45Z</time>
      </trkpt>
      <trkpt lat="44.26846" lon="3.21064">
        <ele>898.97</ele>
        <time>2025-09-22T10:09:40Z</time>
      </trkpt>
      <trkpt lat="44.26821" lon="3.21076">
        <ele>895.61</ele>
        <time>2025-09-22T10:09:22Z</time>
      </trkpt>
      <trkpt lat="44.26803" lon="3.21095">
        <ele>896.57</ele>
        <time>2025-09-22T10:09:05Z</time>
      </trkpt>
      <trkpt lat="44.26787" lon="3.21109">
        <ele>898.01</ele>
        <time>2025-09-22T10:08:52Z</time>
      </trkpt>
      <trkpt lat="44.26768" lon="3.2111">
        <ele>898.01</ele>
        <time>2025-09-22T10:08:37Z</time>
      </trkpt>
      <trkpt lat="44.26752" lon="3.21107">
        <ele>898.49</ele>
        <time>2025-09-22T10:08:24Z</time>
      </trkpt>
      <trkpt lat="44.26729" lon="3.21106">
        <ele>898.97</ele>
        <time>2025-09-22T10:08:07Z</time>
      </trkpt>
      <trkpt lat="44.26703" lon="3.21111">
        <ele>898.49</ele>
        <time>2025-09-22T10:07:51Z</time>
      </trkpt>
      <trkpt lat="44.26679" lon="3.21113">
        <ele>898.49</ele>
        <time>2025-09-22T10:07:34Z</time>
      </trkpt>
      <trkpt lat="44.2666" lon="3.21114">
        <ele>897.53</ele>
        <time>2025-09-22T10:07:20Z</time>
      </trkpt>
      <trkpt lat="44.26634" lon="3.21129">
        <ele>898.01</ele>
        <time>2025-09-22T10:07:00Z</time>
      </trkpt>
      <trkpt lat="44.26609" lon="3.21142">
        <ele>898.49</ele>
        <time>2025-09-22T10:06:41Z</time>
      </trkpt>
      <trkpt lat="44.26594" lon="3.21148">
        <ele>898.49</ele>
        <time>2025-09-22T10:06:22Z</time>
      </trkpt>
      <trkpt lat="44.26577" lon="3.21175">
        <ele>896.57</ele>
        <time>2025-09-22T10:06:03Z</time>
      </trkpt>
      <trkpt lat="44.26562" lon="3.21202">
        <ele>894.16</ele>
        <time>2025-09-22T10:05:47Z</time>
      </trkpt>
      <trkpt lat="44.26552" lon="3.21213">
        <ele>894.64</ele>
        <time>2025-09-22T10:05:38Z</time>
      </trkpt>
      <trkpt lat="44.26535" lon="3.21228">
        <ele>896.09</ele>
        <time>2025-09-22T10:05:22Z</time>
      </trkpt>
      <trkpt lat="44.26528" lon="3.21236">
        <ele>895.12</ele>
        <time>2025-09-22T10:05:15Z</time>
      </trkpt>
      <trkpt lat="44.26526" lon="3.21237">
        <ele>895.12</ele>
        <time>2025-09-22T10:05:14Z</time>
      </trkpt>
      <trkpt lat="44.26525" lon="3.21239">
        <ele>894.64</ele>
        <time>2025-09-22T10:05:13Z</time>
      </trkpt>
      <trkpt lat="44.26525" lon="3.2124">
        <ele>894.64</ele>
        <time>2025-09-22T10:05:12Z</time>
      </trkpt>
      <trkpt lat="44.26523" lon="3.21241">
        <ele>894.64</ele>
        <time>2025-09-22T10:05:11Z</time>
      </trkpt>
      <trkpt lat="44.26522" lon="3.21242">
        <ele>894.16</ele>
        <time>2025-09-22T10:05:10Z</time>
      </trkpt>
      <trkpt lat="44.26521" lon="3.21243">
        <ele>894.16</ele>
        <time>2025-09-22T10:05:09Z</time>
      </trkpt>
      <trkpt lat="44.26519" lon="3.21244">
        <ele>893.68</ele>
        <time>2025-09-22T10:05:08Z</time>
      </trkpt>
      <trkpt lat="44.26513" lon="3.21251">
        <ele>893.2</ele>
        <time>2025-09-22T10:05:03Z</time>
      </trkpt>
      <trkpt lat="44.26493" lon="3.21276">
        <ele>891.76</ele>
        <time>2025-09-22T10:04:45Z</time>
      </trkpt>
      <trkpt lat="44.26473" lon="3.21292">
        <ele>892.24</ele>
        <time>2025-09-22T10:04:29Z</time>
      </trkpt>
      <trkpt lat="44.26454" lon="3.21311">
        <ele>891.28</ele>
        <time>2025-09-22T10:04:12Z</time>
      </trkpt>
      <trkpt lat="44.2644" lon="3.2133">
        <ele>892.72</ele>
        <time>2025-09-22T10:03:57Z</time>
      </trkpt>
      <trkpt lat="44.26426" lon="3.21359">
        <ele>895.61</ele>
        <time>2025-09-22T10:03:39Z</time>
      </trkpt>
      <trkpt lat="44.26425" lon="3.21361">
        <ele>895.61</ele>
        <time>2025-09-22T10:03:38Z</time>
      </trkpt>
      <trkpt lat="44.26424" lon="3.21362">
        <ele>895.61</ele>
        <time>2025-09-22T10:03:37Z</time>
      </trkpt>
      <trkpt lat="44.2642" lon="3.2137">
        <ele>895.12</ele>
        <time>2025-09-22T10:03:33Z</time>
      </trkpt>
      <trkpt lat="44.26405" lon="3.21399">
        <ele>893.68</ele>
        <time>2025-09-22T10:03:16Z</time>
      </trkpt>
      <trkpt lat="44.26389" lon="3.2142">
        <ele>890.32</ele>
        <time>2025-09-22T10:03:01Z</time>
      </trkpt>
      <trkpt lat="44.26376" lon="3.21443">
        <ele>891.76</ele>
        <time>2025-09-22T10:02:46Z</time>
      </trkpt>
      <trkpt lat="44.26365" lon="3.21471">
        <ele>896.09</ele>
        <time>2025-09-22T10:02:29Z</time>
      </trkpt>
      <trkpt lat="44.26353" lon="3.21497">
        <ele>895.61</ele>
        <time>2025-09-22T10:02:13Z</time>
      </trkpt>
      <trkpt lat="44.26338" lon="3.21516">
        <ele>896.09</ele>
        <time>2025-09-22T10:02:00Z</time>
      </trkpt>
      <trkpt lat="44.2632" lon="3.2154">
        <ele>894.64</ele>
        <time>2025-09-22T10:01:42Z</time>
      </trkpt>
      <trkpt lat="44.26304" lon="3.21562">
        <ele>893.68</ele>
        <time>2025-09-22T10:01:24Z</time>
      </trkpt>
      <trkpt lat="44.26286" lon="3.21571">
        <ele>890.8</ele>
        <time>2025-09-22T10:01:10Z</time>
      </trkpt>
      <trkpt lat="44.26265" lon="3.21578">
        <ele>886.47</ele>
        <time>2025-09-22T10:00:53Z</time>
      </trkpt>
      <trkpt lat="44.26247" lon="3.21582">
        <ele>880.22</ele>
        <time>2025-09-22T10:00:39Z</time>
      </trkpt>
      <trkpt lat="44.26245" lon="3.21583">
        <ele>879.26</ele>
        <time>2025-09-22T10:00:38Z</time>
      </trkpt>
      <trkpt lat="44.26228" lon="3.21592">
        <ele>874.94</ele>
        <time>2025-09-22T10:00:24Z</time>
      </trkpt>
      <trkpt lat="44.26206" lon="3.21588">
        <ele>870.61</ele>
        <time>2025-09-22T10:00:02Z</time>
      </trkpt>
      <trkpt lat="44.26191" lon="3.21569">
        <ele>868.21</ele>
        <time>2025-09-22T09:59:43Z</time>
      </trkpt>
      <trkpt lat="44.26188" lon="3.21566">
        <ele>868.21</ele>
        <time>2025-09-22T09:59:39Z</time>
      </trkpt>
      <trkpt lat="44.26179" lon="3.21566">
        <ele>865.8</ele>
        <time>2025-09-22T09:59:30Z</time>
      </trkpt>
      <trkpt lat="44.26163" lon="3.21587">
        <ele>861.96</ele>
        <time>2025-09-22T09:59:15Z</time>
      </trkpt>
      <trkpt lat="44.26153" lon="3.21609">
        <ele>862.92</ele>
        <time>2025-09-22T09:59:00Z</time>
      </trkpt>
      <trkpt lat="44.26148" lon="3.21628">
        <ele>862.92</ele>
        <time>2025-09-22T09:58:47Z</time>
      </trkpt>
      <trkpt lat="44.26144" lon="3.21652">
        <ele>861.96</ele>
        <time>2025-09-22T09:58:33Z</time>
      </trkpt>
      <trkpt lat="44.26136" lon="3.21681">
        <ele>862.44</ele>
        <time>2025-09-22T09:58:15Z</time>
      </trkpt>
      <trkpt lat="44.26128" lon="3.21706">
        <ele>862.44</ele>
        <time>2025-09-22T09:57:57Z</time>
      </trkpt>
      <trkpt lat="44.26116" lon="3.21726">
        <ele>862.92</ele>
        <time>2025-09-22T09:57:42Z</time>
      </trkpt>
      <trkpt lat="44.26115" lon="3.21728">
        <ele>862.92</ele>
        <time>2025-09-22T09:57:41Z</time>
      </trkpt>
      <trkpt lat="44.26114" lon="3.21729">
        <ele>862.92</ele>
        <time>2025-09-22T09:57:40Z</time>
      </trkpt>
      <trkpt lat="44.26102" lon="3.21737">
        <ele>861.48</ele>
        <time>2025-09-22T09:57:30Z</time>
      </trkpt>
      <trkpt lat="44.26078" lon="3.2175">
        <ele>858.59</ele>
        <time>2025-09-22T09:57:11Z</time>
      </trkpt>
      <trkpt lat="44.26054" lon="3.21768">
        <ele>853.31</ele>
        <time>2025-09-22T09:56:53Z</time>
      </trkpt>
      <trkpt lat="44.26037" lon="3.21785">
        <ele>853.31</ele>
        <time>2025-09-22T09:56:36Z</time>
      </trkpt>
      <trkpt lat="44.26036" lon="3.21786">
        <ele>853.31</ele>
        <time>2025-09-22T09:56:35Z</time>
      </trkpt>
      <trkpt lat="44.26035" lon="3.21787">
        <ele>853.31</ele>
        <time>2025-09-22T09:56:34Z</time>
      </trkpt>
      <trkpt lat="44.26034" lon="3.21788">
        <ele>853.31</ele>
        <time>2025-09-22T09:56:33Z</time>
      </trkpt>
      <trkpt lat="44.26033" lon="3.21789">
        <ele>852.83</ele>
        <time>2025-09-22T09:56:32Z</time>
      </trkpt>
      <trkpt lat="44.26031" lon="3.2179">
        <ele>852.83</ele>
        <time>2025-09-22T09:56:31Z</time>
      </trkpt>
      <trkpt lat="44.2603" lon="3.21791">
        <ele>852.35</ele>
        <time>2025-09-22T09:56:30Z</time>
      </trkpt>
      <trkpt lat="44.26029" lon="3.21791">
        <ele>852.35</ele>
        <time>2025-09-22T09:56:29Z</time>
      </trkpt>
      <trkpt lat="44.26022" lon="3.21797">
        <ele>849.94</ele>
        <time>2025-09-22T09:56:23Z</time>
      </trkpt>
      <trkpt lat="44.26005" lon="3.21815">
        <ele>843.21</ele>
        <time>2025-09-22T09:56:09Z</time>
      </trkpt>
      <trkpt lat="44.26004" lon="3.21816">
        <ele>843.21</ele>
        <time>2025-09-22T09:56:08Z</time>
      </trkpt>
      <trkpt lat="44.25994" lon="3.21824">
        <ele>841.29</ele>
        <time>2025-09-22T09:56:01Z</time>
      </trkpt>
      <trkpt lat="44.25972" lon="3.21833">
        <ele>842.73</ele>
        <time>2025-09-22T09:55:46Z</time>
      </trkpt>
      <trkpt lat="44.25956" lon="3.21841">
        <ele>843.21</ele>
        <time>2025-09-22T09:55:30Z</time>
      </trkpt>
      <trkpt lat="44.25952" lon="3.21843">
        <ele>843.21</ele>
        <time>2025-09-22T09:55:28Z</time>
      </trkpt>
      <trkpt lat="44.25946" lon="3.21846">
        <ele>843.21</ele>
        <time>2025-09-22T09:55:24Z</time>
      </trkpt>
      <trkpt lat="44.25936" lon="3.21851">
        <ele>844.18</ele>
        <time>2025-09-22T09:55:15Z</time>
      </trkpt>
      <trkpt lat="44.25928" lon="3.21851">
        <ele>845.14</ele>
        <time>2025-09-22T09:55:09Z</time>
      </trkpt>
      <trkpt lat="44.25908" lon="3.21858">
        <ele>846.58</ele>
        <time>2025-09-22T09:54:53Z</time>
      </trkpt>
      <trkpt lat="44.25883" lon="3.21866">
        <ele>846.58</ele>
        <time>2025-09-22T09:54:35Z</time>
      </trkpt>
      <trkpt lat="44.25862" lon="3.21852">
        <ele>846.1</ele>
        <time>2025-09-22T09:54:17Z</time>
      </trkpt>
      <trkpt lat="44.25839" lon="3.21842">
        <ele>847.54</ele>
        <time>2025-09-22T09:54:03Z</time>
      </trkpt>
      <trkpt lat="44.25819" lon="3.21834">
        <ele>850.42</ele>
        <time>2025-09-22T09:53:47Z</time>
      </trkpt>
      <trkpt lat="44.25801" lon="3.21825">
        <ele>851.87</ele>
        <time>2025-09-22T09:53:32Z</time>
      </trkpt>
      <trkpt lat="44.25782" lon="3.21815">
        <ele>849.94</ele>
        <time>2025-09-22T09:53:17Z</time>
      </trkpt>
      <trkpt lat="44.25762" lon="3.21809">
        <ele>842.73</ele>
        <time>2025-09-22T09:53:04Z</time>
      </trkpt>
      <trkpt lat="44.2575" lon="3.21799">
        <ele>841.29</ele>
        <time>2025-09-22T09:52:54Z</time>
      </trkpt>
      <trkpt lat="44.25735" lon="3.21786">
        <ele>841.29</ele>
        <time>2025-09-22T09:52:39Z</time>
      </trkpt>
      <trkpt lat="44.25715" lon="3.21764">
        <ele>837.93</ele>
        <time>2025-09-22T09:52:23Z</time>
      </trkpt>
      <trkpt lat="44.25691" lon="3.21739">
        <ele>837.45</ele>
        <time>2025-09-22T09:52:07Z</time>
      </trkpt>
      <trkpt lat="44.25678" lon="3.21721">
        <ele>834.56</ele>
        <time>2025-09-22T09:51:54Z</time>
      </trkpt>
      <trkpt lat="44.25663" lon="3.21709">
        <ele>836</ele>
        <time>2025-09-22T09:51:37Z</time>
      </trkpt>
      <trkpt lat="44.2565" lon="3.2169">
        <ele>837.93</ele>
        <time>2025-09-22T09:51:22Z</time>
      </trkpt>
      <trkpt lat="44.25639" lon="3.21667">
        <ele>840.81</ele>
        <time>2025-09-22T09:51:08Z</time>
      </trkpt>
      <trkpt lat="44.25638" lon="3.21665">
        <ele>840.81</ele>
        <time>2025-09-22T09:51:07Z</time>
      </trkpt>
      <trkpt lat="44.25637" lon="3.21663">
        <ele>840.81</ele>
        <time>2025-09-22T09:51:06Z</time>
      </trkpt>
      <trkpt lat="44.25637" lon="3.21661">
        <ele>840.33</ele>
        <time>2025-09-22T09:51:05Z</time>
      </trkpt>
      <trkpt lat="44.25636" lon="3.21659">
        <ele>840.33</ele>
        <time>2025-09-22T09:51:04Z</time>
      </trkpt>
      <trkpt lat="44.25631" lon="3.21643">
        <ele>840.33</ele>
        <time>2025-09-22T09:50:56Z</time>
      </trkpt>
      <trkpt lat="44.25634" lon="3.21609">
        <ele>837.93</ele>
        <time>2025-09-22T09:50:40Z</time>
      </trkpt>
      <trkpt lat="44.25643" lon="3.21579">
        <ele>837.93</ele>
        <time>2025-09-22T09:50:25Z</time>
      </trkpt>
      <trkpt lat="44.25647" lon="3.21549">
        <ele>835.04</ele>
        <time>2025-09-22T09:50:11Z</time>
      </trkpt>
      <trkpt lat="44.2565" lon="3.21524">
        <ele>838.89</ele>
        <time>2025-09-22T09:49:57Z</time>
      </trkpt>
      <trkpt lat="44.25651" lon="3.21495">
        <ele>843.69</ele>
        <time>2025-09-22T09:49:41Z</time>
      </trkpt>
      <trkpt lat="44.25648" lon="3.21472">
        <ele>847.54</ele>
        <time>2025-09-22T09:49:24Z</time>
      </trkpt>
      <trkpt lat="44.25639" lon="3.21444">
        <ele>848.5</ele>
        <time>2025-09-22T09:49:07Z</time>
      </trkpt>
      <trkpt lat="44.25628" lon="3.21422">
        <ele>853.79</ele>
        <time>2025-09-22T09:48:50Z</time>
      </trkpt>
      <trkpt lat="44.2562" lon="3.21387">
        <ele>853.31</ele>
        <time>2025-09-22T09:48:31Z</time>
      </trkpt>
      <trkpt lat="44.25596" lon="3.21366">
        <ele>848.02</ele>
        <time>2025-09-22T09:48:14Z</time>
      </trkpt>
      <trkpt lat="44.25575" lon="3.21352">
        <ele>848.5</ele>
        <time>2025-09-22T09:47:56Z</time>
      </trkpt>
      <trkpt lat="44.25564" lon="3.21345">
        <ele>851.87</ele>
        <time>2025-09-22T09:47:37Z</time>
      </trkpt>
      <trkpt lat="44.25561" lon="3.21337">
        <ele>849.46</ele>
        <time>2025-09-22T09:47:22Z</time>
      </trkpt>
      <trkpt lat="44.25562" lon="3.21342">
        <ele>848.02</ele>
        <time>2025-09-22T09:47:02Z</time>
      </trkpt>
      <trkpt lat="44.25561" lon="3.2135">
        <ele>848.02</ele>
        <time>2025-09-22T09:46:45Z</time>
      </trkpt>
      <trkpt lat="44.25563" lon="3.21357">
        <ele>848.02</ele>
        <time>2025-09-22T09:46:24Z</time>
      </trkpt>
      <trkpt lat="44.2556" lon="3.21349">
        <ele>848.5</ele>
        <time>2025-09-22T09:46:10Z</time>
      </trkpt>
      <trkpt lat="44.25557" lon="3.21348">
        <ele>849.46</ele>
        <time>2025-09-22T09:45:56Z</time>
      </trkpt>
      <trkpt lat="44.25548" lon="3.21353">
        <ele>851.87</ele>
        <time>2025-09-22T09:45:38Z</time>
      </trkpt>
      <trkpt lat="44.25548" lon="3.21349">
        <ele>852.83</ele>
        <time>2025-09-22T09:45:16Z</time>
      </trkpt>
      <trkpt lat="44.25546" lon="3.21347">
        <ele>854.75</ele>
        <time>2025-09-22T09:44:53Z</time>
      </trkpt>
      <trkpt lat="44.25556" lon="3.21346">
        <ele>854.75</ele>
        <time>2025-09-22T09:44:37Z</time>
      </trkpt>
      <trkpt lat="44.25564" lon="3.2133">
        <ele>855.71</ele>
        <time>2025-09-22T09:44:22Z</time>
      </trkpt>
      <trkpt lat="44.25577" lon="3.21319">
        <ele>857.15</ele>
        <time>2025-09-22T09:44:05Z</time>
      </trkpt>
      <trkpt lat="44.25576" lon="3.21313">
        <ele>858.11</ele>
        <time>2025-09-22T09:43:39Z</time>
      </trkpt>
      <trkpt lat="44.25574" lon="3.21313">
        <ele>852.83</ele>
        <time>2025-09-22T09:43:14Z</time>
      </trkpt>
      <trkpt lat="44.25582" lon="3.21324">
        <ele>848.5</ele>
        <time>2025-09-22T09:42:49Z</time>
      </trkpt>
      <trkpt lat="44.2559" lon="3.21326">
        <ele>846.1</ele>
        <time>2025-09-22T09:42:27Z</time>
      </trkpt>
      <trkpt lat="44.25586" lon="3.2132">
        <ele>846.1</ele>
        <time>2025-09-22T09:42:23Z</time>
      </trkpt>
      <trkpt lat="44.2558" lon="3.21311">
        <ele>846.1</ele>
        <time>2025-09-22T09:42:14Z</time>
      </trkpt>
      <trkpt lat="44.25576" lon="3.21304">
        <ele>846.58</ele>
        <time>2025-09-22T09:41:48Z</time>
      </trkpt>
      <trkpt lat="44.25577" lon="3.21313">
        <ele>846.58</ele>
        <time>2025-09-22T09:41:30Z</time>
      </trkpt>
      <trkpt lat="44.25571" lon="3.21319">
        <ele>848.02</ele>
        <time>2025-09-22T09:41:18Z</time>
      </trkpt>
      <trkpt lat="44.25569" lon="3.21333">
        <ele>850.9</ele>
        <time>2025-09-22T09:41:05Z</time>
      </trkpt>
      <trkpt lat="44.25565" lon="3.21337">
        <ele>853.31</ele>
        <time>2025-09-22T09:40:55Z</time>
      </trkpt>
      <trkpt lat="44.25549" lon="3.21324">
        <ele>852.83</ele>
        <time>2025-09-22T09:40:35Z</time>
      </trkpt>
      <trkpt lat="44.25547" lon="3.21326">
        <ele>853.31</ele>
        <time>2025-09-22T09:40:21Z</time>
      </trkpt>
      <trkpt lat="44.25544" lon="3.21336">
        <ele>850.42</ele>
        <time>2025-09-22T09:40:07Z</time>
      </trkpt>
      <trkpt lat="44.25545" lon="3.21339">
        <ele>844.18</ele>
        <time>2025-09-22T09:39:50Z</time>
      </trkpt>
      <trkpt lat="44.25548" lon="3.21342">
        <ele>843.69</ele>
        <time>2025-09-22T09:39:31Z</time>
      </trkpt>
      <trkpt lat="44.25549" lon="3.21342">
        <ele>843.21</ele>
        <time>2025-09-22T09:39:13Z</time>
      </trkpt>
      <trkpt lat="44.25549" lon="3.21341">
        <ele>842.25</ele>
        <time>2025-09-22T09:38:58Z</time>
      </trkpt>
      <trkpt lat="44.25547" lon="3.21342">
        <ele>842.25</ele>
        <time>2025-09-22T09:38:39Z</time>
      </trkpt>
      <trkpt lat="44.25534" lon="3.21339">
        <ele>848.02</ele>
        <time>2025-09-22T09:38:25Z</time>
      </trkpt>
      <trkpt lat="44.25516" lon="3.21338">
        <ele>845.62</ele>
        <time>2025-09-22T09:38:12Z</time>
      </trkpt>
      <trkpt lat="44.25491" lon="3.21332">
        <ele>846.1</ele>
        <time>2025-09-22T09:37:55Z</time>
      </trkpt>
      <trkpt lat="44.25464" lon="3.21326">
        <ele>845.62</ele>
        <time>2025-09-22T09:37:37Z</time>
      </trkpt>
      <trkpt lat="44.25438" lon="3.21333">
        <ele>845.62</ele>
        <time>2025-09-22T09:37:19Z</time>
      </trkpt>
      <trkpt lat="44.25413" lon="3.21363">
        <ele>845.62</ele>
        <time>2025-09-22T09:36:58Z</time>
      </trkpt>
      <trkpt lat="44.25392" lon="3.21383">
        <ele>846.58</ele>
        <time>2025-09-22T09:36:42Z</time>
      </trkpt>
      <trkpt lat="44.2538" lon="3.21392">
        <ele>848.02</ele>
        <time>2025-09-22T09:36:28Z</time>
      </trkpt>
      <trkpt lat="44.25359" lon="3.21399">
        <ele>848.02</ele>
        <time>2025-09-22T09:36:14Z</time>
      </trkpt>
      <trkpt lat="44.2534" lon="3.21402">
        <ele>851.38</ele>
        <time>2025-09-22T09:36:00Z</time>
      </trkpt>
      <trkpt lat="44.25325" lon="3.21406">
        <ele>852.83</ele>
        <time>2025-09-22T09:35:50Z</time>
      </trkpt>
      <trkpt lat="44.25317" lon="3.21432">
        <ele>853.79</ele>
        <time>2025-09-22T09:35:35Z</time>
      </trkpt>
      <trkpt lat="44.25317" lon="3.21437">
        <ele>854.75</ele>
        <time>2025-09-22T09:35:32Z</time>
      </trkpt>
      <trkpt lat="44.25324" lon="3.21464">
        <ele>857.15</ele>
        <time>2025-09-22T09:35:18Z</time>
      </trkpt>
      <trkpt lat="44.25328" lon="3.21483">
        <ele>858.11</ele>
        <time>2025-09-22T09:35:07Z</time>
      </trkpt>
      <trkpt lat="44.25332" lon="3.21513">
        <ele>859.08</ele>
        <time>2025-09-22T09:34:52Z</time>
      </trkpt>
      <trkpt lat="44.25337" lon="3.21536">
        <ele>862.44</ele>
        <time>2025-09-22T09:34:38Z</time>
      </trkpt>
      <trkpt lat="44.25331" lon="3.21564">
        <ele>867.73</ele>
        <time>2025-09-22T09:34:19Z</time>
      </trkpt>
      <trkpt lat="44.25319" lon="3.21586">
        <ele>871.09</ele>
        <time>2025-09-22T09:34:04Z</time>
      </trkpt>
      <trkpt lat="44.25313" lon="3.21612">
        <ele>872.53</ele>
        <time>2025-09-22T09:33:48Z</time>
      </trkpt>
      <trkpt lat="44.25302" lon="3.21628">
        <ele>870.61</ele>
        <time>2025-09-22T09:33:34Z</time>
      </trkpt>
      <trkpt lat="44.25302" lon="3.21637">
        <ele>869.17</ele>
        <time>2025-09-22T09:33:30Z</time>
      </trkpt>
      <trkpt lat="44.25302" lon="3.21639">
        <ele>868.69</ele>
        <time>2025-09-22T09:33:29Z</time>
      </trkpt>
      <trkpt lat="44.25302" lon="3.21682">
        <ele>865.32</ele>
        <time>2025-09-22T09:33:07Z</time>
      </trkpt>
      <trkpt lat="44.25305" lon="3.21703">
        <ele>861.48</ele>
        <time>2025-09-22T09:32:52Z</time>
      </trkpt>
      <trkpt lat="44.253" lon="3.2171">
        <ele>860.04</ele>
        <time>2025-09-22T09:32:44Z</time>
      </trkpt>
      <trkpt lat="44.25277" lon="3.21714">
        <ele>856.67</ele>
        <time>2025-09-22T09:32:27Z</time>
      </trkpt>
      <trkpt lat="44.25261" lon="3.21725">
        <ele>854.75</ele>
        <time>2025-09-22T09:32:14Z</time>
      </trkpt>
      <trkpt lat="44.25237" lon="3.21732">
        <ele>858.11</ele>
        <time>2025-09-22T09:31:58Z</time>
      </trkpt>
      <trkpt lat="44.25217" lon="3.21721">
        <ele>865.32</ele>
        <time>2025-09-22T09:31:41Z</time>
      </trkpt>
      <trkpt lat="44.25204" lon="3.21713">
        <ele>870.61</ele>
        <time>2025-09-22T09:31:27Z</time>
      </trkpt>
      <trkpt lat="44.25188" lon="3.21714">
        <ele>870.13</ele>
        <time>2025-09-22T09:31:14Z</time>
      </trkpt>
      <trkpt lat="44.25186" lon="3.21715">
        <ele>870.13</ele>
        <time>2025-09-22T09:31:13Z</time>
      </trkpt>
      <trkpt lat="44.25184" lon="3.21716">
        <ele>869.65</ele>
        <time>2025-09-22T09:31:12Z</time>
      </trkpt>
      <trkpt lat="44.25176" lon="3.21721">
        <ele>872.05</ele>
        <time>2025-09-22T09:30:56Z</time>
      </trkpt>
      <trkpt lat="44.25164" lon="3.21736">
        <ele>879.26</ele>
        <time>2025-09-22T09:30:40Z</time>
      </trkpt>
      <trkpt lat="44.25158" lon="3.21752">
        <ele>885.51</ele>
        <time>2025-09-22T09:30:28Z</time>
      </trkpt>
      <trkpt lat="44.25138" lon="3.2177">
        <ele>887.91</ele>
        <time>2025-09-22T09:30:12Z</time>
      </trkpt>
      <trkpt lat="44.25139" lon="3.218">
        <ele>880.22</ele>
        <time>2025-09-22T09:29:57Z</time>
      </trkpt>
      <trkpt lat="44.25161" lon="3.21816">
        <ele>874.94</ele>
        <time>2025-09-22T09:29:40Z</time>
      </trkpt>
      <trkpt lat="44.25168" lon="3.21835">
        <ele>875.9</ele>
        <time>2025-09-22T09:29:24Z</time>
      </trkpt>
      <trkpt lat="44.25166" lon="3.21863">
        <ele>874.94</ele>
        <time>2025-09-22T09:29:09Z</time>
      </trkpt>
      <trkpt lat="44.2516" lon="3.21886">
        <ele>872.53</ele>
        <time>2025-09-22T09:28:53Z</time>
      </trkpt>
      <trkpt lat="44.25159" lon="3.21887">
        <ele>872.53</ele>
        <time>2025-09-22T09:28:52Z</time>
      </trkpt>
      <trkpt lat="44.25158" lon="3.21889">
        <ele>872.53</ele>
        <time>2025-09-22T09:28:51Z</time>
      </trkpt>
      <trkpt lat="44.25157" lon="3.2189">
        <ele>872.53</ele>
        <time>2025-09-22T09:28:50Z</time>
      </trkpt>
      <trkpt lat="44.25155" lon="3.21892">
        <ele>872.05</ele>
        <time>2025-09-22T09:28:49Z</time>
      </trkpt>
      <trkpt lat="44.25154" lon="3.21893">
        <ele>872.05</ele>
        <time>2025-09-22T09:28:48Z</time>
      </trkpt>
      <trkpt lat="44.25153" lon="3.21895">
        <ele>872.05</ele>
        <time>2025-09-22T09:28:47Z</time>
      </trkpt>
      <trkpt lat="44.25149" lon="3.21899">
        <ele>871.09</ele>
        <time>2025-09-22T09:28:43Z</time>
      </trkpt>
      <trkpt lat="44.25147" lon="3.219">
        <ele>871.09</ele>
        <time>2025-09-22T09:28:42Z</time>
      </trkpt>
      <trkpt lat="44.25146" lon="3.21901">
        <ele>870.61</ele>
        <time>2025-09-22T09:28:41Z</time>
      </trkpt>
      <trkpt lat="44.25142" lon="3.21905">
        <ele>870.13</ele>
        <time>2025-09-22T09:28:38Z</time>
      </trkpt>
      <trkpt lat="44.2514" lon="3.2191">
        <ele>870.61</ele>
        <time>2025-09-22T09:28:35Z</time>
      </trkpt>
      <trkpt lat="44.25134" lon="3.21918">
        <ele>871.09</ele>
        <time>2025-09-22T09:28:27Z</time>
      </trkpt>
      <trkpt lat="44.2512" lon="3.21939">
        <ele>868.69</ele>
        <time>2025-09-22T09:28:12Z</time>
      </trkpt>
      <trkpt lat="44.25103" lon="3.21955">
        <ele>867.25</ele>
        <time>2025-09-22T09:27:56Z</time>
      </trkpt>
      <trkpt lat="44.25101" lon="3.21957">
        <ele>867.25</ele>
        <time>2025-09-22T09:27:55Z</time>
      </trkpt>
      <trkpt lat="44.251" lon="3.21957">
        <ele>866.77</ele>
        <time>2025-09-22T09:27:54Z</time>
      </trkpt>
      <trkpt lat="44.25098" lon="3.21958">
        <ele>866.77</ele>
        <time>2025-09-22T09:27:53Z</time>
      </trkpt>
      <trkpt lat="44.25097" lon="3.2196">
        <ele>866.77</ele>
        <time>2025-09-22T09:27:52Z</time>
      </trkpt>
      <trkpt lat="44.25095" lon="3.21961">
        <ele>866.29</ele>
        <time>2025-09-22T09:27:51Z</time>
      </trkpt>
      <trkpt lat="44.25094" lon="3.21962">
        <ele>866.29</ele>
        <time>2025-09-22T09:27:50Z</time>
      </trkpt>
      <trkpt lat="44.25092" lon="3.21962">
        <ele>866.29</ele>
        <time>2025-09-22T09:27:49Z</time>
      </trkpt>
      <trkpt lat="44.2509" lon="3.21963">
        <ele>866.29</ele>
        <time>2025-09-22T09:27:48Z</time>
      </trkpt>
      <trkpt lat="44.25089" lon="3.21964">
        <ele>866.29</ele>
        <time>2025-09-22T09:27:47Z</time>
      </trkpt>
      <trkpt lat="44.25087" lon="3.21964">
        <ele>866.29</ele>
        <time>2025-09-22T09:27:46Z</time>
      </trkpt>
      <trkpt lat="44.25086" lon="3.21965">
        <ele>866.29</ele>
        <time>2025-09-22T09:27:45Z</time>
      </trkpt>
      <trkpt lat="44.25069" lon="3.21964">
        <ele>863.88</ele>
        <time>2025-09-22T09:27:35Z</time>
      </trkpt>
      <trkpt lat="44.25044" lon="3.2196">
        <ele>861.48</ele>
        <time>2025-09-22T09:27:20Z</time>
      </trkpt>
      <trkpt lat="44.25025" lon="3.2196">
        <ele>863.4</ele>
        <time>2025-09-22T09:27:05Z</time>
      </trkpt>
      <trkpt lat="44.25009" lon="3.21963">
        <ele>871.57</ele>
        <time>2025-09-22T09:26:49Z</time>
      </trkpt>
      <trkpt lat="44.24994" lon="3.21966">
        <ele>879.26</ele>
        <time>2025-09-22T09:26:33Z</time>
      </trkpt>
      <trkpt lat="44.24976" lon="3.21967">
        <ele>885.99</ele>
        <time>2025-09-22T09:26:15Z</time>
      </trkpt>
      <trkpt lat="44.24953" lon="3.21968">
        <ele>885.03</ele>
        <time>2025-09-22T09:26:00Z</time>
      </trkpt>
      <trkpt lat="44.24933" lon="3.21971">
        <ele>884.07</ele>
        <time>2025-09-22T09:25:43Z</time>
      </trkpt>
      <trkpt lat="44.24912" lon="3.21975">
        <ele>882.63</ele>
        <time>2025-09-22T09:25:27Z</time>
      </trkpt>
      <trkpt lat="44.2491" lon="3.21976">
        <ele>882.15</ele>
        <time>2025-09-22T09:25:26Z</time>
      </trkpt>
      <trkpt lat="44.24909" lon="3.21975">
        <ele>881.67</ele>
        <time>2025-09-22T09:25:25Z</time>
      </trkpt>
      <trkpt lat="44.2489" lon="3.21982">
        <ele>878.3</ele>
        <time>2025-09-22T09:25:09Z</time>
      </trkpt>
      <trkpt lat="44.24879" lon="3.21993">
        <ele>873.5</ele>
        <time>2025-09-22T09:24:54Z</time>
      </trkpt>
      <trkpt lat="44.24863" lon="3.21997">
        <ele>870.61</ele>
        <time>2025-09-22T09:24:44Z</time>
      </trkpt>
      <trkpt lat="44.24838" lon="3.21998">
        <ele>870.61</ele>
        <time>2025-09-22T09:24:25Z</time>
      </trkpt>
      <trkpt lat="44.24832" lon="3.21996">
        <ele>870.61</ele>
        <time>2025-09-22T09:24:19Z</time>
      </trkpt>
      <trkpt lat="44.24813" lon="3.21993">
        <ele>869.65</ele>
        <time>2025-09-22T09:24:01Z</time>
      </trkpt>
      <trkpt lat="44.24805" lon="3.22016">
        <ele>865.32</ele>
        <time>2025-09-22T09:23:47Z</time>
      </trkpt>
      <trkpt lat="44.24806" lon="3.22041">
        <ele>863.4</ele>
        <time>2025-09-22T09:23:33Z</time>
      </trkpt>
      <trkpt lat="44.24807" lon="3.22046">
        <ele>863.88</ele>
        <time>2025-09-22T09:23:32Z</time>
      </trkpt>
      <trkpt lat="44.24811" lon="3.22066">
        <ele>868.69</ele>
        <time>2025-09-22T09:23:19Z</time>
      </trkpt>
      <trkpt lat="44.24822" lon="3.22084">
        <ele>873.98</ele>
        <time>2025-09-22T09:23:04Z</time>
      </trkpt>
      <trkpt lat="44.24822" lon="3.22085">
        <ele>873.5</ele>
        <time>2025-09-22T09:23:03Z</time>
      </trkpt>
      <trkpt lat="44.24823" lon="3.22087">
        <ele>873.5</ele>
        <time>2025-09-22T09:23:02Z</time>
      </trkpt>
      <trkpt lat="44.24824" lon="3.22093">
        <ele>873.5</ele>
        <time>2025-09-22T09:22:58Z</time>
      </trkpt>
      <trkpt lat="44.24799" lon="3.22145">
        <ele>866.29</ele>
        <time>2025-09-22T09:22:24Z</time>
      </trkpt>
      <trkpt lat="44.24782" lon="3.22163">
        <ele>865.8</ele>
        <time>2025-09-22T09:22:08Z</time>
      </trkpt>
      <trkpt lat="44.24756" lon="3.22166">
        <ele>863.88</ele>
        <time>2025-09-22T09:21:48Z</time>
      </trkpt>
      <trkpt lat="44.24736" lon="3.22172">
        <ele>865.32</ele>
        <time>2025-09-22T09:21:31Z</time>
      </trkpt>
      <trkpt lat="44.24712" lon="3.22194">
        <ele>868.69</ele>
        <time>2025-09-22T09:21:08Z</time>
      </trkpt>
      <trkpt lat="44.24692" lon="3.222">
        <ele>871.57</ele>
        <time>2025-09-22T09:20:53Z</time>
      </trkpt>
      <trkpt lat="44.24667" lon="3.222">
        <ele>873.98</ele>
        <time>2025-09-22T09:20:35Z</time>
      </trkpt>
      <trkpt lat="44.24657" lon="3.22177">
        <ele>872.53</ele>
        <time>2025-09-22T09:20:20Z</time>
      </trkpt>
      <trkpt lat="44.24662" lon="3.22154">
        <ele>872.05</ele>
        <time>2025-09-22T09:20:09Z</time>
      </trkpt>
      <trkpt lat="44.24667" lon="3.22126">
        <ele>873.98</ele>
        <time>2025-09-22T09:19:52Z</time>
      </trkpt>
      <trkpt lat="44.24667" lon="3.22125">
        <ele>873.98</ele>
        <time>2025-09-22T09:19:51Z</time>
      </trkpt>
      <trkpt lat="44.24662" lon="3.22122">
        <ele>873.5</ele>
        <time>2025-09-22T09:19:48Z</time>
      </trkpt>
      <trkpt lat="44.24639" lon="3.22114">
        <ele>873.5</ele>
        <time>2025-09-22T09:19:32Z</time>
      </trkpt>
      <trkpt lat="44.24638" lon="3.22114">
        <ele>873.5</ele>
        <time>2025-09-22T09:19:31Z</time>
      </trkpt>
      <trkpt lat="44.24635" lon="3.22114">
        <ele>873.01</ele>
        <time>2025-09-22T09:19:30Z</time>
      </trkpt>
      <trkpt lat="44.24609" lon="3.22115">
        <ele>873.01</ele>
        <time>2025-09-22T09:19:15Z</time>
      </trkpt>
      <trkpt lat="44.24594" lon="3.22121">
        <ele>877.82</ele>
        <time>2025-09-22T09:19:00Z</time>
      </trkpt>
      <trkpt lat="44.24593" lon="3.22122">
        <ele>878.78</ele>
        <time>2025-09-22T09:18:59Z</time>
      </trkpt>
      <trkpt lat="44.2457" lon="3.22133">
        <ele>884.07</ele>
        <time>2025-09-22T09:18:41Z</time>
      </trkpt>
      <trkpt lat="44.2455" lon="3.22132">
        <ele>890.8</ele>
        <time>2025-09-22T09:18:24Z</time>
      </trkpt>
      <trkpt lat="44.24533" lon="3.22127">
        <ele>894.64</ele>
        <time>2025-09-22T09:18:09Z</time>
      </trkpt>
      <trkpt lat="44.24513" lon="3.22121">
        <ele>898.49</ele>
        <time>2025-09-22T09:17:52Z</time>
      </trkpt>
      <trkpt lat="44.24492" lon="3.2211">
        <ele>898.01</ele>
        <time>2025-09-22T09:17:33Z</time>
      </trkpt>
      <trkpt lat="44.24471" lon="3.22106">
        <ele>892.24</ele>
        <time>2025-09-22T09:17:17Z</time>
      </trkpt>
      <trkpt lat="44.24451" lon="3.22097">
        <ele>892.72</ele>
        <time>2025-09-22T09:17:03Z</time>
      </trkpt>
      <trkpt lat="44.24425" lon="3.22093">
        <ele>892.24</ele>
        <time>2025-09-22T09:16:46Z</time>
      </trkpt>
      <trkpt lat="44.2441" lon="3.22091">
        <ele>892.24</ele>
        <time>2025-09-22T09:16:34Z</time>
      </trkpt>
      <trkpt lat="44.2439" lon="3.2209">
        <ele>892.24</ele>
        <time>2025-09-22T09:16:20Z</time>
      </trkpt>
      <trkpt lat="44.24366" lon="3.22093">
        <ele>889.84</ele>
        <time>2025-09-22T09:16:02Z</time>
      </trkpt>
      <trkpt lat="44.24352" lon="3.22094">
        <ele>887.91</ele>
        <time>2025-09-22T09:15:50Z</time>
      </trkpt>
      <trkpt lat="44.24343" lon="3.22088">
        <ele>886.95</ele>
        <time>2025-09-22T09:15:42Z</time>
      </trkpt>
      <trkpt lat="44.24342" lon="3.22087">
        <ele>887.43</ele>
        <time>2025-09-22T09:15:41Z</time>
      </trkpt>
      <trkpt lat="44.24341" lon="3.22086">
        <ele>886.95</ele>
        <time>2025-09-22T09:15:40Z</time>
      </trkpt>
      <trkpt lat="44.2434" lon="3.22085">
        <ele>886.95</ele>
        <time>2025-09-22T09:15:39Z</time>
      </trkpt>
      <trkpt lat="44.24339" lon="3.22083">
        <ele>886.95</ele>
        <time>2025-09-22T09:15:38Z</time>
      </trkpt>
      <trkpt lat="44.24338" lon="3.22082">
        <ele>886.95</ele>
        <time>2025-09-22T09:15:37Z</time>
      </trkpt>
      <trkpt lat="44.24336" lon="3.22081">
        <ele>886.95</ele>
        <time>2025-09-22T09:15:36Z</time>
      </trkpt>
      <trkpt lat="44.24335" lon="3.22079">
        <ele>886.47</ele>
        <time>2025-09-22T09:15:35Z</time>
      </trkpt>
      <trkpt lat="44.24328" lon="3.22067">
        <ele>886.47</ele>
        <time>2025-09-22T09:15:27Z</time>
      </trkpt>
      <trkpt lat="44.24327" lon="3.22066">
        <ele>885.99</ele>
        <time>2025-09-22T09:15:26Z</time>
      </trkpt>
      <trkpt lat="44.24325" lon="3.22065">
        <ele>885.99</ele>
        <time>2025-09-22T09:15:25Z</time>
      </trkpt>
      <trkpt lat="44.24324" lon="3.22063">
        <ele>885.99</ele>
        <time>2025-09-22T09:15:24Z</time>
      </trkpt>
      <trkpt lat="44.24323" lon="3.22062">
        <ele>885.99</ele>
        <time>2025-09-22T09:15:23Z</time>
      </trkpt>
      <trkpt lat="44.24321" lon="3.2206">
        <ele>885.51</ele>
        <time>2025-09-22T09:15:22Z</time>
      </trkpt>
      <trkpt lat="44.24301" lon="3.22062">
        <ele>883.11</ele>
        <time>2025-09-22T09:15:09Z</time>
      </trkpt>
      <trkpt lat="44.2428" lon="3.22081">
        <ele>881.67</ele>
        <time>2025-09-22T09:14:48Z</time>
      </trkpt>
      <trkpt lat="44.2426" lon="3.22088">
        <ele>880.22</ele>
        <time>2025-09-22T09:14:32Z</time>
      </trkpt>
      <trkpt lat="44.2425" lon="3.22084">
        <ele>877.82</ele>
        <time>2025-09-22T09:14:26Z</time>
      </trkpt>
      <trkpt lat="44.24228" lon="3.22076">
        <ele>875.42</ele>
        <time>2025-09-22T09:14:10Z</time>
      </trkpt>
      <trkpt lat="44.24211" lon="3.2208">
        <ele>878.78</ele>
        <time>2025-09-22T09:13:53Z</time>
      </trkpt>
      <trkpt lat="44.24217" lon="3.22107">
        <ele>878.3</ele>
        <time>2025-09-22T09:13:36Z</time>
      </trkpt>
      <trkpt lat="44.24217" lon="3.2213">
        <ele>880.22</ele>
        <time>2025-09-22T09:13:20Z</time>
      </trkpt>
      <trkpt lat="44.24202" lon="3.22149">
        <ele>879.74</ele>
        <time>2025-09-22T09:13:03Z</time>
      </trkpt>
      <trkpt lat="44.24184" lon="3.22161">
        <ele>882.15</ele>
        <time>2025-09-22T09:12:46Z</time>
      </trkpt>
      <trkpt lat="44.24183" lon="3.22162">
        <ele>882.15</ele>
        <time>2025-09-22T09:12:45Z</time>
      </trkpt>
      <trkpt lat="44.24167" lon="3.22159">
        <ele>885.99</ele>
        <time>2025-09-22T09:12:30Z</time>
      </trkpt>
      <trkpt lat="44.2416" lon="3.22149">
        <ele>886.95</ele>
        <time>2025-09-22T09:12:22Z</time>
      </trkpt>
      <trkpt lat="44.24159" lon="3.22148">
        <ele>886.95</ele>
        <time>2025-09-22T09:12:21Z</time>
      </trkpt>
      <trkpt lat="44.24151" lon="3.22133">
        <ele>888.88</ele>
        <time>2025-09-22T09:12:12Z</time>
      </trkpt>
      <trkpt lat="44.24135" lon="3.22111">
        <ele>888.4</ele>
        <time>2025-09-22T09:11:55Z</time>
      </trkpt>
      <trkpt lat="44.2412" lon="3.22097">
        <ele>888.88</ele>
        <time>2025-09-22T09:11:41Z</time>
      </trkpt>
      <trkpt lat="44.24119" lon="3.22096">
        <ele>889.36</ele>
        <time>2025-09-22T09:11:40Z</time>
      </trkpt>
      <trkpt lat="44.24101" lon="3.22087">
        <ele>891.28</ele>
        <time>2025-09-22T09:11:25Z</time>
      </trkpt>
      <trkpt lat="44.24096" lon="3.22092">
        <ele>890.32</ele>
        <time>2025-09-22T09:11:21Z</time>
      </trkpt>
      <trkpt lat="44.24096" lon="3.22094">
        <ele>889.84</ele>
        <time>2025-09-22T09:11:20Z</time>
      </trkpt>
      <trkpt lat="44.24092" lon="3.22122">
        <ele>887.43</ele>
        <time>2025-09-22T09:11:05Z</time>
      </trkpt>
      <trkpt lat="44.24098" lon="3.2214">
        <ele>886.47</ele>
        <time>2025-09-22T09:10:49Z</time>
      </trkpt>
      <trkpt lat="44.24098" lon="3.22142">
        <ele>885.99</ele>
        <time>2025-09-22T09:10:48Z</time>
      </trkpt>
      <trkpt lat="44.24099" lon="3.22143">
        <ele>885.99</ele>
        <time>2025-09-22T09:10:47Z</time>
      </trkpt>
      <trkpt lat="44.24105" lon="3.2216">
        <ele>885.03</ele>
        <time>2025-09-22T09:10:37Z</time>
      </trkpt>
      <trkpt lat="44.24114" lon="3.22188">
        <ele>882.15</ele>
        <time>2025-09-22T09:10:20Z</time>
      </trkpt>
      <trkpt lat="44.24122" lon="3.22208">
        <ele>880.22</ele>
        <time>2025-09-22T09:10:05Z</time>
      </trkpt>
      <trkpt lat="44.24121" lon="3.2221">
        <ele>880.22</ele>
        <time>2025-09-22T09:10:04Z</time>
      </trkpt>
      <trkpt lat="44.24109" lon="3.2222">
        <ele>882.63</ele>
        <time>2025-09-22T09:09:51Z</time>
      </trkpt>
      <trkpt lat="44.241" lon="3.22225">
        <ele>884.07</ele>
        <time>2025-09-22T09:09:43Z</time>
      </trkpt>
      <trkpt lat="44.24082" lon="3.22236">
        <ele>885.99</ele>
        <time>2025-09-22T09:09:27Z</time>
      </trkpt>
      <trkpt lat="44.24057" lon="3.22243">
        <ele>889.36</ele>
        <time>2025-09-22T09:09:09Z</time>
      </trkpt>
      <trkpt lat="44.24045" lon="3.22248">
        <ele>889.36</ele>
        <time>2025-09-22T09:08:58Z</time>
      </trkpt>
      <trkpt lat="44.24025" lon="3.22259">
        <ele>886.95</ele>
        <time>2025-09-22T09:08:40Z</time>
      </trkpt>
      <trkpt lat="44.24007" lon="3.2226">
        <ele>881.67</ele>
        <time>2025-09-22T09:08:23Z</time>
      </trkpt>
      <trkpt lat="44.24005" lon="3.2226">
        <ele>881.19</ele>
        <time>2025-09-22T09:08:22Z</time>
      </trkpt>
      <trkpt lat="44.23998" lon="3.22258">
        <ele>880.71</ele>
        <time>2025-09-22T09:08:14Z</time>
      </trkpt>
      <trkpt lat="44.23997" lon="3.22258">
        <ele>880.71</ele>
        <time>2025-09-22T09:08:13Z</time>
      </trkpt>
      <trkpt lat="44.23986" lon="3.22245">
        <ele>882.15</ele>
        <time>2025-09-22T09:08:02Z</time>
      </trkpt>
      <trkpt lat="44.23973" lon="3.22221">
        <ele>879.74</ele>
        <time>2025-09-22T09:07:46Z</time>
      </trkpt>
      <trkpt lat="44.23952" lon="3.22208">
        <ele>882.63</ele>
        <time>2025-09-22T09:07:31Z</time>
      </trkpt>
      <trkpt lat="44.23934" lon="3.22203">
        <ele>885.51</ele>
        <time>2025-09-22T09:07:16Z</time>
      </trkpt>
      <trkpt lat="44.23907" lon="3.22193">
        <ele>883.59</ele>
        <time>2025-09-22T09:06:57Z</time>
      </trkpt>
      <trkpt lat="44.23881" lon="3.22193">
        <ele>881.67</ele>
        <time>2025-09-22T09:06:41Z</time>
      </trkpt>
      <trkpt lat="44.23859" lon="3.22199">
        <ele>877.82</ele>
        <time>2025-09-22T09:06:24Z</time>
      </trkpt>
      <trkpt lat="44.23857" lon="3.22199">
        <ele>877.34</ele>
        <time>2025-09-22T09:06:23Z</time>
      </trkpt>
      <trkpt lat="44.23839" lon="3.22208">
        <ele>873.5</ele>
        <time>2025-09-22T09:06:07Z</time>
      </trkpt>
      <trkpt lat="44.23825" lon="3.2222">
        <ele>873.5</ele>
        <time>2025-09-22T09:05:52Z</time>
      </trkpt>
      <trkpt lat="44.23802" lon="3.22223">
        <ele>873.01</ele>
        <time>2025-09-22T09:05:36Z</time>
      </trkpt>
      <trkpt lat="44.23788" lon="3.22222">
        <ele>872.05</ele>
        <time>2025-09-22T09:05:23Z</time>
      </trkpt>
      <trkpt lat="44.23784" lon="3.22218">
        <ele>872.05</ele>
        <time>2025-09-22T09:05:19Z</time>
      </trkpt>
      <trkpt lat="44.23781" lon="3.22214">
        <ele>872.05</ele>
        <time>2025-09-22T09:05:16Z</time>
      </trkpt>
      <trkpt lat="44.2377" lon="3.22185">
        <ele>874.46</ele>
        <time>2025-09-22T09:04:58Z</time>
      </trkpt>
      <trkpt lat="44.23759" lon="3.22163">
        <ele>875.9</ele>
        <time>2025-09-22T09:04:43Z</time>
      </trkpt>
      <trkpt lat="44.23751" lon="3.22134">
        <ele>875.42</ele>
        <time>2025-09-22T09:04:27Z</time>
      </trkpt>
      <trkpt lat="44.2375" lon="3.22132">
        <ele>875.42</ele>
        <time>2025-09-22T09:04:26Z</time>
      </trkpt>
      <trkpt lat="44.23749" lon="3.22128">
        <ele>875.42</ele>
        <time>2025-09-22T09:04:24Z</time>
      </trkpt>
      <trkpt lat="44.23728" lon="3.22114">
        <ele>877.82</ele>
        <time>2025-09-22T09:04:05Z</time>
      </trkpt>
      <trkpt lat="44.23704" lon="3.2212">
        <ele>878.3</ele>
        <time>2025-09-22T09:03:49Z</time>
      </trkpt>
      <trkpt lat="44.23684" lon="3.22115">
        <ele>877.82</ele>
        <time>2025-09-22T09:03:32Z</time>
      </trkpt>
      <trkpt lat="44.23662" lon="3.22098">
        <ele>878.78</ele>
        <time>2025-09-22T09:03:15Z</time>
      </trkpt>
      <trkpt lat="44.23661" lon="3.22096">
        <ele>878.78</ele>
        <time>2025-09-22T09:03:14Z</time>
      </trkpt>
      <trkpt lat="44.23645" lon="3.22073">
        <ele>879.74</ele>
        <time>2025-09-22T09:02:57Z</time>
      </trkpt>
      <trkpt lat="44.23635" lon="3.2206">
        <ele>882.15</ele>
        <time>2025-09-22T09:02:47Z</time>
      </trkpt>
      <trkpt lat="44.23633" lon="3.2206">
        <ele>882.15</ele>
        <time>2025-09-22T09:02:46Z</time>
      </trkpt>
      <trkpt lat="44.23624" lon="3.22051">
        <ele>883.11</ele>
        <time>2025-09-22T09:02:38Z</time>
      </trkpt>
      <trkpt lat="44.23609" lon="3.22027">
        <ele>884.07</ele>
        <time>2025-09-22T09:02:22Z</time>
      </trkpt>
      <trkpt lat="44.23606" lon="3.2202">
        <ele>883.59</ele>
        <time>2025-09-22T09:02:18Z</time>
      </trkpt>
      <trkpt lat="44.23586" lon="3.21997">
        <ele>886.47</ele>
        <time>2025-09-22T09:02:00Z</time>
      </trkpt>
      <trkpt lat="44.2357" lon="3.21999">
        <ele>888.4</ele>
        <time>2025-09-22T09:01:46Z</time>
      </trkpt>
      <trkpt lat="44.23564" lon="3.22001">
        <ele>887.43</ele>
        <time>2025-09-22T09:01:42Z</time>
      </trkpt>
      <trkpt lat="44.23558" lon="3.22003">
        <ele>887.43</ele>
        <time>2025-09-22T09:01:38Z</time>
      </trkpt>
      <trkpt lat="44.23554" lon="3.21993">
        <ele>889.84</ele>
        <time>2025-09-22T09:01:23Z</time>
      </trkpt>
      <trkpt lat="44.23566" lon="3.21984">
        <ele>890.8</ele>
        <time>2025-09-22T09:01:12Z</time>
      </trkpt>
      <trkpt lat="44.23581" lon="3.21956">
        <ele>891.76</ele>
        <time>2025-09-22T09:00:57Z</time>
      </trkpt>
      <trkpt lat="44.23595" lon="3.21926">
        <ele>898.01</ele>
        <time>2025-09-22T09:00:39Z</time>
      </trkpt>
      <trkpt lat="44.23604" lon="3.21928">
        <ele>901.85</ele>
        <time>2025-09-22T09:00:24Z</time>
      </trkpt>
      <trkpt lat="44.23606" lon="3.21935">
        <ele>901.85</ele>
        <time>2025-09-22T09:00:19Z</time>
      </trkpt>
      <trkpt lat="44.23617" lon="3.21942">
        <ele>900.89</ele>
        <time>2025-09-22T09:00:05Z</time>
      </trkpt>
      <trkpt lat="44.23639" lon="3.21937">
        <ele>896.57</ele>
        <time>2025-09-22T08:59:49Z</time>
      </trkpt>
      <trkpt lat="44.2364" lon="3.21936">
        <ele>896.57</ele>
        <time>2025-09-22T08:59:48Z</time>
      </trkpt>
      <trkpt lat="44.23642" lon="3.21935">
        <ele>896.57</ele>
        <time>2025-09-22T08:59:47Z</time>
      </trkpt>
      <trkpt lat="44.2365" lon="3.21926">
        <ele>898.01</ele>
        <time>2025-09-22T08:59:40Z</time>
      </trkpt>
      <trkpt lat="44.23651" lon="3.21925">
        <ele>898.01</ele>
        <time>2025-09-22T08:59:39Z</time>
      </trkpt>
      <trkpt lat="44.23652" lon="3.21923">
        <ele>898.01</ele>
        <time>2025-09-22T08:59:38Z</time>
      </trkpt>
      <trkpt lat="44.23652" lon="3.21921">
        <ele>898.01</ele>
        <time>2025-09-22T08:59:37Z</time>
      </trkpt>
      <trkpt lat="44.23648" lon="3.21917">
        <ele>898.97</ele>
        <time>2025-09-22T08:59:23Z</time>
      </trkpt>
      <trkpt lat="44.23641" lon="3.21914">
        <ele>900.89</ele>
        <time>2025-09-22T08:59:17Z</time>
      </trkpt>
      <trkpt lat="44.23625" lon="3.21902">
        <ele>903.3</ele>
        <time>2025-09-22T08:59:03Z</time>
      </trkpt>
      <trkpt lat="44.23616" lon="3.21875">
        <ele>906.66</ele>
        <time>2025-09-22T08:58:45Z</time>
      </trkpt>
      <trkpt lat="44.23598" lon="3.21855">
        <ele>908.58</ele>
        <time>2025-09-22T08:58:29Z</time>
      </trkpt>
      <trkpt lat="44.23577" lon="3.21842">
        <ele>912.43</ele>
        <time>2025-09-22T08:58:12Z</time>
      </trkpt>
      <trkpt lat="44.23576" lon="3.21841">
        <ele>912.91</ele>
        <time>2025-09-22T08:58:11Z</time>
      </trkpt>
      <trkpt lat="44.23559" lon="3.21822">
        <ele>913.39</ele>
        <time>2025-09-22T08:57:55Z</time>
      </trkpt>
      <trkpt lat="44.23548" lon="3.21802">
        <ele>914.83</ele>
        <time>2025-09-22T08:57:42Z</time>
      </trkpt>
      <trkpt lat="44.23545" lon="3.21798">
        <ele>916.27</ele>
        <time>2025-09-22T08:57:38Z</time>
      </trkpt>
      <trkpt lat="44.23526" lon="3.21788">
        <ele>921.56</ele>
        <time>2025-09-22T08:57:22Z</time>
      </trkpt>
      <trkpt lat="44.2351" lon="3.21785">
        <ele>926.37</ele>
        <time>2025-09-22T08:57:08Z</time>
      </trkpt>
      <trkpt lat="44.23491" lon="3.21777">
        <ele>929.25</ele>
        <time>2025-09-22T08:56:51Z</time>
      </trkpt>
      <trkpt lat="44.23489" lon="3.21775">
        <ele>929.25</ele>
        <time>2025-09-22T08:56:49Z</time>
      </trkpt>
      <trkpt lat="44.23482" lon="3.21775">
        <ele>929.25</ele>
        <time>2025-09-22T08:56:42Z</time>
      </trkpt>
      <trkpt lat="44.23472" lon="3.21782">
        <ele>927.81</ele>
        <time>2025-09-22T08:56:32Z</time>
      </trkpt>
      <trkpt lat="44.23472" lon="3.21784">
        <ele>927.81</ele>
        <time>2025-09-22T08:56:05Z</time>
      </trkpt>
      <trkpt lat="44.23466" lon="3.21791">
        <ele>926.85</ele>
        <time>2025-09-22T08:55:49Z</time>
      </trkpt>
      <trkpt lat="44.23461" lon="3.21793">
        <ele>926.85</ele>
        <time>2025-09-22T08:55:32Z</time>
      </trkpt>
      <trkpt lat="44.2346" lon="3.21796">
        <ele>925.89</ele>
        <time>2025-09-22T08:55:05Z</time>
      </trkpt>
      <trkpt lat="44.23459" lon="3.21796">
        <ele>925.41</ele>
        <time>2025-09-22T08:54:50Z</time>
      </trkpt>
      <trkpt lat="44.23463" lon="3.21798">
        <ele>925.41</ele>
        <time>2025-09-22T08:54:35Z</time>
      </trkpt>
      <trkpt lat="44.2347" lon="3.21801">
        <ele>925.41</ele>
        <time>2025-09-22T08:54:19Z</time>
      </trkpt>
      <trkpt lat="44.23472" lon="3.21801">
        <ele>925.89</ele>
        <time>2025-09-22T08:54:17Z</time>
      </trkpt>
      <trkpt lat="44.23478" lon="3.21794">
        <ele>926.85</ele>
        <time>2025-09-22T08:54:10Z</time>
      </trkpt>
      <trkpt lat="44.2349" lon="3.21781">
        <ele>929.25</ele>
        <time>2025-09-22T08:53:54Z</time>
      </trkpt>
      <trkpt lat="44.23488" lon="3.21774">
        <ele>929.25</ele>
        <time>2025-09-22T08:53:33Z</time>
      </trkpt>
      <trkpt lat="44.23488" lon="3.21772">
        <ele>930.21</ele>
        <time>2025-09-22T08:53:17Z</time>
      </trkpt>
      <trkpt lat="44.23489" lon="3.21764">
        <ele>927.33</ele>
        <time>2025-09-22T08:52:54Z</time>
      </trkpt>
      <trkpt lat="44.23493" lon="3.2175">
        <ele>926.85</ele>
        <time>2025-09-22T08:52:39Z</time>
      </trkpt>
      <trkpt lat="44.235" lon="3.21727">
        <ele>926.37</ele>
        <time>2025-09-22T08:52:25Z</time>
      </trkpt>
      <trkpt lat="44.235" lon="3.21699">
        <ele>926.37</ele>
        <time>2025-09-22T08:52:11Z</time>
      </trkpt>
      <trkpt lat="44.235" lon="3.21697">
        <ele>926.37</ele>
        <time>2025-09-22T08:52:10Z</time>
      </trkpt>
      <trkpt lat="44.23497" lon="3.21674">
        <ele>923.96</ele>
        <time>2025-09-22T08:51:58Z</time>
      </trkpt>
      <trkpt lat="44.23497" lon="3.21644">
        <ele>924.93</ele>
        <time>2025-09-22T08:51:42Z</time>
      </trkpt>
      <trkpt lat="44.235" lon="3.21632">
        <ele>926.37</ele>
        <time>2025-09-22T08:51:35Z</time>
      </trkpt>
      <trkpt lat="44.23501" lon="3.21631">
        <ele>926.37</ele>
        <time>2025-09-22T08:51:34Z</time>
      </trkpt>
      <trkpt lat="44.23502" lon="3.2162">
        <ele>925.41</ele>
        <time>2025-09-22T08:51:28Z</time>
      </trkpt>
      <trkpt lat="44.23504" lon="3.21595">
        <ele>925.89</ele>
        <time>2025-09-22T08:51:14Z</time>
      </trkpt>
      <trkpt lat="44.2351" lon="3.21574">
        <ele>923</ele>
        <time>2025-09-22T08:50:54Z</time>
      </trkpt>
      <trkpt lat="44.23509" lon="3.21557">
        <ele>923.96</ele>
        <time>2025-09-22T08:50:38Z</time>
      </trkpt>
      <trkpt lat="44.2351" lon="3.21555">
        <ele>924.45</ele>
        <time>2025-09-22T08:50:37Z</time>
      </trkpt>
      <trkpt lat="44.2351" lon="3.21553">
        <ele>924.45</ele>
        <time>2025-09-22T08:50:36Z</time>
      </trkpt>
      <trkpt lat="44.2351" lon="3.21551">
        <ele>923.96</ele>
        <time>2025-09-22T08:50:35Z</time>
      </trkpt>
      <trkpt lat="44.23511" lon="3.21549">
        <ele>923.48</ele>
        <time>2025-09-22T08:50:34Z</time>
      </trkpt>
      <trkpt lat="44.23511" lon="3.21547">
        <ele>923</ele>
        <time>2025-09-22T08:50:33Z</time>
      </trkpt>
      <trkpt lat="44.23522" lon="3.21518">
        <ele>916.75</ele>
        <time>2025-09-22T08:50:14Z</time>
      </trkpt>
      <trkpt lat="44.23527" lon="3.21484">
        <ele>918.68</ele>
        <time>2025-09-22T08:49:56Z</time>
      </trkpt>
      <trkpt lat="44.23537" lon="3.21447">
        <ele>922.52</ele>
        <time>2025-09-22T08:49:36Z</time>
      </trkpt>
      <trkpt lat="44.23543" lon="3.21418">
        <ele>923.48</ele>
        <time>2025-09-22T08:49:19Z</time>
      </trkpt>
      <trkpt lat="44.23556" lon="3.21388">
        <ele>930.21</ele>
        <time>2025-09-22T08:48:59Z</time>
      </trkpt>
      <trkpt lat="44.23568" lon="3.21358">
        <ele>923</ele>
        <time>2025-09-22T08:48:41Z</time>
      </trkpt>
      <trkpt lat="44.23585" lon="3.21319">
        <ele>916.75</ele>
        <time>2025-09-22T08:48:21Z</time>
      </trkpt>
      <trkpt lat="44.23602" lon="3.21289">
        <ele>922.52</ele>
        <time>2025-09-22T08:47:58Z</time>
      </trkpt>
      <trkpt lat="44.23612" lon="3.21261">
        <ele>927.81</ele>
        <time>2025-09-22T08:47:39Z</time>
      </trkpt>
      <trkpt lat="44.23625" lon="3.21228">
        <ele>927.33</ele>
        <time>2025-09-22T08:47:22Z</time>
      </trkpt>
      <trkpt lat="44.2364" lon="3.21201">
        <ele>931.17</ele>
        <time>2025-09-22T08:47:01Z</time>
      </trkpt>
      <trkpt lat="44.23652" lon="3.21178">
        <ele>931.65</ele>
        <time>2025-09-22T08:46:45Z</time>
      </trkpt>
      <trkpt lat="44.23663" lon="3.21153">
        <ele>936.94</ele>
        <time>2025-09-22T08:46:28Z</time>
      </trkpt>
      <trkpt lat="44.23674" lon="3.21125">
        <ele>938.38</ele>
        <time>2025-09-22T08:46:12Z</time>
      </trkpt>
      <trkpt lat="44.23681" lon="3.21105">
        <ele>940.31</ele>
        <time>2025-09-22T08:46:00Z</time>
      </trkpt>
      <trkpt lat="44.23696" lon="3.21091">
        <ele>941.75</ele>
        <time>2025-09-22T08:45:44Z</time>
      </trkpt>
      <trkpt lat="44.23697" lon="3.21091">
        <ele>941.75</ele>
        <time>2025-09-22T08:45:43Z</time>
      </trkpt>
      <trkpt lat="44.23695" lon="3.21081">
        <ele>940.31</ele>
        <time>2025-09-22T08:45:36Z</time>
      </trkpt>
      <trkpt lat="44.23676" lon="3.21063">
        <ele>938.38</ele>
        <time>2025-09-22T08:45:18Z</time>
      </trkpt>
      <trkpt lat="44.23654" lon="3.21051">
        <ele>934.06</ele>
        <time>2025-09-22T08:44:59Z</time>
      </trkpt>
      <trkpt lat="44.23653" lon="3.2105">
        <ele>933.58</ele>
        <time>2025-09-22T08:44:58Z</time>
      </trkpt>
      <trkpt lat="44.2365" lon="3.21047">
        <ele>930.69</ele>
        <time>2025-09-22T08:44:55Z</time>
      </trkpt>
      <trkpt lat="44.23631" lon="3.21034">
        <ele>924.93</ele>
        <time>2025-09-22T08:44:38Z</time>
      </trkpt>
      <trkpt lat="44.23608" lon="3.21028">
        <ele>921.08</ele>
        <time>2025-09-22T08:44:18Z</time>
      </trkpt>
      <trkpt lat="44.23588" lon="3.21018">
        <ele>917.72</ele>
        <time>2025-09-22T08:43:59Z</time>
      </trkpt>
      <trkpt lat="44.23558" lon="3.21006">
        <ele>916.27</ele>
        <time>2025-09-22T08:43:39Z</time>
      </trkpt>
      <trkpt lat="44.23539" lon="3.20999">
        <ele>916.27</ele>
        <time>2025-09-22T08:43:22Z</time>
      </trkpt>
      <trkpt lat="44.23513" lon="3.20991">
        <ele>913.39</ele>
        <time>2025-09-22T08:43:05Z</time>
      </trkpt>
      <trkpt lat="44.23493" lon="3.20991">
        <ele>917.24</ele>
        <time>2025-09-22T08:42:46Z</time>
      </trkpt>
      <trkpt lat="44.23486" lon="3.20985">
        <ele>921.56</ele>
        <time>2025-09-22T08:42:35Z</time>
      </trkpt>
      <trkpt lat="44.23465" lon="3.20962">
        <ele>924.93</ele>
        <time>2025-09-22T08:42:17Z</time>
      </trkpt>
      <trkpt lat="44.23446" lon="3.20948">
        <ele>930.21</ele>
        <time>2025-09-22T08:42:01Z</time>
      </trkpt>
      <trkpt lat="44.23445" lon="3.20947">
        <ele>930.69</ele>
        <time>2025-09-22T08:42:00Z</time>
      </trkpt>
      <trkpt lat="44.23437" lon="3.20942">
        <ele>933.1</ele>
        <time>2025-09-22T08:41:52Z</time>
      </trkpt>
      <trkpt lat="44.23436" lon="3.2094">
        <ele>933.1</ele>
        <time>2025-09-22T08:41:51Z</time>
      </trkpt>
      <trkpt lat="44.23435" lon="3.20938">
        <ele>933.1</ele>
        <time>2025-09-22T08:41:50Z</time>
      </trkpt>
      <trkpt lat="44.23436" lon="3.20921">
        <ele>934.54</ele>
        <time>2025-09-22T08:41:41Z</time>
      </trkpt>
      <trkpt lat="44.23431" lon="3.20887">
        <ele>936.46</ele>
        <time>2025-09-22T08:41:24Z</time>
      </trkpt>
      <trkpt lat="44.2342" lon="3.20846">
        <ele>938.38</ele>
        <time>2025-09-22T08:41:03Z</time>
      </trkpt>
      <trkpt lat="44.23416" lon="3.20841">
        <ele>939.35</ele>
        <time>2025-09-22T08:40:59Z</time>
      </trkpt>
      <trkpt lat="44.23407" lon="3.20811">
        <ele>942.23</ele>
        <time>2025-09-22T08:40:42Z</time>
      </trkpt>
      <trkpt lat="44.23406" lon="3.20781">
        <ele>941.75</ele>
        <time>2025-09-22T08:40:27Z</time>
      </trkpt>
      <trkpt lat="44.23406" lon="3.20779">
        <ele>941.75</ele>
        <time>2025-09-22T08:40:26Z</time>
      </trkpt>
      <trkpt lat="44.23406" lon="3.20777">
        <ele>941.75</ele>
        <time>2025-09-22T08:40:25Z</time>
      </trkpt>
      <trkpt lat="44.23406" lon="3.20775">
        <ele>941.75</ele>
        <time>2025-09-22T08:40:24Z</time>
      </trkpt>
      <trkpt lat="44.23407" lon="3.20773">
        <ele>941.27</ele>
        <time>2025-09-22T08:40:23Z</time>
      </trkpt>
      <trkpt lat="44.23406" lon="3.20766">
        <ele>942.23</ele>
        <time>2025-09-22T08:40:20Z</time>
      </trkpt>
      <trkpt lat="44.23403" lon="3.20732">
        <ele>942.23</ele>
        <time>2025-09-22T08:40:02Z</time>
      </trkpt>
      <trkpt lat="44.23394" lon="3.20696">
        <ele>942.23</ele>
        <time>2025-09-22T08:39:42Z</time>
      </trkpt>
      <trkpt lat="44.23385" lon="3.2066">
        <ele>942.71</ele>
        <time>2025-09-22T08:39:23Z</time>
      </trkpt>
      <trkpt lat="44.23378" lon="3.20621">
        <ele>944.15</ele>
        <time>2025-09-22T08:39:05Z</time>
      </trkpt>
      <trkpt lat="44.23367" lon="3.20603">
        <ele>944.63</ele>
        <time>2025-09-22T08:38:51Z</time>
      </trkpt>
      <trkpt lat="44.23366" lon="3.20602">
        <ele>944.63</ele>
        <time>2025-09-22T08:38:50Z</time>
      </trkpt>
      <trkpt lat="44.23366" lon="3.206">
        <ele>944.63</ele>
        <time>2025-09-22T08:38:49Z</time>
      </trkpt>
      <trkpt lat="44.23367" lon="3.20589">
        <ele>944.63</ele>
        <time>2025-09-22T08:38:43Z</time>
      </trkpt>
      <trkpt lat="44.23367" lon="3.20587">
        <ele>944.63</ele>
        <time>2025-09-22T08:38:42Z</time>
      </trkpt>
      <trkpt lat="44.23367" lon="3.20584">
        <ele>944.63</ele>
        <time>2025-09-22T08:38:41Z</time>
      </trkpt>
      <trkpt lat="44.23368" lon="3.20581">
        <ele>945.11</ele>
        <time>2025-09-22T08:38:40Z</time>
      </trkpt>
      <trkpt lat="44.23369" lon="3.20579">
        <ele>945.11</ele>
        <time>2025-09-22T08:38:39Z</time>
      </trkpt>
      <trkpt lat="44.23369" lon="3.20577">
        <ele>945.11</ele>
        <time>2025-09-22T08:38:38Z</time>
      </trkpt>
      <trkpt lat="44.23377" lon="3.20539">
        <ele>947.04</ele>
        <time>2025-09-22T08:38:20Z</time>
      </trkpt>
      <trkpt lat="44.23378" lon="3.20501">
        <ele>946.07</ele>
        <time>2025-09-22T08:38:01Z</time>
      </trkpt>
      <trkpt lat="44.23377" lon="3.20456">
        <ele>949.92</ele>
        <time>2025-09-22T08:37:42Z</time>
      </trkpt>
      <trkpt lat="44.23379" lon="3.20419">
        <ele>953.77</ele>
        <time>2025-09-22T08:37:24Z</time>
      </trkpt>
      <trkpt lat="44.23382" lon="3.2038">
        <ele>956.17</ele>
        <time>2025-09-22T08:37:05Z</time>
      </trkpt>
      <trkpt lat="44.23378" lon="3.20348">
        <ele>955.69</ele>
        <time>2025-09-22T08:36:47Z</time>
      </trkpt>
      <trkpt lat="44.23378" lon="3.20345">
        <ele>955.69</ele>
        <time>2025-09-22T08:36:46Z</time>
      </trkpt>
      <trkpt lat="44.23374" lon="3.20311">
        <ele>952.32</ele>
        <time>2025-09-22T08:36:28Z</time>
      </trkpt>
      <trkpt lat="44.23369" lon="3.20287">
        <ele>948.48</ele>
        <time>2025-09-22T08:36:13Z</time>
      </trkpt>
      <trkpt lat="44.23362" lon="3.2026">
        <ele>946.56</ele>
        <time>2025-09-22T08:35:59Z</time>
      </trkpt>
      <trkpt lat="44.23353" lon="3.20224">
        <ele>945.59</ele>
        <time>2025-09-22T08:35:41Z</time>
      </trkpt>
      <trkpt lat="44.23344" lon="3.20193">
        <ele>943.67</ele>
        <time>2025-09-22T08:35:24Z</time>
      </trkpt>
      <trkpt lat="44.23343" lon="3.20151">
        <ele>939.83</ele>
        <time>2025-09-22T08:35:03Z</time>
      </trkpt>
      <trkpt lat="44.2334" lon="3.20106">
        <ele>936.94</ele>
        <time>2025-09-22T08:34:42Z</time>
      </trkpt>
      <trkpt lat="44.23335" lon="3.2008">
        <ele>936.46</ele>
        <time>2025-09-22T08:34:27Z</time>
      </trkpt>
      <trkpt lat="44.23321" lon="3.20047">
        <ele>936.46</ele>
        <time>2025-09-22T08:34:08Z</time>
      </trkpt>
      <trkpt lat="44.23305" lon="3.2002">
        <ele>935.98</ele>
        <time>2025-09-22T08:33:48Z</time>
      </trkpt>
    </trkseg>
  </trk>
</gpx>